GFSNGP_con_mucape_000.txt.gz
CAPE
0 0 0 0 0 0 0 0 3 0 8 11 1 0 0 0 4 238 865 967 1321 1500 2493 2777 2740 2870 2583 2360 2402 2460 2670 2713 3018 3048 2663 1991 1267 772 332 152 438 48 33 1
35 8 7 4 0 0 0 0 0 0 0 0 0 0 0 0 0 289 1017 1103 1419 1670 1938 2312 2362 2491 2564 2594 2495 2641 2819 2892 3026 3421 2400 1477 1133 867 897 745 429 204 88 12
216 111 66 63 11 3 0 0 0 0 0 0 0 0 0 1 123 332 960 1135 1298 1635 1849 2315 2444 2685 2635 2645 2599 2681 2893 3024 3223 3019 1968 1297 1216 1243 1147 791 539 440 197 146
342 289 247 1 1 0 0 0 0 0 0 0 0 0 15 153 81 349 966 1149 1281 1389 1751 2013 1974 2102 2180 2333 2541 2734 2980 2999 3004 2649 1727 1612 1240 1160 1089 1033 969 662 353 252
204 290 134 31 196 28 3 0 0 0 0 0 0 3 294 192 181 516 1033 1355 1392 1329 1605 1842 1565 1804 1903 2096 2360 2557 2764 2824 2508 2075 1479 1216 1242 1165 1169 935 783 654 657 555
298 197 174 566 323 222 315 80 0 0 0 0 9 42 1 361 125 246 755 984 1177 1086 1399 1362 1377 1506 1874 2058 2385 2624 2728 2656 2085 1747 1680 1534 1427 1312 1146 1160 826 516 598 664
271 310 301 444 265 400 352 51 4 44 117 160 243 406 538 417 490 691 1052 1164 1246 1161 1102 1333 1373 1626 1856 2080 2341 2514 2695 2494 1929 1905 2116 2034 1818 1347 1108 959 855 931 781 1051
303 362 331 166 440 665 658 457 448 455 522 528 495 737 849 873 1058 1126 1058 896 820 1307 1703 1716 1748 2005 2283 2430 2671 2805 2776 2134 2073 1880 1787 1831 1631 1180 948 1081 1069 887 1445 1245
284 208 218 100 275 457 589 615 600 605 564 577 534 632 720 734 735 767 728 742 870 1433 1904 2162 2370 2381 2698 3294 3053 2911 2274 2245 1986 1810 1549 1528 1469 949 815 913 871 1157 1285 1039
510 243 70 38 66 185 323 374 360 374 330 384 366 413 473 580 819 1125 1291 1141 1137 1312 1791 2409 2530 2653 3047 2568 2637 2721 2174 2059 1673 1902 1623 1477 1289 1140 1346 1327 1077 1644 1347 1028
280 105 17 9 8 14 86 114 206 253 275 313 617 833 1116 1288 1270 1295 1391 1323 1247 1437 2031 2337 2405 2426 2318 2245 2191 2190 1987 1767 2172 1753 1296 1677 1298 1022 1289 579 400 602 474 253
137 123 46 0 15 2 6 44 41 75 63 76 163 264 516 960 1295 1478 1765 1802 1869 1966 2300 2401 2416 2400 2419 2133 2181 2108 2143 1717 1481 1526 1682 1513 830 634 391 224 24 17 82 179
79 45 45 8 0 10 12 14 1 14 66 81 59 56 23 31 86 156 767 1023 1948 1849 2070 2163 2298 2304 2288 2302 2047 1813 1699 1650 1455 990 1008 1027 975 582 198 13 20 0 31 46
0 23 10 17 46 11 12 3 0 0 0 0 0 8 27 26 9 7 45 334 613 1611 1849 1916 1938 2052 1960 1742 1803 1724 1374 721 972 882 838 662 622 648 621 528 226 3 9 26
19 17 21 17 0 0 0 0 1 0 0 0 0 0 0 0 0 0 0 0 64 350 1017 1873 1815 1812 1511 1267 1140 829 484 511 526 353 257 155 281 322 451 468 327 197 54 32
17 0 0 16 0 3 18 2 14 0 0 0 0 0 0 0 0 0 0 0 0 77 471 1115 1811 1532 1208 618 281 164 210 14 68 287 447 481 589 511 500 451 472 415 121 35
0 13 16 0 0 0 17 0 2 0 0 0 0 0 0 0 3 6 14 16 254 381 568 1186 1472 1349 818 404 360 336 369 421 182 451 418 315 216 192 189 262 303 253 247 112
4 1 0 0 3 4 0 19 1 5 9 0 0 0 0 16 44 115 240 399 619 799 941 1233 1353 1174 900 746 437 456 381 203 109 24 73 184 215 299 336 319 268 258 213 11
0 0 1 0 0 0 0 0 0 0 0 0 0 3 13 45 190 233 267 269 566 590 430 883 708 648 930 420 293 181 103 84 162 333 306 168 308 352 401 383 345 252 248 167
14 3 1 0 0 0 0 0 0 1 7 16 20 24 41 54 75 108 281 338 274 359 415 274 485 489 263 46 21 106 224 230 197 153 108 100 128 232 308 124 225 136 124 85
2 5 1 2 1 4 11 4 8 17 35 39 40 44 48 48 55 66 75 85 145 123 202 79 307 280 132 41 77 123 120 110 100 90 73 73 130 104 98 72 23 57 55 26
41 19 15 14 11 14 41 62 47 54 75 78 66 61 42 33 85 110 92 64 142 31 132 110 64 1 7 0 24 2 1 0 0 0 0 2 3 7 10 11 10 11 16 22
74 50 25 26 42 54 52 53 91 117 97 113 99 57 18 15 10 47 107 77 130 13 99 36 0 0 0 0 0 0 0 0 0 0 0 0 0 0 2 3 4 2 2 4
172 134 165 89 58 46 51 58 40 52 83 81 65 57 4 0 29 26 57 10 0 4 35 3 0 0 0 1 0 0 0 0 0 0 0 0 0 0 0 1 6 9 6 3
213 130 106 102 38 34 41 56 38 14 29 85 58 36 23 23 12 17 43 48 10 31 132 17 0 0 1 25 39 32 27 21 19 16 11 10 4 0 0 0 9 16 13 5
17 32 41 43 46 41 38 41 46 43 20 38 44 52 41 37 43 26 39 17 23 34 23 77 118 71 83 73 59 62 48 41 25 20 3 8 13 4 0 0 0 0 1 0
0 0 1 3 1 6 11 21 31 41 20 6 13 41 20 20 17 3 1 27 50 52 61 68 71 57 65 52 55 63 51 45 18 22 26 18 17 11 5 0 0 0 1 1

GFSNGP_con_mucape_003.txt.gz
CAPE
0 0 3 0 0 0 0 0 1 4 40 37 83 70 15 3 0 0 1 369 968 1201 2285 2469 2198 2452 2362 1978 2363 2186 3204 3068 4028 4453 4081 3903 3977 3938 3153 2614 2010 1180 919 703
0 0 0 2 3 0 0 0 0 0 1 18 17 86 34 0 0 0 0 15 937 1442 1821 3052 2824 3157 3048 2942 3022 3070 3899 3782 4362 4646 4294 3901 3835 3346 2302 2179 1548 999 458 424
161 66 93 72 0 0 1 1 0 0 0 0 15 64 97 16 0 2 64 94 478 1373 1834 2511 2507 3440 3417 3635 3390 3787 4306 4408 4780 4821 4254 3346 3105 2694 2159 1819 1510 1108 515 522
143 330 239 0 99 58 30 22 13 8 0 0 15 33 50 13 1 66 174 171 229 1086 1823 2730 2288 2308 2919 3085 4095 4370 4529 4541 4758 4618 3683 2685 2346 2057 1955 2025 1846 1286 668 862
281 406 273 221 541 440 500 195 29 24 1 0 1 2 16 0 0 2 27 224 432 1392 1839 3427 3038 3569 3734 3439 3895 4181 4002 4551 4685 4048 3286 2498 1846 1785 2185 2130 2330 1209 811 775
450 266 326 171 700 508 402 211 15 45 49 0 3 65 11 1 30 408 462 246 860 1648 2098 2744 3289 2763 3344 2911 3469 3936 4035 4265 4573 3732 2984 2198 1835 1891 2193 2286 1915 960 904 893
78 216 179 845 502 547 429 417 1114 844 628 308 20 61 685 640 432 523 565 1380 2020 2028 2883 3243 3132 2538 3197 3071 3062 3100 3221 3339 3536 2930 2608 1943 2056 2288 2019 1886 1455 857 718 1104
90 142 183 549 556 575 1070 886 1008 993 864 1062 48 631 747 858 939 1010 1215 1600 1712 2228 2590 2520 2879 3082 3368 3566 3724 3908 3752 3447 2907 2458 2165 2157 2361 1828 1552 1575 1410 1335 1627 1471
101 268 916 714 891 840 831 892 1002 1071 962 895 1028 938 1059 1290 1534 1626 1624 1671 1537 1503 2454 2458 3096 3318 3693 4535 4370 4062 3919 3065 2549 2480 2395 2533 2292 2048 1733 1558 1211 1285 1354 1055
552 662 586 672 599 591 621 705 759 1003 1079 1138 1215 1152 1050 931 891 844 965 1290 1339 1598 2156 2697 3180 2822 3591 3528 3599 3661 2900 2466 2360 2322 2212 2173 2145 1437 1145 885 1051 1250 1250 1432
767 533 331 182 231 230 309 432 419 650 830 1245 1144 1104 1195 1517 1596 1197 1141 1161 1419 1705 2136 2440 2832 3240 2973 3261 3388 2756 2429 2373 2740 2339 2127 2020 1391 1228 1622 1569 1407 1166 1133 1234
521 560 298 0 0 8 39 55 140 166 398 633 852 937 1125 1378 1399 1370 1375 1458 1773 1733 2224 2559 2762 2890 2829 2892 3005 3071 2670 2560 2299 2029 2250 1595 931 957 936 587 561 440 238 192
157 81 0 0 0 37 6 0 0 0 0 1 0 9 32 123 277 319 1068 1251 1475 1606 1940 2358 2606 2899 2694 3067 2940 2678 2513 2362 2170 1797 1928 1711 1529 1360 741 412 233 1 0 45
65 1 0 0 6 8 4 0 0 0 3 1 8 15 22 0 25 98 328 653 1192 1377 2022 2278 2390 2684 2767 2947 3048 2596 2186 1483 1723 1799 1346 1332 1211 931 597 344 150 28 4 12
4 0 0 4 12 8 18 1 5 0 0 1 5 24 26 7 25 25 3 2 38 418 1315 1481 2143 2046 2043 2197 2238 2133 1592 1209 1291 1015 881 612 600 455 452 548 412 118 56 0
5 1 1 0 30 27 0 0 0 0 0 0 0 0 0 0 3 0 0 0 0 78 306 1004 1735 1855 1768 1752 1586 1101 824 640 654 591 441 349 355 302 307 300 244 189 140 26
7 6 13 4 1 6 15 0 0 0 0 0 0 1 2 18 20 101 83 31 36 29 172 635 1612 2230 1586 1095 707 419 293 373 169 521 267 310 289 236 177 168 168 163 229 54
3 3 0 0 0 0 0 0 0 46 9 11 16 63 82 93 201 100 66 49 460 189 392 867 1611 1491 1518 948 795 447 376 347 343 303 165 71 104 125 122 133 153 166 61 44
8 0 0 0 40 51 55 30 25 46 31 17 29 67 80 123 110 131 222 252 430 683 868 1344 1066 1058 1419 962 560 471 287 199 157 63 100 57 146 172 160 192 206 302 164 214
1 0 4 17 21 36 49 24 33 42 59 63 63 90 158 60 128 282 372 430 575 686 689 698 709 922 964 437 131 209 160 177 168 257 216 208 139 87 78 33 122 90 78 178
42 24 20 35 20 25 23 42 17 79 119 48 220 227 177 177 30 154 267 175 364 405 313 304 391 387 328 106 133 254 225 158 131 165 172 113 74 56 71 79 27 20 40 58
61 35 30 34 32 36 104 60 104 124 95 133 109 78 149 54 253 175 178 291 197 73 122 236 72 56 83 66 153 153 104 87 77 72 52 24 18 22 33 37 44 48 30 33
59 44 43 35 48 68 58 46 84 100 122 108 129 29 16 24 80 210 182 133 162 36 48 18 1 3 0 27 39 18 14 5 5 3 2 0 0 1 1 2 3 4 3 1
113 149 158 84 65 100 130 28 39 38 23 194 23 4 0 8 77 41 57 8 0 0 0 31 1 0 0 14 14 10 6 1 0 0 0 0 0 0 0 0 0 5 5 0
159 244 176 284 228 240 131 87 275 72 116 226 199 146 67 78 37 36 23 63 5 0 28 6 2 0 0 1 31 43 37 29 22 19 16 11 8 7 2 0 1 7 9 10
198 141 119 112 89 76 61 73 58 56 48 72 78 81 89 79 76 66 190 61 60 49 34 93 79 40 37 28 41 58 61 72 42 29 12 9 6 13 16 9 5 4 2 0
18 11 26 23 26 18 19 20 45 34 38 23 8 35 68 63 49 48 29 50 37 50 52 67 78 93 55 74 65 59 58 74 31 39 36 36 38 32 27 26 19 7 5 4

GFSNGP_con_mucape_006.txt.gz
CAPE
0 0 0 0 0 0 0 0 0 0 0 130 165 325 149 130 183 246 467 1167 1395 1697 1867 1603 1677 1655 1628 1692 1851 2084 2980 3479 3617 3873 3699 3673 3651 3695 3545 3754 3581 3256 2284 1796
0 0 0 5 0 0 0 0 0 0 0 0 48 80 458 191 185 240 269 323 1473 1756 2678 3069 2035 1862 1623 1580 1666 1956 2497 2932 3372 3777 3991 3843 3676 3868 3780 3965 3474 3008 1934 1312
0 0 1 22 0 2 0 0 0 0 0 0 24 149 386 657 294 268 212 306 749 2044 2196 2485 2677 2102 1747 1701 1914 1966 2718 2983 3205 3856 4180 3919 3848 3902 4051 3750 3062 2374 1590 849
32 160 82 0 0 1 1 1 0 0 0 0 0 7 19 20 89 135 325 157 251 24 2129 2803 2820 2269 2257 2127 2416 2374 3885 3379 3603 4259 4287 4050 3961 3915 3938 3077 2569 2257 1767 1264
234 273 48 36 44 96 42 16 6 4 45 4 0 0 1 0 0 22 6 698 388 54 662 2759 2845 2786 3152 2704 2547 3865 3544 4180 4254 4794 4511 4336 3990 3665 3252 2717 2977 2399 1889 1325
179 82 177 262 460 351 331 238 821 773 632 427 123 34 0 13 65 30 4 61 1062 1165 1337 3201 3335 2997 3180 3471 3238 3121 4110 4405 4825 4808 4412 3631 3225 2909 2739 2717 2333 2279 1480 1210
65 44 0 457 380 216 417 469 883 825 841 801 618 813 1087 1189 1930 1538 264 578 952 2823 3010 3586 3637 3414 3398 3566 3765 3715 4535 4557 4951 4665 3946 3168 2861 2482 2523 2392 2648 1868 1577 1291
204 395 330 523 111 213 892 800 707 675 779 870 1143 1125 1009 854 1228 1365 1277 686 2009 4164 4416 4217 4052 4062 4215 4253 4459 4620 4556 4704 4758 3863 3434 2953 2278 2302 2334 2083 1660 1909 1272 1029
22 23 260 942 1179 856 759 770 1149 1435 1053 702 668 828 1106 1146 1351 1530 1297 2249 2325 3604 4212 4361 4474 3991 4091 4425 4265 4164 4194 4476 3869 3394 2516 2251 2583 1902 1803 1970 1631 1433 1405 1843
158 324 908 803 582 530 697 1119 1149 1189 1310 1536 1516 1206 1288 1433 1691 2162 2513 2826 2777 2934 3252 3783 3856 4089 4332 4276 4228 4115 4068 3337 2786 2562 2882 2908 2419 2123 1851 1792 1691 1435 2028 1699
269 1421 863 694 600 615 604 744 694 829 1050 1059 1173 1241 1535 2102 2295 2519 2616 2831 3295 3511 3829 4095 4517 4167 4229 4437 4300 3549 2942 2574 2253 2136 2235 2227 1838 1471 1323 959 876 1838 2014 1698
770 867 778 487 238 43 30 127 79 381 479 518 611 533 614 1118 1202 1477 1889 2115 2509 3281 3441 3136 3485 3866 4068 4046 3478 2982 2551 2344 2456 1990 2306 2123 1401 1038 1028 979 948 836 639 744
70 125 33 13 0 0 0 0 0 0 45 78 364 254 200 263 503 924 1417 2372 2902 3127 3394 3436 3336 3230 3548 3707 3156 3013 2652 2650 2061 2037 2322 1675 996 869 926 910 531 454 363 117
8 0 0 6 0 0 0 0 0 0 0 0 7 25 10 0 16 595 898 1892 2248 2528 2692 2942 2930 3006 3164 3021 2926 2799 2702 2151 2267 1975 2197 2114 1970 1496 1015 541 412 178 0 0
56 28 69 2 5 3 7 3 2 0 0 0 0 3 2 23 1 89 232 264 968 1810 2399 2671 3033 3255 3045 3018 3141 3340 2369 2170 1848 1968 2234 1713 1569 1187 1118 406 367 59 9 1
93 76 31 5 18 14 13 11 6 0 1 0 0 24 8 0 103 383 452 389 901 1516 2215 2011 2262 2669 2691 2428 2555 2214 2111 1409 1550 894 836 1089 919 755 610 446 133 108 57 0
16 5 0 0 4 28 28 30 17 10 0 0 0 18 38 126 187 59 66 260 738 1051 1353 1987 1794 2288 2520 2226 2053 1619 1057 1076 757 613 740 612 490 327 343 307 359 262 80 28
31 76 54 46 26 22 14 6 0 0 0 0 0 110 157 151 267 359 400 970 896 1045 917 1800 1925 1982 1401 1553 1687 850 544 652 777 490 248 507 455 297 157 81 103 160 114 30
4 11 1 7 29 0 0 3 2 58 69 57 112 180 164 254 182 646 743 883 744 868 1062 1565 872 1092 1203 808 704 265 139 214 430 91 82 67 92 165 164 149 154 125 9 14
0 0 1 25 2 0 19 71 66 111 48 106 142 178 210 152 190 292 395 491 612 899 1167 770 1271 1288 1096 818 278 415 248 91 79 156 62 145 105 204 204 37 105 90 133 158
58 42 40 64 15 47 52 45 91 73 200 172 252 258 282 239 351 350 320 305 265 126 151 100 601 823 769 353 117 296 91 172 102 95 155 64 54 53 93 87 41 86 78 99
109 118 102 121 149 142 130 75 81 115 179 189 211 129 267 184 253 306 293 188 46 15 3 32 30 43 51 67 141 51 161 102 44 55 67 59 60 55 56 40 33 90 60 49
181 188 257 177 151 176 96 159 111 156 282 59 60 131 113 50 95 73 69 34 31 4 14 8 6 14 16 31 14 80 83 40 46 35 8 1 1 0 0 0 0 10 44 26
240 169 32 249 141 290 307 301 48 173 185 71 89 51 81 11 43 84 57 0 0 0 0 7 26 0 1 18 10 24 4 3 0 0 0 0 0 0 0 0 0 0 5 0
40 167 220 248 39 13 36 12 9 38 134 111 94 88 172 108 82 41 46 12 11 7 18 0 1 2 0 0 6 2 33 27 25 26 22 12 1 5 13 4 0 6 8 13
144 25 27 155 23 0 4 11 13 1 2 66 4 1 19 62 2 51 76 40 32 14 34 103 90 25 20 23 14 15 24 31 36 50 28 35 12 4 0 27 9 7 9 2
11 1 12 1 0 0 0 0 0 0 0 0 0 0 16 15 18 6 2 13 14 25 13 20 12 39 19 32 25 57 56 58 37 30 37 25 40 32 38 37 57 49 18 5

GFSNGP_con_mucape_009.txt.gz
CAPE
0 0 0 0 0 0 0 0 0 0 0 0 0 101 66 98 95 54 140 463 713 798 730 1197 1353 1421 1450 1650 1991 2940 3228 3330 3128 3097 3103 3168 3129 3134 2454 2867 2707 2476 2144 1789
0 0 0 0 0 0 0 0 0 0 0 0 0 0 303 173 54 7 424 887 672 995 768 826 1144 1366 1498 1632 1934 2288 2962 3132 3003 3029 3072 3182 3248 3221 3255 2657 2817 2619 2315 2019
0 0 0 0 0 0 0 0 0 0 0 0 0 0 41 82 164 24 20 601 715 854 1507 848 957 1153 1368 1587 1705 2100 2571 2952 2977 2845 3077 3052 3193 3121 3201 3235 3065 2971 2762 2432
0 0 0 0 0 0 0 0 0 0 0 0 0 0 7 0 73 14 3 27 351 700 1085 1924 1121 1110 1296 1446 1743 1941 2109 2709 2839 2991 2889 3184 3157 3172 3257 3273 3288 3217 3116 2750
0 0 0 0 0 0 3 0 36 286 158 2 0 0 0 0 0 0 0 15 0 361 1030 1480 1818 1333 1181 1301 1565 1736 1809 2075 2624 2769 3143 3305 3329 3291 3339 3331 3303 3369 2876 2770
0 0 0 0 52 239 148 206 730 560 487 372 264 82 24 433 984 73 6 0 0 47 39 1577 1927 2005 1683 1378 1322 1390 1500 1895 2407 2598 3052 3551 3455 3431 3375 3245 2592 2402 2883 2734
27 0 0 78 257 208 162 468 489 398 439 545 460 479 466 476 1084 1221 936 526 69 247 626 1659 2020 2156 2021 1755 1522 1637 1402 2782 3153 3625 3789 3677 3524 3440 3012 2753 2597 2464 2576 1741
86 91 53 436 353 413 658 961 1193 1184 1408 654 497 392 518 841 1022 1226 991 882 3042 1358 1945 2357 2445 2479 2347 1895 1867 3109 3429 4164 4248 4276 4036 3763 3480 2977 2898 2609 2430 1990 1873 1634
13 127 366 441 614 483 543 951 1004 1136 1559 1289 1379 1654 1824 1422 1362 1585 2108 3051 3236 3632 3892 3769 3031 3015 3591 3909 3786 3816 4293 4288 4208 4146 4227 4085 2857 2419 2379 1668 1640 1524 1462 1604
127 0 186 146 181 859 670 331 554 1003 1144 1200 1269 1463 1607 1873 2298 2404 2607 3031 3069 3159 3418 3652 3671 3754 3866 3866 3873 4021 4008 4125 4076 3977 3611 3130 2520 1632 1527 1337 1192 1097 1029 771
142 561 680 609 501 518 398 236 514 836 1105 1285 1402 1288 1354 1494 1706 2111 2543 2916 3028 3172 3612 3576 3493 3542 3550 3645 3733 3830 3798 3485 3365 3276 3156 2630 1462 1392 1296 1226 1269 1127 1262 1012
151 308 371 380 162 172 205 201 389 654 885 1072 1059 998 913 937 878 1133 1088 1551 3086 3361 3368 3475 3654 3602 3438 3338 3334 3265 2678 2807 2841 2721 1876 1726 1483 1365 1177 1009 939 976 892 680
85 260 330 25 32 68 76 25 0 46 250 354 314 362 373 328 270 259 298 222 1101 2166 2695 2974 3248 3119 2823 2778 2820 2809 2685 2400 1875 1863 1898 1726 1503 1256 919 885 784 849 707 575
70 35 83 69 13 24 26 14 0 0 0 0 42 32 87 50 74 3 0 18 730 2115 2164 2213 2632 2988 2705 2629 2641 2503 2238 1894 1816 1738 1791 1751 1507 1154 948 780 800 706 369 266
41 36 12 0 43 29 16 0 0 0 0 0 0 0 0 3 0 2 20 182 915 1953 2648 2728 2617 2654 2592 2375 2331 2310 2237 1980 1837 1710 1511 1451 1283 901 772 718 620 231 8 0
0 14 7 0 0 0 0 17 0 0 0 0 0 0 3 0 0 0 50 256 709 664 1112 2215 2716 2598 2646 2539 2535 2230 2122 1934 1861 1841 1556 1403 1148 1059 812 599 316 127 44 2
1 6 30 23 37 41 41 25 7 1 1 0 0 0 0 0 3 55 49 223 471 545 866 946 1072 1233 1337 1336 1156 1264 1149 1116 894 1281 1156 1109 987 889 728 587 180 89 40 0
16 18 18 30 25 35 29 12 15 12 8 1 0 0 4 0 0 0 50 47 110 396 568 525 751 706 711 387 406 663 793 640 418 472 580 449 368 213 62 116 128 102 33 22
25 37 18 42 9 7 9 5 0 3 18 6 0 0 17 28 2 14 2 3 18 11 63 326 696 722 572 371 344 266 405 311 205 142 88 77 61 79 51 87 80 70 43 67
0 0 0 0 24 36 19 40 25 59 64 22 16 14 26 64 113 109 131 100 95 119 110 223 439 535 461 176 114 109 86 61 77 89 62 65 50 52 63 25 25 13 16 24
14 1 34 62 66 53 70 55 66 22 58 112 61 77 102 105 83 69 51 82 73 74 117 137 155 228 205 176 133 76 67 43 43 70 66 67 41 42 44 27 14 48 51 45
70 63 99 75 78 38 21 54 72 86 33 36 96 70 94 105 95 42 18 4 15 61 69 106 143 106 93 148 141 76 55 57 44 37 57 30 17 27 10 4 1 21 69 50
62 116 119 38 129 89 65 62 27 99 116 120 22 14 32 83 83 45 0 0 4 0 41 19 51 46 65 67 55 55 32 37 6 13 10 10 15 12 7 5 3 9 18 8
13 30 19 46 10 7 30 29 29 43 32 38 6 5 6 25 58 51 35 2 0 0 0 2 47 15 51 26 17 0 63 39 8 10 14 6 0 0 1 0 1 2 7 13
4 12 10 9 10 0 0 2 4 8 5 3 14 23 8 16 15 42 46 7 9 3 34 11 1 0 0 2 41 27 12 14 6 10 6 4 2 1 0 0 0 0 0 0
1 0 0 0 0 0 0 0 0 0 0 0 0 1 0 1 4 2 11 8 28 20 58 43 7 13 20 2 2 0 0 17 27 27 9 11 21 19 17 9 0 0 1 0
0 0 0 0 0 0 0 0 0 0 0 0 0 0 0 0 0 11 10 12 20 32 13 0 7 5 29 21 37 30 24 20 26 5 18 20 13 20 21 2 1 3 2 6

GFSNGP_con_mucape_012.txt.gz
CAPE
0 0 0 0 0 0 0 0 0 0 0 0 0 0 0 0 36 154 145 2 18 96 283 596 874 924 1256 1708 1989 2331 2497 2677 2626 2629 2605 2586 2386 2111 1860 2093 1832 1874 1700 1510
0 0 0 0 0 0 0 0 0 0 0 0 0 0 0 0 0 11 62 17 127 169 383 642 939 1013 1137 1580 2257 2372 2620 2705 2735 2806 2764 2751 2778 2630 2265 2188 2489 2408 2188 1752
0 0 0 0 0 0 0 0 0 0 0 0 0 0 0 0 0 1 28 152 312 418 564 668 966 1094 1107 1552 2117 2564 2713 2881 2915 2819 2823 2799 2833 2878 2822 2571 2370 2618 2792 2773
0 0 0 0 0 0 0 0 0 0 0 0 0 0 0 0 0 0 0 23 474 568 597 788 999 1186 1263 1372 1866 2490 2635 2864 3061 2979 2837 2797 2842 2895 2898 2958 2880 2750 2526 2683
0 0 0 0 0 0 0 0 0 0 0 0 0 0 0 0 0 0 0 0 264 682 797 828 940 1163 1349 1415 1651 1948 2383 2629 2854 2918 2756 2820 2818 2929 2931 2968 3029 3106 3052 2797
0 0 0 0 0 7 0 227 307 3 0 0 0 0 0 0 564 0 0 0 0 114 486 1206 780 936 1166 1376 1591 1744 1990 2324 2692 2782 2703 2696 2843 2860 2951 2995 3049 3126 3160 2668
0 0 0 22 33 98 53 108 274 88 17 0 9 33 35 77 667 578 316 42 0 0 14 367 1278 992 901 1060 1314 1609 1864 2063 2284 2690 2729 2715 2873 2948 3003 3064 3151 3170 3027 2690
0 3 153 23 130 80 400 1000 930 985 578 851 1053 1126 1087 598 649 811 480 505 1580 256 0 0 608 1257 1069 917 1044 1370 1595 1817 1895 2441 2655 2836 2996 3045 3076 3052 3097 2856 2607 2320
0 29 31 75 245 993 962 863 845 834 761 877 1073 1288 1531 1903 2146 2309 2299 2006 2389 2266 1012 2197 932 1338 1266 1274 1193 1171 1345 1576 1996 2468 2753 2926 2994 3155 3077 3039 2671 2593 2542 2403
0 4 91 540 690 704 593 754 795 693 633 721 1099 1414 1721 1908 2039 2205 2430 2816 2920 2950 3016 2808 2447 1779 1449 1325 1384 1571 2567 3021 2799 2611 2648 3025 3128 3029 2638 2681 2442 2154 1992 1487
0 0 122 588 562 559 415 662 885 977 938 917 924 1089 1403 1743 1971 2140 2287 2347 2453 2409 2669 2886 2886 3166 3045 2839 3201 3069 2730 2566 2566 2463 2859 3216 3222 2502 2192 1825 1723 1549 1140 950
107 0 28 220 553 499 346 381 485 642 630 740 934 992 1092 1250 1302 1455 1532 1585 1410 1172 1075 924 1309 1913 3572 3427 2980 2582 2440 2607 3093 3391 3357 2890 2207 1172 814 987 902 922 876 703
42 0 11 113 34 28 153 148 301 468 189 280 317 390 466 563 574 468 433 449 409 375 325 259 95 12 2796 3099 2745 2935 3010 3255 2816 2183 1610 872 734 618 1072 1076 910 898 947 574
24 17 30 23 5 32 0 0 45 28 28 6 3 1 14 118 157 216 223 357 341 249 235 399 85 145 1803 2341 2170 2821 2408 1894 1780 1828 1474 825 884 763 790 673 697 730 561 410
63 28 25 41 11 3 43 71 55 14 0 3 7 0 0 0 9 8 128 362 468 627 1025 1106 920 1153 1359 1703 2061 2128 2069 1933 1684 1365 1295 1183 1045 816 599 477 488 483 305 168
28 35 21 38 49 45 29 39 37 4 0 0 0 0 0 0 0 0 118 304 365 594 800 907 1151 1465 1592 1780 1638 1625 1624 1427 1562 1622 1612 1482 1187 851 581 483 368 360 209 84
39 34 21 42 38 18 8 0 0 3 0 0 0 0 0 0 0 0 5 257 219 291 301 475 654 762 937 1530 1818 1818 1573 1655 1562 1499 1588 1279 1012 635 305 270 241 82 142 56
0 9 1 14 8 6 7 5 8 4 11 3 0 0 0 1 1 0 0 39 195 137 145 312 239 244 96 77 277 339 449 404 207 661 771 834 663 476 445 394 162 57 132 78
0 0 0 1 4 6 17 35 37 23 11 8 10 7 8 5 17 3 3 3 0 21 9 13 25 33 109 81 130 70 47 84 124 53 120 395 401 312 358 413 209 94 75 62
26 11 1 0 1 6 4 64 72 49 21 17 23 38 2 24 27 24 14 6 32 39 24 0 0 0 7 42 108 208 142 144 220 164 145 106 40 22 34 177 201 142 114 41
51 82 63 51 60 66 75 74 55 41 28 38 59 39 18 19 5 3 0 2 41 64 92 69 0 0 8 34 68 70 48 34 59 58 38 11 20 30 38 108 132 139 111 55
1 33 54 48 50 47 55 40 20 35 21 8 27 45 29 0 0 0 0 0 7 27 28 35 41 45 61 76 88 82 95 104 92 42 26 17 28 25 22 8 39 43 57 62
26 20 12 27 4 12 34 24 14 0 10 5 1 4 13 2 0 0 0 0 0 3 30 16 28 24 28 20 22 22 29 42 53 47 49 22 23 22 9 11 20 9 51 65
2 20 3 1 21 27 0 7 0 6 0 7 16 11 22 25 35 15 0 1 0 0 0 2 19 10 15 25 23 17 25 22 18 7 15 10 28 11 2 0 1 7 11 29
5 8 11 12 1 0 1 4 0 0 0 0 18 18 7 19 16 9 8 0 0 0 0 0 0 1 11 26 19 17 16 3 0 0 0 0 0 0 0 0 0 0 0 0
2 0 0 0 0 0 0 0 0 0 0 0 0 6 0 0 4 25 8 4 7 6 8 6 0 0 0 0 1 11 31 16 11 6 4 5 10 6 6 3 1 0 0 0
0 0 0 0 0 0 0 0 0 0 0 0 0 0 0 0 0 0 11 21 26 30 26 11 1 0 0 0 0 0 4 6 9 15 16 18 32 14 22 12 4 7 18 1

GFSNGP_con_mucape_015.txt.gz
CAPE
0 0 0 0 0 0 0 0 0 0 0 0 0 0 0 0 0 0 0 1 38 83 85 265 160 284 582 800 1180 1178 1294 1552 1617 1620 1694 1680 1554 1425 1354 1392 1437 1448 1502 1459
0 0 0 0 0 0 0 0 0 0 0 0 0 0 0 0 0 0 0 0 95 186 251 153 130 327 544 1011 1243 1460 1521 1640 1753 1868 1947 1951 1907 1765 1636 1525 1567 1565 1488 1385
0 0 0 0 0 0 0 0 0 0 0 0 0 0 0 0 0 0 0 0 0 89 39 57 186 426 581 1090 1225 1768 1768 1866 1948 1946 2133 2178 2119 2047 1929 1804 1695 1646 1602 1472
0 0 0 0 0 0 0 0 0 0 0 0 0 0 0 0 0 0 0 0 0 34 4 127 361 628 721 1043 1398 1755 1976 2005 2168 2230 2194 2297 2358 2298 2174 2042 1960 1865 1792 1681
0 0 0 0 0 0 0 0 0 0 0 0 0 0 0 0 0 0 0 0 0 0 92 250 509 791 922 1004 1397 1895 2039 2173 2302 2442 2403 2468 2483 2527 2454 2302 2207 2161 1990 2032
0 0 0 0 0 0 0 0 0 0 0 0 0 0 0 0 0 0 0 0 0 0 272 367 628 977 1082 1099 1410 1959 2240 2306 2464 2607 2551 2534 2577 2522 2567 2574 2371 2309 2431 2385
0 0 0 0 0 35 1 0 0 0 0 0 0 0 0 0 40 194 43 210 98 0 322 647 802 1084 1214 1228 1252 1645 2095 2401 2453 2645 2734 2635 2555 2542 2642 2673 2641 2479 2605 2708
0 0 0 21 71 117 173 110 230 88 168 166 260 457 685 1081 1206 1185 1130 1483 1980 2033 1726 1047 478 789 1110 1263 1371 1431 1691 1902 2326 2480 2760 2705 2604 2582 2661 2680 2888 2765 2782 2845
0 0 17 28 154 406 669 606 508 565 784 791 940 966 1014 1301 1456 1717 1960 1949 1842 1888 1658 1708 2353 1174 761 949 1268 1445 1530 1645 1820 2217 2547 2626 2593 2614 2687 2792 3026 3561 2850 2895
61 10 25 108 225 326 601 673 634 630 821 974 1113 1183 1174 1313 1390 1507 1859 2090 2098 1780 1492 1353 1043 2478 2419 1886 1462 1074 1300 1530 1624 1891 2370 2524 2618 2705 2690 2877 2855 2756 2479 2175
96 36 20 83 294 267 405 773 599 634 934 1165 1260 1146 1069 1193 1442 1643 1664 1535 1718 1958 1669 1408 1365 1022 946 2084 2375 1583 1222 1259 1460 1802 2406 2600 2609 2693 2619 2591 2308 2208 1876 1447
18 58 4 17 175 318 326 670 839 889 922 986 1040 1174 1280 1269 1287 1418 1436 1107 1028 1084 1035 1081 1144 1170 1041 933 754 2538 1782 2123 2137 2118 2259 2389 2609 2603 2650 2268 1535 912 792 351
307 75 0 0 59 2 607 404 472 501 378 602 594 573 627 600 574 488 357 257 244 475 182 238 510 267 53 36 491 1208 2482 2177 1933 1864 2056 2225 2531 2341 2529 1349 979 495 532 616
137 61 0 32 14 74 408 264 147 220 116 66 49 29 74 140 251 340 272 301 506 736 632 652 674 412 67 10 32 28 1400 1962 1865 1768 1777 1906 2034 1590 867 472 100 104 544 404
16 130 15 0 12 114 77 180 154 139 55 28 1 1 0 1 54 266 455 581 541 536 514 648 581 573 117 50 149 93 94 282 815 236 546 761 401 2 3 22 144 396 384 317
80 235 46 9 28 48 7 3 4 35 42 19 0 0 0 0 0 31 147 265 315 302 214 170 329 456 360 316 143 13 82 121 133 263 307 57 26 66 247 425 529 566 420 323
48 120 29 7 26 29 2 3 0 0 0 0 0 0 0 0 0 0 7 118 63 44 92 37 0 0 291 702 459 293 459 534 563 468 393 351 404 438 462 469 462 353 338 180
58 37 8 0 4 5 0 0 0 0 0 0 0 0 0 0 0 0 0 0 5 0 0 0 0 19 2 75 215 330 672 761 729 671 602 515 489 409 396 316 257 162 121 80
1 3 106 7 5 2 3 11 9 11 7 4 11 17 4 0 0 0 0 0 0 0 0 0 0 12 79 31 23 13 2 8 156 513 524 346 236 133 50 31 21 17 37 42
0 0 0 0 95 22 28 7 10 2 43 31 38 8 0 0 11 22 0 0 0 0 0 0 0 0 0 46 125 142 102 76 25 2 1 44 103 62 178 212 152 96 86 93
12 25 40 4 1 41 36 22 39 48 59 36 5 0 0 0 0 1 0 0 0 0 2 2 7 0 0 0 33 20 13 27 18 8 12 43 38 38 57 24 45 73 92 76
13 9 5 0 8 6 12 19 13 20 59 42 15 0 0 0 0 0 0 0 3 9 13 7 0 4 5 34 12 8 26 25 14 47 55 11 6 18 6 2 29 32 56 59
24 24 22 22 3 13 5 5 5 15 37 50 21 3 0 0 0 0 0 0 1 1 9 19 13 2 5 18 16 23 43 55 46 23 19 12 18 26 34 15 31 45 42 55
0 0 0 4 30 15 6 6 4 5 6 8 19 26 30 9 0 0 0 0 0 0 0 0 3 25 11 11 28 13 41 39 47 41 34 53 22 10 23 2 2 15 12 17
0 0 0 0 0 0 0 1 8 0 0 3 20 31 6 12 10 7 1 1 0 0 0 0 0 0 0 9 8 22 22 5 8 3 1 0 0 0 0 0 0 0 0 0
0 0 0 0 0 0 0 0 0 0 0 0 0 0 0 0 0 1 0 5 9 4 1 0 0 0 0 0 0 0 10 9 1 3 4 0 4 8 5 3 0 0 0 0
0 0 0 0 0 0 0 0 0 0 0 0 0 0 0 0 0 0 1 10 12 13 11 5 7 9 7 1 0 0 6 21 31 27 17 11 7 10 0 0 4 0 1 9

GFSNGP_con_mucape_021.txt.gz
CAPE
0 0 0 0 0 0 0 0 0 0 0 0 0 0 0 0 0 0 0 0 0 2 662 913 893 1035 1075 1084 1404 1502 1774 1741 2058 2327 2394 2447 2453 2452 2448 2486 2382 2461 2607 2616
0 0 0 0 0 0 0 0 0 0 0 0 0 0 0 0 0 0 0 0 0 0 171 446 849 1122 1090 1158 1334 1590 1878 1873 1954 2312 2512 2518 2554 2567 2541 2497 2482 2514 2507 2586
0 0 0 0 0 0 0 0 0 0 0 0 0 0 0 0 0 0 0 0 0 0 81 554 632 1108 1133 1260 1411 1656 1570 2019 2198 2280 2447 2512 2537 2602 2553 2534 2494 2547 2510 2576
0 0 0 0 0 0 0 0 0 0 0 0 0 0 0 0 0 0 0 0 0 0 0 774 337 360 1010 1139 1584 1754 1956 2189 2325 2387 2423 2497 2462 2555 2678 2644 2576 2655 2554 2582
0 0 0 0 0 0 0 0 0 0 0 0 0 0 0 0 0 0 0 0 0 0 0 333 598 1083 1398 1434 1685 1867 1983 2202 2366 2442 2456 2578 2615 2592 2623 2708 2768 2692 2698 2684
0 0 0 0 0 0 0 0 0 0 2 0 0 0 0 0 0 0 0 0 0 0 0 29 182 279 1276 1292 1672 2060 2170 2248 2364 2652 2708 2754 2807 2891 2820 2738 2723 2593 2771 2774
0 0 0 0 0 65 10 0 0 0 0 68 88 0 0 0 10 215 316 0 0 10 394 510 658 486 1517 1643 1986 1864 2024 2314 2825 2867 2910 2984 3082 3100 3120 3081 2828 2875 2856 2813
0 0 0 0 0 0 91 62 38 25 0 0 56 256 0 375 1036 1589 1496 604 396 1133 1439 1310 987 1458 1582 1877 1882 2134 2345 2680 3179 3198 2880 2904 3362 3412 3380 3176 3034 3002 2909 2771
0 0 0 0 0 11 117 87 65 26 57 47 82 356 311 1005 1076 933 595 690 1563 1479 1017 1093 1472 1890 2047 2042 1885 2159 2500 3096 3273 3306 3489 3488 3539 3519 3481 3333 2906 2803 2507 2337
0 0 0 0 0 20 82 60 42 32 114 245 232 218 566 513 772 697 499 346 236 219 256 441 523 656 947 1167 2235 2314 2467 2908 3196 3294 3646 3767 3352 3420 3449 3247 2871 2981 2703 2523
41 4 0 0 0 25 95 29 68 71 244 529 393 145 480 703 730 697 639 552 431 322 399 284 335 285 126 137 218 511 1564 2353 2344 2698 3067 3581 3806 3718 3601 3603 3224 3115 3131 2783
0 24 30 0 25 100 93 133 76 46 332 766 715 779 909 853 609 317 366 380 605 818 792 482 89 91 114 179 153 212 344 426 803 1440 2041 2576 3253 3524 2917 2967 2882 2692 2663 2445
46 13 6 10 7 14 97 208 123 143 487 702 750 690 512 500 482 339 348 630 623 693 473 615 859 822 705 602 685 513 448 334 552 1378 1484 1393 2650 2948 2356 2316 2716 2666 2544 2383
32 13 0 3 4 123 216 197 177 123 315 279 220 212 286 224 126 125 146 162 219 250 474 804 645 368 685 778 413 540 206 122 586 276 650 931 1033 1261 1540 1391 1309 2410 2487 2389
4 1 0 10 48 91 61 168 132 128 115 79 77 237 333 235 101 50 69 98 49 42 37 106 261 206 480 791 434 213 197 328 174 27 16 6 11 227 466 593 876 902 1696 2251
4 29 37 29 80 40 80 145 75 78 100 51 23 2 70 170 189 162 110 68 52 37 54 131 107 118 270 702 616 224 259 10 30 169 17 0 0 0 0 9 132 165 312 1031
0 4 27 24 105 11 74 3 24 100 110 73 59 22 0 0 2 15 19 34 0 7 0 8 66 162 185 328 504 468 358 196 9 40 38 25 0 0 0 0 0 0 16 3
20 47 13 56 26 0 20 16 20 9 14 20 3 0 1 4 2 0 0 0 0 0 0 0 7 147 158 76 250 231 304 73 53 38 12 0 0 0 0 10 2 3 21 71
43 16 0 34 52 4 66 45 11 37 0 0 0 0 0 0 0 0 0 0 0 0 0 0 0 5 11 15 37 49 180 98 66 88 31 21 10 3 0 24 3 6 2 39
0 6 0 7 35 8 50 52 54 56 44 0 0 0 0 0 21 21 0 0 0 0 0 0 0 0 0 0 0 0 5 15 15 35 36 12 29 1 10 49 72 101 166 154
0 0 3 0 0 0 37 66 71 36 2 24 0 0 0 8 12 6 1 0 0 0 1 7 2 0 12 26 19 6 1 0 0 0 4 35 33 14 10 23 72 85 84 126
0 2 17 9 1 1 2 24 10 16 5 5 0 1 0 0 0 0 0 0 0 0 2 0 0 0 0 0 12 20 19 9 11 10 5 10 5 9 11 1 4 15 13 4
0 0 0 13 17 11 11 6 18 26 35 33 5 0 0 0 0 0 0 0 0 0 0 0 0 0 7 5 0 1 4 8 10 2 2 2 2 5 2 0 16 12 3 9
0 0 0 0 0 0 0 0 21 9 0 4 4 1 1 0 0 0 0 0 0 0 0 0 0 0 0 11 18 6 10 2 14 1 0 0 1 0 0 0 0 0 10 30
0 0 0 0 0 0 0 0 0 0 0 0 0 0 0 0 0 0 0 0 0 0 0 0 0 0 0 0 0 0 15 6 1 1 0 0 0 0 0 0 0 0 0 0
0 0 0 0 0 0 0 0 0 0 0 0 0 0 0 0 0 0 0 0 0 0 0 0 0 0 0 0 0 0 0 0 0 0 0 3 5 3 0 0 0 0 0 0
0 0 0 0 0 0 0 0 0 0 0 0 0 0 0 0 0 0 0 0 0 0 0 0 0 0 0 0 0 0 0 0 0 0 0 0 2 1 2 1 1 2 0 0

GFSNGP_con_mucape_024.txt.gz
CAPE
0 0 0 0 0 0 0 0 0 0 0 0 0 0 0 0 0 0 0 0 0 47 400 966 1112 1816 2448 1913 1976 1845 2559 2154 3165 3581 3817 3829 3836 3937 3869 4042 3965 4086 4048 4112
0 0 0 0 0 0 0 0 0 0 0 0 0 0 0 0 0 0 0 0 0 0 57 349 914 1355 1446 2260 1893 2122 2885 2826 3153 3729 3999 3985 4071 4112 4102 4058 4102 4166 3980 4092
0 0 0 0 0 0 0 0 0 0 0 0 0 0 0 0 0 0 0 0 0 0 0 58 136 857 1315 1720 1815 2554 2907 3275 3509 3859 3969 4129 4059 4184 4147 4154 4156 4213 4167 4155
0 0 0 0 0 0 0 0 0 0 0 0 0 0 0 0 0 0 0 0 0 0 0 0 3 2 927 1388 2597 2791 3275 3401 3628 3560 3827 3815 4179 4179 4206 4134 4016 4130 4131 4180
0 0 0 0 0 0 0 0 0 0 0 0 0 0 0 0 0 0 0 0 0 0 0 77 0 46 386 1449 1830 2207 3311 3425 3568 3482 3524 3769 4153 4213 4189 4073 4095 4082 4089 4269
0 0 0 0 0 0 0 0 0 0 0 0 35 0 0 0 0 0 0 0 0 0 0 0 15 70 627 1188 1661 2424 3127 2921 3575 3826 3919 3879 4046 4280 4297 4238 3987 3341 3824 4109
0 0 0 0 0 41 0 94 28 5 1 87 299 180 511 544 217 6 1 16 15 0 0 41 390 420 619 1310 1792 2263 2410 2453 3307 3898 4107 4100 4291 4390 4181 4078 3638 4119 4088 4134
0 0 0 0 0 0 53 63 22 22 4 36 271 562 627 703 886 262 83 325 797 6 78 774 1443 1508 1402 2811 2191 2583 2836 2733 3625 4005 3385 3028 4475 4524 4221 4140 4221 4208 4173 3995
0 0 0 0 0 0 0 0 0 0 0 0 1 320 794 1200 822 651 855 1283 1488 799 1623 1966 2277 2369 2469 2454 2427 2547 2759 3175 3162 3370 3398 3921 4378 4243 3663 4337 3465 3640 3401 3406
0 0 0 0 0 0 0 0 0 0 0 0 0 188 923 1193 1082 1152 808 891 1103 1580 1601 2071 2834 3096 3317 3097 2920 3072 3267 3406 3425 3596 3582 3511 3290 3419 3453 3379 3552 3362 3347 3567
0 36 19 12 0 0 0 9 1 0 2 1 4 28 993 1077 833 550 353 506 998 1128 1196 1295 1265 1139 1061 1198 1538 2956 3161 3181 3408 3402 3520 3571 3936 3400 3350 3883 3198 3595 3515 3326
0 22 31 34 22 9 21 3 2 2 0 60 29 213 277 111 351 514 729 1018 1183 1146 1125 865 902 1185 1481 1474 1569 1359 1152 1041 1178 1624 1939 2663 2889 3468 2831 2695 2873 3042 3049 3020
46 83 82 74 51 0 0 0 0 4 83 100 178 349 443 398 512 582 508 551 602 724 1105 1380 698 628 778 1399 1268 1312 1249 1203 1244 1203 1688 1568 1747 2031 2344 2426 2921 2883 2887 2910
22 22 29 22 18 11 36 19 16 85 129 33 117 613 632 683 709 642 675 659 835 985 1064 1089 593 722 767 887 1050 1109 945 462 665 677 883 1166 1231 1136 1129 1349 1519 1924 1608 1522
0 0 0 28 27 4 12 163 137 105 51 104 247 491 608 605 481 296 238 142 181 283 356 423 652 786 831 1143 1077 890 726 711 406 70 0 0 129 99 5 51 38 124 190 591
0 0 0 49 43 25 33 50 1 52 103 92 162 350 343 366 196 51 6 5 1 8 54 257 508 405 731 604 816 691 551 5 45 477 340 347 315 251 0 1 12 18 0 0
4 41 43 76 120 70 28 0 0 80 73 96 246 206 176 105 23 9 3 0 4 12 30 12 323 349 280 668 476 385 462 149 31 27 13 34 159 10 6 8 1 19 24 0
24 52 76 132 61 23 0 84 67 0 0 53 30 5 16 16 26 10 2 1 2 4 12 16 45 201 82 334 373 484 290 98 69 45 25 14 8 12 17 22 35 18 5 0
26 41 55 82 21 12 0 0 3 3 4 1 2 11 1 2 1 0 0 2 0 0 0 0 0 0 1 0 68 153 233 405 154 177 138 5 0 0 0 0 0 0 1 0
0 0 0 0 6 8 0 24 30 0 0 0 0 0 1 1 0 0 0 0 0 0 0 0 0 0 3 0 0 0 6 42 12 15 5 68 78 29 20 0 1 26 5 2
0 1 0 0 0 0 0 0 0 0 0 0 2 4 4 4 7 0 0 0 0 0 0 0 0 0 0 1 0 0 0 0 5 12 0 18 32 11 8 0 0 8 88 34
0 0 0 0 0 1 2 0 1 0 0 0 0 0 3 0 0 0 0 0 0 0 0 0 0 0 0 9 7 2 0 3 7 8 9 13 14 17 7 0 0 2 14 5
0 0 0 0 0 0 1 1 10 7 5 1 1 5 4 0 0 0 0 0 0 0 0 0 0 0 0 0 0 1 8 16 9 6 2 0 5 5 6 5 0 3 5 2
0 0 0 0 0 0 0 0 0 0 0 0 6 10 0 0 0 0 0 0 0 0 0 0 0 0 0 0 0 2 0 7 0 0 0 0 0 0 0 0 0 0 0 7
0 0 0 0 0 0 0 0 0 0 0 0 0 0 0 0 0 0 0 0 0 0 0 0 0 0 0 0 0 0 0 0 4 1 0 0 0 0 0 0 0 0 0 0
0 0 0 0 0 0 0 0 0 0 0 0 0 0 0 0 0 0 0 0 0 0 0 0 0 0 0 0 0 0 0 0 0 0 0 0 0 0 3 0 0 0 0 0
0 0 0 0 0 0 0 0 0 0 0 0 0 0 0 0 0 0 0 0 0 0 0 0 0 0 0 0 0 0 0 0 0 0 0 0 0 0 0 0 0 1 1 0

GFSNGP_con_mucape_027.txt.gz
CAPE
0 4 0 0 0 0 0 0 0 0 0 0 0 0 0 0 0 0 0 0 0 18 180 611 1795 2852 3022 2312 2731 2641 3274 3276 3466 4075 4280 4353 4339 4309 4348 4407 4411 4463 4443 4410
0 0 0 0 0 0 0 0 0 0 0 0 0 0 0 0 0 0 0 0 0 0 0 476 848 2085 2558 3291 2740 2674 3536 3382 3734 4110 4402 4489 4520 4526 4632 4496 4550 4546 4510 4401
5 0 0 0 0 0 0 0 0 0 0 0 0 0 0 0 0 0 0 0 0 0 0 47 443 810 1344 2903 3011 3016 3278 3948 3724 4198 4337 4558 4674 4698 4612 4628 4631 4608 4520 4512
0 5 0 0 0 0 0 0 0 0 0 0 0 0 0 0 0 0 0 0 0 0 0 0 0 0 1042 1052 3411 3665 3845 3718 4127 4063 4403 4575 4672 4674 4719 4655 4594 4621 4616 4654
0 0 0 0 0 0 0 0 0 0 0 0 0 0 0 0 0 0 0 0 0 0 0 49 0 0 0 962 2517 3614 3745 4143 3918 4196 4402 4563 4605 4630 4678 4648 4635 4556 4629 4671
0 0 0 12 0 0 0 0 0 0 0 0 0 0 18 425 384 112 23 11 10 0 0 0 8 0 0 120 1393 3443 3843 4067 4257 4447 4460 4573 4618 4731 4720 4705 4654 4486 4562 4620
0 0 0 19 29 12 0 312 180 11 7 11 25 298 674 694 791 703 710 583 258 347 348 84 67 46 978 1129 1539 2618 3011 3685 4483 4609 4724 4678 4693 4812 4855 4804 4512 4685 4583 4602
0 0 0 0 0 55 26 84 36 25 21 10 49 144 228 405 863 1156 1034 661 102 352 828 417 230 789 2248 2740 2981 3726 3900 4010 4497 4657 4190 4002 4873 4854 4902 4877 4810 4717 4726 4502
0 0 9 0 1 1 0 55 31 1 3 0 0 0 1 259 1114 1453 1149 1263 1216 1330 1113 1229 2193 2362 2572 4149 3558 4047 4421 4652 4712 4733 4641 4632 4854 4919 4471 4743 4000 4138 3963 4136
0 0 0 0 0 0 0 0 0 0 0 0 0 0 6 369 1503 1467 1383 1379 1330 1707 1942 2432 3376 3110 3281 3674 3198 3057 3641 4194 4268 4311 4509 4511 3660 3951 3761 3608 3680 3727 3495 3869
6 0 1 2 2 0 0 0 0 0 1 0 0 0 85 482 1747 1521 1278 1076 1662 1865 2230 2264 2304 2221 2200 2349 3354 3575 3778 3775 3926 3697 3899 4317 4346 3437 3536 4096 3331 3602 3607 3375
2 41 30 5 1 0 0 0 0 0 0 0 0 0 113 403 1089 1566 1481 1696 1943 2052 1762 1633 1876 1951 2027 2053 2097 2215 3133 3449 3235 3273 3604 3648 3602 3990 3063 2919 3016 2911 2834 2873
84 46 41 53 39 26 0 8 0 0 0 0 0 23 200 335 672 562 729 869 1177 1601 1545 1077 936 1071 1643 1810 1894 1941 2055 1996 1506 892 1348 1514 1930 2167 2288 2334 2473 2496 2481 2331
19 29 99 70 62 81 36 26 5 0 0 0 0 31 67 161 536 827 1221 1649 1735 1233 1352 1025 772 1254 1391 1513 1827 1811 1179 637 1168 1148 1316 1581 1691 1427 1079 800 733 618 224 349
42 29 18 42 26 24 4 59 69 59 37 50 55 34 82 324 634 979 1217 1103 864 683 687 875 787 995 1149 1118 1385 947 973 1024 913 542 229 281 621 693 410 212 172 8 1 0
0 6 7 11 38 22 12 43 25 14 83 13 59 8 160 345 302 243 232 369 442 498 516 451 553 800 701 869 942 773 433 116 300 683 597 705 590 522 170 69 37 43 1 0
0 0 0 0 5 16 16 32 15 109 6 40 0 40 156 94 114 193 167 341 499 356 195 430 500 641 761 634 513 448 374 315 117 366 308 288 361 361 270 236 134 2 1 0
9 14 27 52 85 105 110 128 109 29 12 28 10 47 34 43 53 35 146 4 49 33 11 21 85 57 117 309 352 543 347 201 94 55 40 70 25 14 8 5 7 4 1 9
14 8 34 71 232 182 70 57 34 5 6 33 1 28 10 15 4 15 16 0 1 0 25 20 0 0 0 0 10 33 142 58 34 82 92 42 78 9 0 0 0 0 2 9
0 0 3 11 31 22 3 15 43 0 0 0 0 0 0 0 0 0 3 6 2 6 1 0 15 12 0 0 0 5 17 7 2 0 4 0 0 0 0 0 0 0 3 5
0 0 1 0 0 0 0 0 0 0 0 0 0 0 0 0 0 1 0 0 0 4 0 0 0 0 0 4 0 0 0 0 6 2 0 1 0 0 9 5 4 19 8 0
0 0 0 0 0 0 0 0 0 0 0 0 0 0 0 0 0 0 0 0 0 0 3 0 0 0 0 0 2 5 0 0 0 0 0 0 1 1 0 1 2 1 0 0
0 0 0 0 0 0 0 0 0 0 0 0 0 0 0 0 0 0 0 4 7 2 0 0 0 0 0 0 0 0 0 0 0 0 0 0 3 0 2 5 6 2 0 0
8 32 0 8 6 0 0 0 0 0 0 0 1 1 1 3 0 0 0 0 0 0 0 0 0 0 0 0 0 0 0 0 0 0 0 0 0 0 0 0 0 0 0 0
0 0 4 6 4 1 3 0 0 0 0 0 0 0 0 0 0 0 0 0 0 0 0 0 0 0 0 0 0 0 0 0 0 0 0 0 0 0 0 0 0 0 0 0
0 0 0 0 0 0 0 0 0 0 0 0 0 0 0 0 0 0 0 0 0 0 0 0 0 0 0 0 0 0 0 0 0 0 0 0 0 0 0 0 0 2 0 1
0 0 2 3 0 0 0 0 0 0 0 0 0 0 0 0 0 0 0 0 0 0 0 0 0 0 0 0 0 0 0 0 0 0 0 0 1 5 3 6 0 0 0 0

GFSNGP_con_mucape_030.txt.gz
CAPE
0 0 7 0 0 0 0 0 0 0 0 0 0 2 0 6 215 309 592 842 1207 1264 1670 1931 2291 2535 2677 2484 2444 2505 2620 3393 3519 3624 3915 3700 3645 3678 3786 3394 3481 3416 3551 3610
6 1 1 4 0 0 0 0 0 0 2 0 0 26 5 33 22 38 71 117 238 494 661 1453 2926 3005 2762 2776 2913 2815 2856 2923 3217 3521 3713 4075 3933 3857 3941 3884 3771 3860 3789 3656
0 1 0 2 2 0 0 0 0 0 11 8 4 22 2 0 0 0 0 0 3 99 588 1014 1441 3500 3232 3052 3090 3470 3296 3377 3355 3583 3736 3932 4094 4111 3970 4049 4023 4004 3992 3968
0 33 6 0 3 1 0 0 0 0 43 200 103 51 0 0 0 0 0 0 68 0 13 496 162 478 1999 3242 3699 3480 4006 3837 4189 4077 3856 4021 4085 4181 4212 4180 4216 4117 4176 4186
0 30 0 9 0 0 0 1 5 4 12 1 0 0 0 0 0 0 0 14 35 0 0 882 435 687 1139 1448 3423 3518 3292 3752 3689 4328 4192 4157 4236 4245 4299 4357 4288 4317 4257 4301
0 45 4 0 0 0 0 1 402 40 0 0 0 0 641 897 763 757 749 991 1329 971 858 455 1589 492 1504 1564 2778 3301 3327 3498 3976 3759 4187 4207 4309 4399 4413 4467 4442 4404 4393 4341
0 0 0 0 0 0 10 121 85 97 113 89 268 839 632 223 446 841 1165 1278 1301 1348 1315 2392 2410 1692 2935 2489 2116 3228 3455 3777 4181 4460 4157 4249 4444 4552 4550 4572 4530 4490 4442 4442
0 0 0 0 0 26 62 83 8 0 0 0 0 0 55 64 291 902 1462 1347 982 1414 1474 2031 1850 2288 2773 3552 4227 4239 4593 4149 4479 4705 4231 4280 4578 4752 4632 4558 4545 4496 4534 4467
0 1 62 0 0 0 0 87 55 0 0 0 0 0 0 277 594 1697 2084 1896 1679 2169 2780 3437 3167 4420 4355 4951 4848 4729 5226 4998 4712 4951 4628 4407 4710 4640 4584 4624 4557 4543 4493 4434
0 0 0 0 0 0 0 0 66 12 0 0 0 0 0 216 475 1434 2315 2031 1510 2116 2816 4430 4845 4804 4775 4964 4386 4626 5171 5377 5159 5109 4847 4702 4555 4590 4536 4459 4452 4428 4257 4309
0 0 0 0 0 0 0 0 27 44 16 0 0 0 0 7 385 930 1769 2463 3102 3361 2996 2888 2878 3368 3540 3488 4160 4356 4562 4849 5083 4746 4748 4802 4663 3992 4532 4386 4025 4159 4086 3915
1 20 49 18 0 0 0 0 0 12 4 0 0 0 0 99 552 733 1106 1526 2364 2724 2215 2400 2309 2241 2574 2555 3146 4330 4902 4560 4356 4096 4431 4137 4403 4407 3799 3230 3189 3101 3074 3149
1 0 0 0 0 0 0 0 0 0 0 0 0 0 0 11 369 408 693 1158 1434 2050 1650 1488 1406 1637 1846 2142 2597 3213 3229 3725 2930 3062 3069 4577 4418 4767 4480 3169 2830 2907 2876 2814
0 2 1 0 0 0 0 0 0 0 0 0 0 0 0 12 73 672 1225 1265 1449 1465 1405 1524 1182 1792 1782 2296 2697 2327 1947 1364 2013 2191 2102 1883 2180 2236 2224 2389 2294 2118 2044 1942
0 0 0 1 2 27 13 0 0 0 0 0 0 1 1 7 69 450 1216 1099 1413 1139 1092 1351 1312 1477 1503 1800 1702 1461 2033 1453 1256 862 718 891 1519 1466 876 874 839 546 246 0
0 0 0 0 3 7 3 1 1 0 0 0 0 0 23 2 38 408 723 859 878 663 555 918 1072 936 1729 1556 1377 581 472 760 1006 1294 978 1278 1084 881 754 702 414 287 28 0
0 0 0 21 24 26 24 16 3 0 6 6 24 87 46 58 81 136 547 420 358 280 460 304 562 622 1208 1114 842 594 345 401 226 407 308 278 329 304 266 223 99 44 4 0
0 0 0 0 0 3 13 18 31 86 104 109 107 49 75 94 72 103 109 105 203 285 229 443 470 452 333 337 489 414 331 177 105 83 61 14 3 4 1 0 0 0 0 0
13 22 6 22 19 26 28 33 42 82 94 47 25 30 98 53 26 42 68 9 19 30 7 4 51 110 52 53 60 9 12 5 27 14 5 3 0 0 0 0 0 0 0 0
0 0 26 24 8 52 66 105 90 86 67 49 32 20 11 16 19 4 76 18 7 6 0 0 1 2 6 5 0 9 5 4 5 4 4 2 0 0 0 0 0 0 0 0
0 0 0 0 0 0 14 63 36 16 7 0 0 0 0 0 1 10 1 5 2 2 8 0 0 0 0 3 0 0 0 0 0 0 0 0 0 0 0 6 2 0 4 0
0 0 0 0 0 0 0 0 0 0 0 0 0 0 0 0 0 0 0 0 16 18 7 2 3 1 0 0 0 0 0 0 0 0 0 0 0 0 0 0 0 0 0 0
67 37 0 0 0 0 0 0 0 0 0 0 0 0 0 0 0 0 0 0 0 0 0 0 0 0 2 2 9 2 0 0 2 0 0 0 0 0 0 0 0 0 0 0
51 12 77 42 9 7 0 0 0 0 0 0 0 0 0 0 0 0 0 0 0 0 0 0 0 0 0 0 0 0 0 0 0 0 0 0 0 0 0 0 0 0 0 0
11 38 13 8 34 37 49 63 22 0 0 0 0 0 0 0 0 0 0 0 0 0 0 0 0 0 0 0 0 0 0 0 0 0 1 1 0 0 0 0 0 0 0 0
3 1 19 36 1 0 0 0 0 0 0 0 0 0 0 0 0 0 0 0 0 0 0 0 0 0 0 0 0 0 0 0 0 0 0 0 5 3 1 0 0 0 0 0
5 0 16 10 5 0 0 0 0 0 0 0 0 0 0 0 0 0 0 0 0 0 0 0 0 0 0 0 0 0 0 0 0 0 0 0 0 0 0 9 3 0 0 0

GFSNGP_con_mucape_036.txt.gz
CAPE
0 0 0 0 0 0 0 0 0 0 0 0 0 0 0 0 0 0 491 793 800 899 808 801 865 895 959 1103 1524 1900 1924 1939 1847 1674 1861 1969 1841 1527 1200 1419 1933 1918 1191 1663
0 0 0 0 0 0 0 0 0 0 0 0 0 3 5 0 0 0 486 946 1092 1055 1002 1047 1037 991 972 1062 1355 1878 2032 2076 2106 2139 1957 2060 2188 2187 1925 1557 1346 1735 2000 1923
0 0 0 0 0 0 0 0 0 0 0 0 8 84 32 40 118 158 567 1055 1307 1298 1203 1260 1207 1141 1062 1022 1159 1797 2058 2125 2288 2303 2449 2342 2306 2362 2399 2294 2049 1747 1464 1951
0 5 0 0 3 0 0 0 0 0 41 202 533 637 603 448 10 162 368 834 1189 1382 1391 1427 1341 1273 1167 1128 1166 1275 1722 2211 2332 2560 2553 2635 2617 2521 2526 2525 2659 2579 2250 1964
0 11 0 2 5 0 0 0 0 11 355 509 432 413 813 850 717 279 187 518 962 1311 1430 1620 1672 1622 1473 1368 1375 1325 1402 1570 2373 2554 2836 2811 2764 2786 2732 2761 2663 2660 2732 2574
21 15 0 4 20 16 0 0 120 289 513 261 63 355 867 1128 1251 1151 433 211 413 722 1054 1231 1442 1866 1868 1892 1764 1656 1625 1705 1747 2438 2692 2847 2887 2879 2946 2869 2863 2799 2745 2839
24 22 7 14 37 6 48 3 191 383 280 95 127 266 945 1082 1196 1340 1487 1225 1578 2004 1322 770 1076 1116 1997 2076 2109 2019 1903 1800 1865 1955 2262 2676 2823 2951 2967 3096 2975 3003 3032 2974
0 31 50 0 15 14 8 77 73 175 174 14 32 402 953 971 971 1130 1365 2138 3066 2771 2736 2686 1589 1314 2289 2366 2413 2321 2368 2454 2448 2546 2301 2498 2694 2831 2985 2988 3178 3224 3231 3352
0 21 4 0 7 0 8 11 89 119 52 0 24 241 1038 1161 1133 1175 1201 1854 2700 2744 3024 2981 2616 2473 2560 2768 3001 2720 2384 2472 2537 2847 3139 3119 3034 2985 3002 3181 3184 3315 3437 3503
0 1 10 0 0 0 0 82 23 29 22 0 41 58 679 1122 1238 1231 1190 1042 1742 1994 2191 2414 2645 2894 2700 2907 3042 3103 2931 2945 2907 2565 2831 3009 3245 3404 3432 3510 3617 3650 3732 3829
0 0 0 0 1 0 0 1 9 0 0 0 1 102 89 878 1007 987 681 617 683 1629 1545 1782 1738 1795 2057 2183 2574 3160 3040 3755 4158 3558 3296 3275 3470 3681 3864 3881 3887 3937 4008 4002
2 0 0 0 0 0 0 8 32 0 0 0 0 7 61 100 256 539 146 4 300 677 1159 1456 1482 1327 1099 1316 1623 1799 2752 3328 4037 4048 3843 3697 3768 3637 4086 4134 4181 4154 4038 3842
0 0 0 0 0 0 0 0 4 0 0 0 3 0 0 18 49 82 78 0 45 393 837 1228 825 905 1277 1360 1571 1350 2273 2932 3503 3918 4079 3950 3767 3516 3479 3873 3334 3459 3890 3751
0 0 0 0 0 0 0 0 0 0 0 0 0 10 1 0 2 2 2 0 110 344 589 869 805 852 1254 1345 1580 1083 2023 1886 2442 3343 3244 3817 3975 3705 3554 3437 2863 2655 2852 3358
0 0 0 0 0 0 0 0 0 0 0 0 0 0 15 6 0 0 0 0 215 990 1118 1022 798 738 864 833 890 1217 1427 1889 1806 2555 3101 2902 3686 3846 3396 3154 2862 2718 2209 1851
0 0 0 0 0 0 0 0 0 0 0 0 0 0 0 0 7 0 0 0 300 499 1019 825 689 697 828 494 524 1252 1456 1152 1545 1824 2481 2591 2743 3127 3053 3266 3075 3032 2511 2109
0 0 0 0 0 0 0 0 0 0 0 0 0 0 0 0 0 0 0 0 48 457 585 585 585 673 980 981 406 964 1141 906 1237 1350 1261 1562 1808 2190 2256 2629 2307 2147 2019 1906
0 0 1 4 0 0 0 10 0 0 0 2 0 0 0 0 0 0 0 0 34 29 57 285 473 689 802 828 540 399 615 1007 852 717 712 655 629 614 714 954 991 731 334 52
0 0 3 0 4 4 2 0 0 0 3 3 0 0 0 1 0 0 0 0 26 11 5 32 383 582 567 565 426 281 343 557 791 877 762 639 531 458 373 315 242 127 4 0
0 0 0 0 0 0 0 0 0 2 2 2 2 0 0 1 5 6 1 4 9 11 11 51 127 340 447 111 161 135 87 58 259 409 331 24 6 13 11 0 0 0 0 0
0 0 0 0 0 0 1 0 3 6 2 0 0 7 8 13 7 7 3 21 15 11 0 1 51 39 18 64 82 43 5 15 5 0 0 0 0 0 0 0 0 0 0 0
0 0 0 0 0 0 0 0 0 0 1 5 1 8 6 3 9 15 22 29 26 18 19 22 37 16 16 10 34 20 28 34 42 0 0 3 0 0 0 0 0 0 0 0
13 0 0 0 0 0 0 0 0 0 0 0 0 0 5 5 6 10 24 9 15 10 24 34 9 21 9 0 0 0 2 4 3 1 0 0 0 0 0 0 0 0 0 0
56 37 19 8 10 0 0 0 0 0 0 0 0 0 0 0 0 0 0 19 9 15 38 4 5 4 0 0 0 0 1 0 0 3 0 0 0 0 0 0 0 0 0 0
8 38 42 42 22 2 0 0 0 0 0 0 0 0 0 0 0 0 0 0 0 0 0 0 0 0 0 0 0 14 33 24 18 2 1 0 0 0 0 0 0 0 0 0
1 0 0 0 0 0 0 0 0 0 0 0 0 0 0 0 0 0 0 0 0 0 0 0 0 0 0 0 4 6 2 1 0 0 0 0 0 0 0 0 0 0 0 0
0 0 0 0 0 0 0 0 0 0 0 0 0 0 0 0 0 0 0 0 0 0 0 0 0 0 0 0 1 7 2 5 1 0 0 0 0 0 0 0 0 0 0 0

GFSNGP_con_mucape_039.txt.gz
CAPE
0 0 0 0 0 0 0 0 0 0 0 0 0 0 0 0 0 0 0 182 321 353 355 352 435 480 636 1002 1247 1083 1059 1263 1337 1381 1338 1239 1103 1046 1202 1457 1334 1364 1390 1254
0 0 0 0 0 0 0 0 0 0 0 0 0 10 25 0 0 0 0 81 180 330 350 382 466 553 518 1002 1510 1469 1365 1349 1372 1365 1457 1477 1421 1326 1234 1201 1510 1374 1275 1290
0 0 5 5 0 1 0 0 0 0 0 0 56 163 197 169 0 0 0 69 159 287 446 511 548 634 607 885 1310 1669 1601 1566 1539 1468 1418 1538 1615 1585 1514 1362 1256 1401 1487 1267
0 0 18 1 0 0 0 0 0 0 14 117 418 527 419 495 407 0 0 59 316 495 619 647 626 730 737 936 1075 1631 1771 1801 1807 1812 1700 1604 1727 1886 1896 1779 1606 1497 1373 1368
5 32 0 1 2 0 0 0 0 168 325 592 703 512 670 452 681 96 191 518 617 686 769 784 836 950 882 977 1152 1363 1747 1920 1988 2016 2036 2079 2020 1975 2107 2160 2172 2074 1963 1830
40 48 12 5 9 0 2 0 38 408 456 352 375 417 602 829 1005 1227 1284 942 1079 1127 1089 1093 1136 1083 1066 1098 1140 1206 1573 1900 2049 2173 2246 2268 2395 2411 2308 2362 2371 2415 2503 2518
83 45 10 21 27 54 74 0 54 279 329 361 331 413 827 1129 1703 1902 1914 1971 1614 1446 1421 1458 1507 1464 1401 1354 1338 1361 1282 1343 1745 2198 2315 2484 2498 2519 2593 2625 2644 2682 2675 2644
101 30 23 29 17 32 2 14 37 126 286 346 563 962 959 1320 1820 2007 2023 1928 1780 1771 1728 1768 1680 1805 1862 1916 2204 1847 1815 1861 1841 1764 2266 2393 2657 2715 2731 2783 2820 2821 2811 2805
78 58 16 29 49 45 42 16 10 103 343 371 588 732 782 996 1715 2094 2300 2430 2358 2249 2235 2232 2240 2344 2416 2676 2895 2125 2161 2197 2153 2157 2113 2080 2509 2608 2807 2860 2877 2981 2989 2984
18 61 20 5 42 41 80 32 5 52 133 273 480 864 597 663 787 1449 1953 2182 2290 2202 2136 2144 2115 2103 2356 2767 2848 2750 2579 2527 2416 2437 2476 2447 2480 2598 2638 2727 2849 2899 3032 3179
15 19 24 2 19 24 92 75 48 18 79 134 313 518 394 529 514 515 650 1340 1433 1510 1642 1663 1698 1736 1737 1821 2058 2825 2911 2904 3638 3234 2483 2679 2997 3093 3070 3087 3046 3075 3183 3290
15 4 3 10 2 17 18 56 9 3 7 80 173 442 436 369 421 401 377 304 404 820 968 922 952 893 1172 1258 1233 1304 1848 2798 3229 3879 3580 3138 2847 2754 3240 3543 3565 3652 3717 3769
0 0 0 0 0 0 0 0 0 9 1 46 106 251 428 331 322 330 165 15 1 149 641 808 612 911 1310 1486 1470 1018 1632 2114 2949 3622 3924 3632 3493 3366 3275 3495 3865 4019 4081 4016
0 9 0 0 0 0 0 0 0 1 0 0 0 1 54 192 215 166 43 8 0 374 979 809 652 777 916 805 859 1107 1705 1860 2188 3376 3724 3973 3700 3393 3199 2964 2883 3364 3234 3098
0 0 0 0 0 0 0 0 0 0 0 0 0 0 2 88 145 53 33 10 4 43 528 1011 714 554 674 564 484 1032 1268 1701 1946 2373 2893 3631 3675 3561 3590 2352 2833 2840 2690 2238
0 0 4 0 0 0 0 0 0 0 3 1 2 0 0 0 0 0 0 0 2 0 24 549 705 440 708 569 452 1069 1179 1186 1385 1831 2237 2695 2793 3118 3542 3014 2230 2340 1734 1496
0 0 0 0 0 0 0 0 0 0 0 1 0 0 0 0 0 0 0 0 0 0 0 232 471 397 649 636 690 715 1072 1019 1088 1219 1502 1624 1961 2275 2605 2809 2470 2000 2290 1903
0 0 0 0 5 2 1 0 0 34 2 0 0 0 0 0 0 1 0 0 0 0 0 15 107 282 634 843 794 463 652 736 804 736 940 1241 1282 1339 1657 1422 1582 1513 1506 1508
0 0 0 0 0 2 7 4 3 0 0 0 0 0 0 0 0 0 0 0 9 17 5 12 14 111 634 876 722 426 407 518 373 641 600 623 760 784 784 826 898 804 623 440
0 0 0 0 0 0 0 0 0 0 0 0 2 1 3 0 0 0 0 0 0 0 7 18 30 124 615 670 370 359 409 293 233 537 303 354 370 312 618 207 312 306 327 146
0 0 0 0 0 0 0 0 0 0 0 0 0 0 2 4 3 1 4 0 6 3 1 50 43 121 472 264 64 124 112 208 138 86 153 142 291 252 568 342 237 78 0 0
1 0 0 0 0 0 0 0 0 0 0 0 0 5 4 3 8 5 4 11 31 17 23 50 47 86 74 85 101 41 21 26 52 16 12 18 46 53 22 7 2 0 0 0
13 0 0 0 0 0 0 0 0 0 0 0 1 0 0 4 9 24 27 10 21 19 2 18 63 28 80 36 64 39 41 42 9 3 7 8 11 6 4 1 0 0 0 0
32 24 14 19 20 10 0 0 0 0 0 0 0 0 0 0 0 7 22 28 35 33 18 9 45 69 52 25 32 22 14 27 12 6 1 7 0 1 1 7 0 0 0 0
0 0 12 34 33 2 0 0 0 0 0 0 0 0 0 0 0 0 0 0 0 0 1 2 4 2 3 6 4 5 5 5 5 4 0 0 0 0 0 1 2 0 0 0
4 0 0 0 0 0 0 0 0 0 0 0 0 0 0 0 0 0 0 0 0 0 0 0 0 0 0 0 1 6 3 0 3 0 0 0 0 1 0 0 0 0 0 0
0 0 0 0 0 0 0 0 0 0 0 0 0 0 0 0 0 0 0 0 0 0 0 0 0 0 0 0 0 0 0 0 2 0 0 0 0 0 0 0 0 0 0 0

GFSNGP_con_mucape_042.txt.gz
CAPE
0 0 0 0 0 3 0 1 0 0 0 0 0 0 0 0 0 0 0 2 38 70 122 178 237 270 374 358 308 274 357 612 602 606 636 697 905 1136 868 770 728 699 731 764
0 0 0 0 0 0 0 0 0 0 0 0 0 0 0 0 1 0 0 0 7 88 160 172 211 318 388 578 520 428 405 671 758 773 749 710 633 684 1189 1122 1069 1033 1014 1012
0 8 0 0 0 0 0 0 0 0 0 0 0 114 55 20 57 132 0 0 0 57 184 188 246 305 373 652 809 765 681 796 993 1069 1116 1050 931 778 779 1011 1252 1125 1054 1030
0 18 0 0 0 0 0 0 0 0 0 83 25 358 271 133 71 238 191 0 0 91 199 199 273 349 343 723 1184 1148 1069 1100 1235 1295 1299 1308 1288 1192 1114 1099 1103 1283 1397 1234
0 13 0 20 4 3 9 3 0 12 271 660 466 198 371 614 361 835 924 0 15 104 217 228 276 380 425 854 1386 1479 1447 1442 1454 1452 1371 1369 1462 1506 1458 1419 1359 1291 1242 1326
37 56 5 1 3 1 0 4 5 60 328 425 261 161 362 1252 1005 746 837 638 14 120 270 363 415 457 575 822 1211 1599 1647 1669 1697 1693 1653 1563 1544 1599 1747 1829 1856 1754 1574 1505
79 33 48 5 1 1 30 0 14 64 187 256 34 118 1140 1468 1183 1033 1182 1191 528 572 593 594 592 609 647 814 983 1148 1482 1761 1835 1901 1927 1943 1935 1913 1910 2053 2155 2255 2308 2280
82 47 75 67 18 8 0 8 28 133 238 203 251 1112 1358 1531 1627 1338 1062 1020 1152 1116 998 908 884 878 879 870 914 969 1229 1610 1885 1995 2128 2201 2225 2322 2404 2364 2405 2478 2510 2562
55 56 25 91 45 12 1 39 80 221 290 244 397 1011 1249 1728 1724 1859 1613 1672 1662 1432 1428 1432 1410 1438 1588 1940 2000 1309 1301 1390 1483 1926 2157 2374 2493 2512 2553 2623 2684 2681 2714 2745
18 13 126 112 99 19 40 33 108 172 302 425 450 440 507 979 1521 2006 1743 1705 1657 1815 1892 1901 1845 2001 2218 2505 2217 1828 1816 1797 1826 1998 2051 2238 2426 2641 2771 2732 2740 2871 2938 2933
5 28 79 96 88 52 74 114 148 167 299 336 470 371 267 417 754 1123 1413 1764 1609 1533 1511 1644 1895 2059 2178 2425 2586 2536 2768 2812 2275 2287 2315 2347 2340 2346 2446 2656 2776 2874 2913 3060
86 36 52 56 34 72 62 65 172 223 323 360 343 392 274 228 335 368 702 1123 1174 1118 1102 1107 1107 1161 1276 1310 1406 1705 2424 2785 3362 3096 2479 2372 2424 2423 2552 2591 2645 2817 2903 3010
2 1 10 4 60 116 150 150 60 132 337 494 370 225 311 229 175 197 215 325 471 475 659 450 628 818 707 740 883 881 1121 1571 2565 3527 3361 2859 2555 2624 2641 2570 3108 3287 3397 3652
0 0 4 0 0 8 92 125 42 17 160 262 270 321 231 280 161 161 105 58 50 35 401 688 504 503 535 395 442 968 1331 1503 1753 3051 3699 3506 3160 2980 3047 3110 3279 3730 3950 3934
0 0 0 0 0 0 0 8 12 0 9 83 147 51 94 233 194 71 16 7 0 0 0 103 561 356 446 387 419 1000 1209 1647 1787 2849 3531 3810 3545 3319 3117 2928 2443 2066 1892 2068
0 0 0 0 0 0 0 0 1 2 0 4 36 4 192 134 144 57 10 0 0 0 0 0 11 371 318 502 559 1056 1029 1469 1818 2253 3032 3527 3557 3368 3170 2799 2695 1746 1414 1328
0 0 0 0 0 0 0 0 0 0 0 0 0 0 0 36 54 34 14 0 0 0 0 0 0 0 194 372 536 546 921 907 1257 1606 2010 2672 3016 2506 2451 2512 2594 1906 2281 1970
0 0 0 0 0 0 0 0 0 0 0 0 0 0 0 0 0 17 87 65 19 0 0 0 0 0 0 156 456 642 578 684 742 986 1174 1308 1528 1875 1821 1951 1702 1904 1884 1595
0 0 0 0 0 0 0 0 0 0 0 0 0 0 0 0 0 16 0 2 0 0 0 0 0 0 0 134 613 671 584 512 504 391 576 955 1238 1241 1215 1250 1235 887 1146 1111
0 0 0 0 0 0 0 0 0 0 0 0 0 0 0 0 0 0 0 0 0 0 0 0 0 0 0 118 582 816 554 458 479 202 182 305 284 205 372 499 816 697 545 656
0 0 0 0 0 0 0 0 0 0 0 0 0 0 0 0 0 0 0 0 0 0 0 0 0 0 23 10 89 482 592 349 230 288 64 223 239 27 60 70 27 36 43 16
2 0 0 0 0 0 0 0 0 0 0 0 0 0 0 0 0 0 0 0 0 0 0 0 0 0 0 1 21 199 468 167 130 51 148 198 101 40 35 37 133 150 134 108
25 10 4 0 0 1 13 1 0 0 0 0 0 0 0 0 0 1 0 0 0 0 0 0 1 8 4 31 42 321 50 121 79 20 61 26 14 21 23 18 29 30 10 1
10 29 36 41 26 22 9 0 0 0 0 0 0 0 0 0 0 0 0 0 0 0 1 3 17 12 8 0 19 8 26 47 12 57 41 10 7 23 24 32 19 24 15 14
0 0 8 7 21 14 0 0 0 0 0 0 0 0 0 0 0 0 0 0 0 8 0 0 1 6 2 26 15 2 23 23 24 63 39 5 22 35 30 25 5 18 14 12
0 0 0 0 0 0 0 0 0 0 0 0 0 0 0 0 0 0 0 0 0 0 6 0 0 0 0 0 0 0 0 0 0 0 27 0 8 0 5 2 0 2 0 0
0 0 0 0 0 0 0 0 0 0 0 0 0 0 0 0 0 0 0 0 0 0 0 0 0 0 0 0 0 0 0 0 0 0 0 0 0 0 0 0 0 0 0 0

GFSNGP_con_mucape_045.txt.gz
CAPE
0 0 0 0 0 0 0 0 10 1 5 0 0 0 0 0 0 0 0 3 264 352 540 874 1188 1149 1237 1160 1205 1034 1297 1210 1335 1479 1609 1765 1940 2011 1762 1741 1976 2018 1905 1743
0 0 0 0 0 0 0 0 0 0 0 0 0 0 0 0 4 24 50 1 26 296 654 781 1092 1143 1144 1235 1300 1359 1509 1498 1623 1737 1855 1941 2108 2182 2040 1971 1953 2180 1835 2059
0 12 0 0 0 0 0 0 0 0 0 0 0 244 160 124 132 141 209 446 250 3 682 910 1092 1292 1218 1327 1417 1472 1594 1780 1939 2022 2040 2139 2246 2401 2534 2298 2061 2213 1922 1983
0 23 0 3 15 0 6 0 0 0 0 0 77 503 315 24 6 30 118 318 604 314 36 1001 790 881 1246 1277 1571 1595 1726 1892 2128 2198 2173 2260 2320 2382 2575 2514 2608 2519 2198 2295
9 23 39 130 12 5 31 0 0 0 0 83 274 853 672 442 717 306 330 303 922 890 0 849 1049 1360 1520 1703 1732 1747 1837 1961 2215 2324 2357 2427 2402 2402 2197 2084 2151 2419 2321 2486
3 12 61 57 13 2 0 3 0 0 0 363 460 771 198 711 425 750 1005 1111 772 180 5 817 1220 1234 1630 1694 2004 2018 2071 2133 2379 2531 2611 2690 2809 2824 2820 2466 2136 2003 2115 2396
10 12 21 108 85 35 55 5 54 5 28 299 281 206 408 833 1095 1080 891 879 726 493 1038 1222 1450 1471 1814 2099 2312 2170 2078 2183 2717 2819 2899 3000 3114 3202 2839 2631 2832 2669 2494 2596
5 3 4 83 108 85 27 69 68 71 90 258 330 678 1100 1166 1173 1008 801 573 1205 946 1092 1336 1591 1766 2029 2344 2713 2950 3037 2941 3118 3159 2587 2569 3165 3028 2937 3163 3000 3135 3051 2973
0 1 0 29 103 73 54 71 73 57 145 276 554 836 1031 1073 1568 1226 921 769 848 1357 1547 1500 1284 1848 1997 2184 2723 2936 3202 3315 3159 3136 2929 3356 3169 3201 2857 3061 2919 3036 3047 3095
0 0 36 88 70 80 76 65 59 101 187 301 655 714 1062 1324 1709 1644 1410 1181 993 1040 1281 1545 1891 2122 2286 2479 1972 2390 2995 3261 3299 3268 3058 3269 2930 3001 3016 3088 3125 3180 3257 3318
76 7 1 41 29 27 27 40 104 95 221 331 587 931 1031 1140 1157 1158 1318 1834 1404 1324 1337 1437 1647 1829 1989 1971 2630 2300 2231 2503 2646 2704 2815 3181 3287 2802 3191 3497 3150 3387 3518 3570
8 4 39 90 91 18 32 65 68 196 240 319 465 679 686 934 640 849 1035 1170 1409 1564 1630 1743 1800 1923 2076 2112 2175 2445 3255 2691 2139 2068 2194 2730 2073 2208 2519 2798 2760 2918 2968 3282
0 0 0 1 0 33 38 61 87 257 172 396 283 525 356 626 463 636 517 875 974 1171 1312 1395 1395 1495 1325 1216 1251 1466 1902 2368 2694 2193 1838 2221 2204 2171 2187 2176 2354 2435 2708 2816
0 0 6 8 59 15 105 37 26 119 169 345 404 196 274 366 348 329 399 529 653 633 594 590 514 561 397 365 550 942 1058 594 1830 2570 2142 2286 2105 2025 1964 2207 2047 2453 3070 3254
0 0 0 0 0 0 0 33 36 102 200 188 241 162 65 257 291 257 187 248 344 373 251 149 187 275 155 294 698 778 1122 1356 2212 3303 3536 3377 2996 2684 2458 2596 2764 2752 3105 3541
0 0 0 0 0 0 0 18 67 44 13 24 7 9 229 111 156 277 296 121 123 139 103 27 0 14 107 130 491 900 1469 1825 2047 3183 3180 3331 3275 3040 2917 2862 2803 2878 2689 2279
0 0 0 0 0 0 0 0 0 0 0 3 0 1 87 11 201 178 231 253 176 45 36 14 7 0 0 63 184 587 920 1584 1522 1837 2888 3649 3157 3001 2871 2733 2451 2420 1879 1648
0 0 0 0 0 0 0 0 0 0 0 0 0 4 3 19 149 136 123 122 155 85 29 0 0 0 0 0 84 364 563 594 845 930 1366 2013 2537 2767 2670 2583 2457 2229 2313 1675
0 0 0 0 0 0 0 0 0 0 0 0 0 0 0 3 3 10 34 150 171 94 47 0 0 0 0 0 4 341 564 561 630 571 502 891 1179 1308 1553 1717 1394 1434 1582 1308
0 0 0 0 0 0 0 0 0 0 0 0 0 0 0 0 0 0 0 4 2 14 0 0 0 0 0 0 0 116 617 624 448 415 304 524 799 856 876 810 627 646 592 691
11 6 3 0 1 0 0 0 0 0 0 0 0 0 0 0 0 0 0 0 0 0 0 0 10 0 0 0 0 19 75 439 517 275 179 67 365 313 256 269 248 275 258 82
36 28 24 25 28 31 34 12 0 0 0 0 0 0 0 0 0 0 0 0 0 0 0 0 0 1 0 0 2 16 9 8 169 370 65 73 68 260 162 37 49 16 6 6
91 97 78 72 84 104 83 41 21 0 0 0 0 0 0 0 0 0 0 0 0 0 0 0 0 0 0 5 0 4 1 3 25 56 105 13 10 73 23 4 1 0 3 14
86 136 131 144 121 94 10 13 3 25 1 0 0 0 0 0 0 0 0 0 0 0 0 0 0 0 0 0 10 14 25 60 33 24 47 4 1 8 12 14 0 5 17 3
42 10 0 51 33 0 0 0 0 5 20 15 1 0 0 0 0 0 0 0 0 0 0 0 0 0 0 6 5 37 36 44 93 19 25 31 7 9 2 9 5 1 15 20
3 0 0 1 0 0 0 0 0 0 0 0 0 1 1 0 0 0 0 0 1 0 0 0 2 0 1 5 1 28 49 46 56 45 23 10 31 24 12 9 11 10 17 11
3 0 0 0 0 0 0 0 3 2 0 0 4 5 6 8 0 0 0 0 0 0 0 0 0 0 0 0 0 0 0 0 0 0 0 0 0 0 2 3 0 0 2 1

GFSNGP_con_mucape_048.txt.gz
CAPE
0 0 0 0 0 0 0 2 0 1 36 3 15 0 0 0 0 0 0 12 149 293 734 1627 2038 2512 2154 1441 1699 1418 2055 1288 1994 2458 2441 2509 2778 2746 2336 2708 2456 2427 2413 2252
0 0 0 0 0 0 0 0 0 0 0 0 5 0 0 0 0 0 0 0 0 70 329 806 1362 2230 2536 2532 1956 1922 2548 2185 2482 3012 3033 3057 3239 3339 3164 2898 2840 2617 2481 2417
0 0 0 0 0 0 0 0 0 0 0 13 16 4 0 0 0 37 88 123 236 130 79 448 941 1765 2157 2664 2259 2377 2795 2727 2952 3216 3288 3357 3383 3586 3478 3420 3005 2869 2606 2773
39 7 0 0 0 0 0 0 0 0 0 19 22 24 824 526 397 364 334 357 471 548 657 137 544 857 1489 1699 2769 2813 2997 3027 3188 3404 3253 3539 3631 3702 3858 3273 3453 3294 2894 3398
149 0 0 0 0 9 0 0 0 2 0 0 1 102 1076 499 259 333 430 568 774 862 924 1124 289 723 1500 1444 2019 2626 2992 3226 3308 3405 3333 3362 3484 3638 3428 3243 3312 3209 2980 3532
153 0 0 12 17 38 38 63 95 58 114 40 20 210 375 237 238 213 271 526 876 1398 1639 1392 1397 525 1044 1532 1896 2736 2909 3154 3460 3571 3572 3592 3673 3728 3798 3347 3204 2877 2995 3378
0 0 0 12 0 58 58 106 5 0 0 197 332 58 45 269 385 339 452 462 1205 1626 1727 1543 1177 629 2064 2110 2299 2636 2214 2318 3058 3437 3822 3680 4051 4039 3914 3382 3378 3686 3376 3697
0 0 0 0 4 15 64 19 89 79 20 14 132 300 533 628 716 928 770 813 1682 1224 841 699 562 1774 2847 2827 2782 3047 3111 3070 3566 3839 2883 2856 4149 3936 3781 3737 3843 3935 3691 3391
0 0 0 0 1 0 78 153 144 126 16 131 249 365 349 711 891 935 1150 983 1515 1589 1150 1151 1470 1846 2265 3089 3177 3055 3139 3654 3438 3445 3355 3975 3969 3998 3463 3803 3320 3245 3226 3163
0 0 0 0 0 0 36 167 184 183 122 254 374 331 603 804 1003 1078 1005 957 1211 1495 1922 2028 1773 1815 2094 2538 3586 3205 3305 3579 3326 3350 3280 3314 3331 3380 3261 3239 3238 3137 3208 3240
0 0 0 0 0 0 54 167 266 199 295 445 489 546 767 857 1058 1096 1060 939 1056 1046 1226 1533 1687 1793 2267 2655 2698 2984 3164 3240 3366 3382 3293 3390 3290 2923 3181 3667 3055 3314 3323 3460
0 0 0 0 0 0 19 63 246 247 132 541 562 477 612 792 1002 1215 1298 1109 948 951 1152 948 902 979 1135 1943 2709 2447 2530 2735 2927 2939 3255 3293 3445 2494 2587 2804 2814 2922 2982 3288
0 0 0 0 0 0 137 99 117 268 295 406 366 449 538 763 786 918 967 997 1029 1208 1255 1336 1535 1659 1661 1777 1951 2879 2848 3544 2583 2448 2803 2496 2503 2264 1929 2530 2753 2849 2980 3165
0 0 0 0 0 0 0 0 0 3 157 346 156 304 499 651 256 298 458 455 541 540 772 950 1227 1448 1548 1692 1664 1875 2219 2709 3895 2677 2199 2056 1158 1025 1040 1122 1993 2786 2621 2821
0 0 0 0 0 0 0 21 115 81 42 156 22 164 353 357 430 143 224 225 294 292 510 632 777 931 1017 827 995 1456 1659 1331 1540 1339 1084 815 374 131 121 145 2255 1765 2162 2648
0 0 0 0 0 0 0 0 13 9 42 42 10 175 97 135 296 213 139 181 293 280 258 336 415 459 517 553 690 837 1096 1095 1414 1516 1392 1851 2068 1766 1904 2103 1665 1977 2678 2980
0 0 0 0 0 0 0 0 0 0 8 18 60 0 0 29 16 2 4 61 117 116 236 178 155 139 83 248 748 1048 1244 1493 1900 1993 1790 1833 2146 2065 2096 1825 2282 2546 2538 2632
9 7 0 0 0 0 0 0 0 0 0 0 0 3 0 0 10 4 7 56 45 52 1 0 0 0 0 0 201 584 954 1129 1298 1504 1674 1794 1732 1665 1980 2449 2737 2656 2632 2480
31 22 32 21 0 0 0 0 0 0 0 0 0 0 0 0 0 0 0 0 0 39 89 0 0 0 0 0 0 96 177 342 644 687 694 1344 1733 1939 1808 2129 2281 2042 1812 1801
51 39 38 44 49 47 0 0 0 0 0 0 0 0 0 0 0 0 0 0 0 6 0 0 0 9 0 0 0 6 17 225 307 247 92 153 408 765 1296 1639 1855 1174 1201 1728
59 64 51 46 45 47 50 50 0 0 0 0 0 0 0 0 0 0 0 0 0 0 0 0 0 0 0 0 0 15 1 53 95 338 183 61 45 274 646 853 960 698 631 569
58 58 50 49 54 46 49 44 50 9 0 0 0 0 0 0 0 0 0 0 0 0 0 0 0 0 0 0 0 0 10 0 0 0 55 18 9 4 155 265 380 207 132 208
51 52 45 48 33 43 24 21 34 50 50 0 0 0 0 0 0 0 0 0 0 0 0 0 0 0 0 0 0 0 0 0 0 0 0 0 9 4 8 36 63 11 76 20
49 43 42 47 36 21 22 23 25 47 58 43 44 0 0 0 0 0 0 0 0 0 0 0 0 0 0 0 0 0 0 0 0 0 0 0 0 0 19 12 39 45 21 11
55 31 22 34 22 14 20 15 23 26 24 44 48 35 20 0 0 0 0 0 0 0 0 0 0 0 0 4 0 0 0 0 1 2 1 0 0 0 19 29 18 60 12 3
78 51 54 15 8 16 17 14 24 19 26 28 36 41 23 26 0 0 0 0 0 0 0 0 0 0 0 0 1 3 0 2 4 10 13 4 0 1 8 43 25 10 1 9
58 2 55 36 32 28 6 2 28 30 18 31 38 45 49 37 12 0 0 0 0 0 0 0 0 0 0 0 0 0 2 5 0 28 19 20 4 1 12 10 14 11 3 5

GFSNGP_con_mucape_051.txt.gz
CAPE
0 0 0 0 0 0 0 0 6 11 11 22 27 26 55 9 0 0 0 80 235 573 1427 2261 2289 2718 2621 1750 1961 1413 1795 1665 2160 2647 2528 2676 2586 3199 3256 3579 3629 3930 3955 3740
0 0 0 0 0 0 0 0 0 0 0 0 0 0 0 13 30 0 0 0 33 164 430 1319 2423 2816 2886 2535 2340 1938 2258 1966 2160 2715 2756 2765 2826 3277 3643 3760 3838 3987 3941 3918
0 0 0 0 0 0 0 0 0 0 0 0 0 0 1 11 38 16 21 0 22 0 190 372 906 2405 2488 2939 2418 2639 2836 2491 2717 3146 3153 3179 3211 3544 3763 3865 4080 4223 4114 4035
94 49 0 8 0 0 0 0 0 0 0 0 0 0 6 92 804 745 516 154 223 240 191 110 429 810 1800 2148 3205 3170 2949 3471 3000 3496 3449 3616 3706 3741 3914 3955 4008 4174 4275 4288
250 132 36 4 8 0 10 0 0 0 0 0 0 4 68 0 970 799 830 827 812 808 720 778 332 408 1834 1910 3356 3179 3554 3548 3480 3582 3743 3927 3968 3992 4080 4111 4138 4173 4311 4440
287 134 56 22 18 65 2 0 0 0 0 0 0 0 10 774 1072 885 751 746 898 1020 1057 1130 1254 868 668 1645 2391 3322 3632 3526 3751 3725 3956 4004 4079 4207 4353 4268 4250 3707 4116 4362
372 207 154 47 70 7 0 0 4 18 7 0 0 0 46 166 310 220 533 807 1022 1402 1454 1684 1791 1459 1633 1782 2409 3104 3374 3695 4015 3965 4135 4187 4331 4378 4417 4381 3702 4356 4199 4285
52 58 65 47 47 26 33 0 11 97 49 101 264 501 65 27 127 211 451 531 665 2126 2244 2229 2223 2653 2735 2327 2741 3370 3622 3712 4061 4235 3789 3599 4467 4458 4488 4489 4468 4624 4512 4312
99 6 79 12 0 1 0 0 41 42 376 620 335 221 0 116 244 414 649 873 1041 1950 2547 1508 2331 2797 3160 2416 3887 3725 3907 3935 4135 4282 4269 4213 4405 4555 4065 4443 3358 3537 3437 3160
0 0 0 0 0 0 0 0 0 61 5 23 5 58 92 298 542 641 710 983 1189 1573 2722 2708 2671 2161 2648 4450 4035 4188 4149 4092 4254 4222 4268 4206 3681 3740 3253 3162 3215 2913 2935 2661
0 0 0 0 0 0 0 0 0 42 21 8 2 9 230 413 785 917 1048 1074 1093 1415 1509 1710 1743 2131 2388 3221 3887 3525 4077 4137 3934 3618 3404 3952 3968 3116 3337 2418 2499 2920 2239 1834
0 0 0 0 0 0 0 5 3 43 84 31 42 62 47 402 639 824 1017 1068 1033 1058 1172 1224 1798 1961 2024 2168 3651 3524 3696 3336 3481 3036 3404 3548 2749 2535 2491 2512 2490 2435 2401 2364
0 0 0 0 0 0 0 0 0 1 51 59 3 116 281 297 430 779 838 967 1116 1041 884 923 983 1397 1609 1942 2228 3270 3343 4075 3341 2908 3269 3721 3442 2760 2621 2621 2601 2556 2666 2770
0 0 0 0 0 0 0 0 0 0 0 0 2 15 143 420 427 484 653 893 992 1090 925 992 706 1193 1710 2121 2208 3008 3347 2674 3304 3279 3445 3715 3669 3627 2910 2443 2268 2467 2589 2586
0 0 0 0 0 0 0 0 0 0 0 0 1 1 214 383 350 523 495 637 730 878 957 1108 1045 1100 1242 1287 1980 2199 3146 2988 3030 3434 3386 2891 2610 2422 1508 1685 1718 1675 1125 1357
0 0 0 0 0 0 0 0 0 0 0 11 0 0 13 34 286 405 410 534 529 602 801 796 919 925 959 1154 1426 1790 2167 2121 1895 2002 1865 1021 1066 1205 792 550 425 481 232 335
40 0 0 0 0 0 0 0 0 0 0 0 0 0 0 0 1 194 151 155 218 144 49 80 100 215 467 536 654 1167 895 1023 1721 1703 1568 1037 497 616 1476 1252 525 268 251 913
42 39 36 35 0 0 0 0 0 0 0 0 0 0 0 0 2 15 11 4 0 3 22 3 1 0 4 435 629 603 644 841 1146 991 1280 1399 1478 855 496 464 434 702 1006 1297
23 20 22 23 20 42 0 0 0 0 0 0 0 0 0 0 2 3 1 3 4 3 2 0 0 4 2 0 67 466 556 944 1007 1347 1227 1310 937 965 1023 1055 1346 1237 1020 1924
40 24 30 31 2 29 19 45 0 0 0 0 0 0 0 0 0 0 0 0 2 2 0 0 0 0 0 0 0 0 29 315 619 880 1081 1075 1112 1197 1375 1320 1510 1531 1754 1741
52 50 33 55 28 30 29 0 16 14 0 0 0 0 0 0 0 0 0 0 0 0 0 0 0 0 0 0 0 12 4 39 138 61 64 153 314 968 989 1024 1063 1114 1390 1231
29 14 42 29 18 22 36 32 0 15 30 13 0 0 0 0 0 0 0 0 0 0 0 0 0 0 0 0 0 3 11 3 0 0 9 1 0 0 115 222 406 586 593 749
72 70 47 57 37 36 38 36 31 22 11 30 30 13 0 0 0 0 0 0 0 0 0 0 0 0 0 0 0 0 0 0 0 0 0 0 0 0 0 0 62 323 329 377
65 51 48 56 44 35 33 37 34 50 49 35 41 55 49 0 0 0 0 0 0 0 0 0 0 0 1 7 0 0 0 0 0 0 0 0 0 0 3 0 1 6 10 92
48 60 45 58 48 27 27 29 26 28 39 66 51 25 55 22 0 0 0 0 0 0 0 0 0 0 0 3 0 2 8 5 0 0 0 0 1 4 0 0 7 7 12 15
99 52 52 30 36 34 32 29 32 28 40 39 36 30 54 43 0 0 0 0 0 0 0 0 0 0 0 0 0 2 1 1 1 4 2 1 1 2 0 0 0 0 7 19
75 2 76 63 55 45 29 31 42 41 23 49 50 34 39 59 19 0 0 0 0 0 0 0 0 0 0 0 0 0 0 0 1 4 0 4 6 3 9 9 10 13 3 0

GFSNGP_con_mucape_054.txt.gz
CAPE
0 0 0 0 0 0 0 0 0 0 0 0 0 3 1 6 28 66 102 68 192 346 419 1158 1799 1649 1516 1555 1379 1386 1682 1753 2001 2214 1902 1685 1705 1943 1549 2086 2545 2854 2844 3113
0 0 0 0 0 0 0 0 0 0 0 0 0 0 0 0 0 0 0 149 197 25 1758 1548 2064 1888 1790 1680 1619 1498 1521 1664 1893 2166 2090 2106 1799 2045 2206 2128 2561 2852 3060 3067
0 0 0 0 0 0 0 0 0 0 0 0 0 0 0 0 11 4 0 44 182 257 271 641 1589 2168 2072 1936 1831 1735 1803 1791 1901 2309 2451 2165 2374 1919 2436 2329 2526 2847 3080 3255
42 58 0 0 0 0 0 0 0 0 0 0 0 0 0 0 0 3 54 315 1099 140 367 653 290 719 2562 2392 2202 2221 1977 2279 2047 2384 2385 2499 2294 2424 2131 2523 2550 2877 3142 3273
159 132 20 1 1 0 22 5 0 0 0 0 0 0 0 0 0 6 56 318 905 615 659 1229 1172 1263 2358 2883 2484 2354 2372 2372 2304 2224 2420 2405 2376 2355 2335 2675 2848 2888 3135 3417
260 97 2 0 0 0 0 0 0 0 0 0 0 0 3 0 0 29 940 941 792 689 688 853 1270 1232 1326 2195 3019 2364 2375 2543 2829 2210 2706 2564 2542 2575 2650 2837 2980 3009 3127 3307
216 177 25 20 6 41 4 0 2 0 0 0 0 0 0 0 0 493 531 741 820 1008 1273 1527 1620 1660 1702 1644 2152 3102 2493 2780 2977 2880 2731 3071 3139 3107 3104 3238 3218 3306 3238 3357
115 105 38 96 69 75 46 1 0 0 0 0 0 0 0 5 277 377 382 330 456 892 1158 2187 2540 1881 1847 2287 2431 2962 3323 2850 3679 3587 2973 3346 3522 3649 3570 3543 3678 3616 3723 3757
9 16 6 8 20 7 4 2 0 0 0 0 0 0 0 577 377 131 33 169 431 606 1512 3364 2684 3210 2236 2616 2982 3897 3794 3215 3605 3701 3731 3423 3774 3781 3831 3852 3758 3636 3715 3632
0 0 0 0 0 0 0 0 0 0 0 12 29 277 348 208 0 110 213 362 581 884 1128 1067 1468 1980 3623 3098 3370 3458 3567 3681 3589 3948 3792 3537 3840 3786 3880 3805 3834 3734 3391 3566
0 0 0 0 0 0 0 0 2 0 22 22 123 216 166 65 154 264 308 359 646 679 818 993 1409 1624 1907 1887 3149 2842 3926 3705 3573 3695 3430 3814 3499 3727 3797 3668 3536 3514 3361 3147
0 0 0 0 0 0 0 0 0 1 1 140 87 52 63 98 299 385 409 427 579 640 760 1054 1475 1802 1917 2238 2786 4105 3749 3693 3488 3568 3615 3744 3301 2971 3177 3300 2819 2985 2882 2927
0 0 0 0 0 0 0 0 0 0 0 11 15 1 2 124 317 350 322 342 343 507 677 605 1360 1761 2034 2329 2518 2989 3896 3632 3519 3248 3436 3553 3159 2818 2878 2893 2743 2253 2495 2446
0 0 0 0 0 0 0 0 0 0 0 0 1 11 5 8 176 227 200 290 227 453 851 953 1248 1454 1650 1880 2164 2432 3261 2973 3418 3033 3066 3411 3110 2625 2665 2677 2557 2309 2103 2058
9 3 0 0 0 0 0 0 0 0 0 0 0 0 1 48 1 100 106 81 355 491 509 828 1050 932 1061 995 1016 1835 2392 2132 2510 3062 2904 3312 3299 3026 2948 2657 2724 2321 2205 2141
22 27 9 0 0 0 0 0 0 0 0 0 0 0 0 3 13 76 42 25 284 350 561 594 792 833 724 794 1023 1284 1675 1877 2239 2403 2414 2706 2887 2690 2657 2344 2109 1977 1562 1441
24 0 6 17 11 0 0 0 0 0 0 0 0 0 0 0 0 0 0 72 263 336 425 441 436 436 618 514 613 901 1166 1352 1651 1960 1862 1833 1835 2244 1778 1189 1311 1216 804 693
14 3 7 11 24 15 4 0 0 0 0 0 0 0 0 0 0 4 73 1 47 329 347 127 229 326 291 255 312 453 985 930 1134 1555 1620 1761 1048 887 630 434 91 50 4 92
12 15 31 13 36 48 24 11 0 0 0 0 0 0 0 0 0 2 14 0 87 182 137 15 18 107 225 211 214 169 330 625 747 858 818 490 937 988 660 181 65 39 120 211
96 41 51 37 48 30 37 58 23 4 0 0 0 0 0 0 0 0 0 1 0 0 0 0 1 0 8 8 66 113 35 91 311 409 554 645 659 610 274 171 139 150 299 459
90 85 90 47 39 74 41 29 15 24 19 2 0 0 0 0 0 0 0 0 0 0 0 0 0 0 0 0 0 0 0 0 22 72 146 63 169 333 576 695 621 477 816 837
90 49 76 59 53 52 69 34 28 20 24 41 33 0 0 0 0 0 0 0 0 0 0 0 0 0 0 0 0 0 0 0 0 4 12 1 71 143 318 343 638 584 565 704
98 97 46 75 54 56 32 44 31 53 32 89 37 23 0 0 0 0 0 0 0 0 0 0 0 0 0 0 5 5 0 0 0 4 0 0 30 15 16 53 68 62 72 209
52 67 83 76 59 26 61 67 80 93 65 90 29 9 10 0 0 0 0 0 0 0 0 0 2 4 5 0 0 1 11 5 0 0 0 0 6 2 0 0 0 0 3 29
90 78 61 49 33 26 108 106 66 132 61 51 4 21 0 0 0 0 0 0 0 0 0 0 0 1 8 13 8 4 1 0 0 0 0 0 0 0 7 4 0 2 0 0
107 92 39 56 62 41 20 37 34 29 82 47 42 14 15 1 2 0 0 0 0 0 0 0 0 0 0 0 2 4 10 8 2 3 4 0 1 0 2 3 0 0 0 2
54 2 60 79 29 20 5 23 50 23 42 38 80 63 15 19 8 0 0 0 0 0 0 0 0 0 0 0 0 0 0 0 0 0 0 1 4 4 2 0 3 4 5 11

GFSNGP_con_mucape_057.txt.gz
CAPE
0 0 0 0 0 0 0 0 0 0 0 0 0 0 4 3 13 82 221 253 207 98 145 310 176 551 753 678 557 1031 1230 1332 1204 950 697 670 210 176 0 1199 554 1620 1625 2259
0 0 0 0 0 0 0 0 0 0 0 0 0 0 1 0 6 12 104 147 82 46 8 198 79 509 704 791 759 659 1290 1440 1375 1155 945 798 807 866 488 107 1541 1014 1255 1719
0 0 0 0 0 0 0 0 0 0 0 0 0 0 0 0 2 27 44 129 233 141 101 175 291 34 10 787 887 856 875 1383 1420 1300 1230 988 893 780 1091 782 476 1741 1654 1747
0 4 0 0 0 0 0 0 0 0 0 0 0 0 0 0 0 3 32 205 185 278 431 412 304 358 398 466 886 982 987 1094 1382 1378 1347 1348 1141 1012 954 1119 847 830 1449 1857
0 0 0 0 0 0 0 0 0 0 0 0 0 0 0 0 0 13 1 104 114 115 207 438 419 142 285 195 579 948 1083 1086 1326 1318 1392 1507 1350 1229 1013 1209 1337 1128 1471 1805
5 3 0 0 0 1 2 0 0 0 0 0 0 0 0 0 0 0 0 0 55 26 46 80 682 655 218 5 76 1007 1446 1324 1265 1265 1511 1516 1474 1275 1449 1090 1152 1557 1388 1721
20 118 32 0 0 22 4 0 0 0 0 0 0 0 0 0 0 0 0 0 75 185 160 297 504 908 793 186 82 889 1335 1505 1656 1350 1507 1570 1621 1502 1406 1525 1324 1378 1668 1681
0 0 0 0 0 8 0 0 0 0 0 0 0 0 0 0 0 0 0 0 81 64 64 140 736 1602 1740 1684 1308 1542 2069 1881 1675 1771 1485 1713 1599 1648 1536 1506 1554 1562 1816 1938
0 0 0 0 0 0 0 0 0 0 0 0 0 0 0 0 0 0 4 0 23 6 10 117 445 1032 981 1816 2247 2142 2453 2348 2259 2325 1790 1853 1752 1711 1752 1777 1781 1938 1989 2113
0 0 0 0 0 0 0 0 0 0 0 0 0 0 0 0 0 1 35 36 1 28 87 133 323 647 549 1061 2209 2276 2504 2916 2428 2570 2356 1896 2290 2054 2170 2215 2224 2138 2282 2279
0 0 0 0 0 0 0 0 0 0 0 0 0 0 0 1 0 12 8 5 6 54 91 109 284 550 738 696 1182 1983 2237 2946 2750 2479 2715 2398 2452 2592 2521 2538 2499 2444 2414 2457
0 0 0 0 0 0 0 0 0 0 0 0 34 26 8 0 35 39 26 17 9 76 158 210 331 486 724 1016 1166 1448 1586 2518 2923 2445 2875 2711 2535 2683 2888 2850 2858 2695 2622 2624
0 0 0 0 0 0 0 0 0 0 0 1 10 34 17 23 44 58 56 26 49 39 77 396 408 545 556 1079 1388 1706 2019 2417 2924 2573 2651 2788 2693 2457 2619 2918 2895 2913 2873 2831
0 2 0 0 0 0 0 0 0 0 0 0 7 21 41 6 6 10 26 34 20 126 220 251 149 183 279 620 1401 1782 2268 3094 2992 2731 2527 2802 2836 2658 2345 2305 2533 2840 2808 2965
0 0 0 0 12 0 0 0 0 0 0 3 0 36 8 3 25 23 23 18 12 12 13 210 234 153 388 815 1077 1287 2072 2250 2472 2721 2613 2724 2827 2715 2465 2128 2444 2779 2685 2546
0 0 8 14 1 10 0 0 0 0 0 0 0 0 0 0 9 3 0 0 0 0 13 171 214 137 252 820 599 681 832 1481 1903 2222 2308 2316 2488 2533 2446 2283 2338 2599 2702 2492
0 0 0 0 9 3 0 0 0 0 0 0 0 0 0 0 2 0 3 3 0 0 1 6 88 196 698 418 719 645 786 892 1389 1978 1918 1830 1705 1901 2081 2297 2180 2301 2292 2188
0 0 1 2 8 0 3 1 0 0 0 0 0 0 0 0 2 2 6 88 14 81 184 227 250 492 460 442 556 485 802 810 968 1090 1126 1354 1355 1567 1573 1592 1714 1699 1559 1216
0 3 26 48 0 15 12 1 5 6 0 0 0 0 0 0 0 2 0 4 17 0 78 61 224 264 240 253 368 520 591 457 764 742 603 806 978 1266 1116 1119 219 27 483 645
39 42 35 34 16 2 9 9 0 0 8 0 0 0 0 0 0 0 0 0 0 0 2 12 239 237 212 131 102 166 409 389 468 446 462 658 713 765 830 667 313 25 41 239
87 67 65 13 28 16 13 5 0 10 11 4 1 0 0 0 0 0 0 0 0 0 0 0 15 99 186 53 8 7 69 154 208 83 194 275 414 347 345 168 144 104 48 3
58 14 34 35 48 47 45 29 6 14 19 13 0 0 0 0 0 0 0 0 0 0 0 0 3 0 8 6 3 2 4 46 46 2 6 15 36 95 46 59 114 207 116 89
46 83 92 7 3 68 64 35 39 13 6 5 0 0 0 0 0 0 0 0 0 0 0 0 0 0 1 25 28 2 0 0 0 0 0 0 2 0 0 10 52 77 48 7
24 186 129 123 18 1 36 41 70 9 2 0 0 0 0 0 0 0 0 0 0 0 0 0 0 0 0 27 31 19 10 5 0 0 0 0 0 0 0 8 36 90 41 32
250 120 98 143 159 0 90 51 26 19 0 0 0 0 0 0 0 0 0 0 3 1 1 6 1 8 39 27 17 21 14 11 0 0 0 0 0 0 0 0 3 0 2 1
99 3 0 113 60 24 17 29 22 18 6 1 0 0 0 0 0 0 0 0 0 0 3 0 0 0 2 6 3 3 0 1 0 0 0 0 0 0 0 0 1 10 22 17
139 0 9 1 14 3 18 8 8 28 45 32 9 5 3 4 0 5 0 0 0 0 0 0 0 0 1 0 0 0 0 0 0 0 0 0 0 0 0 3 11 4 2 2

GFSNGP_con_mucape_060.txt.gz
CAPE
0 0 0 0 0 0 0 0 0 0 0 0 0 0 0 1 24 49 195 187 173 115 37 27 2 4 404 479 456 620 543 549 415 586 643 335 102 116 132 317 281 137 888 1616
0 0 0 0 0 0 0 0 0 0 0 0 0 0 0 0 14 28 81 139 108 55 324 324 154 99 320 522 462 806 831 814 792 524 703 698 533 345 56 0 368 336 1050 1239
0 0 0 0 0 0 0 0 0 0 0 0 0 0 0 0 2 4 18 84 81 57 191 233 220 60 110 411 375 613 936 968 1032 1015 791 727 703 646 522 268 0 527 445 1291
0 0 0 0 0 0 0 0 0 0 0 0 0 0 0 0 0 0 0 4 73 45 165 267 271 119 178 154 143 679 700 1137 1276 1255 1182 1046 920 869 776 641 428 13 718 637
0 0 0 0 0 0 0 0 0 0 0 0 0 0 0 0 0 0 0 0 0 93 172 300 140 151 70 265 575 236 668 990 1222 1509 1386 1303 1209 1089 966 833 723 531 295 1247
0 0 0 0 0 0 0 0 0 0 0 0 0 0 0 0 0 0 0 0 0 0 70 160 433 201 336 366 203 655 744 1025 1087 1001 1456 1405 1310 1253 1118 1020 868 856 633 455
0 0 0 0 0 1 5 0 0 0 0 0 0 0 0 0 0 0 0 0 0 0 0 164 145 575 707 611 393 84 117 725 1128 1167 1000 1385 1350 1287 1235 1128 1036 976 987 843
0 0 0 0 0 0 0 0 0 0 0 0 0 0 0 0 0 0 0 0 0 0 0 4 154 334 694 762 693 379 36 70 321 687 801 1164 1338 1347 1297 1231 1158 1053 1113 1269
0 0 0 0 0 0 0 0 0 0 0 0 0 0 0 0 0 0 0 0 0 0 0 0 230 84 21 211 583 531 423 1006 585 1178 1347 1202 1273 1285 1325 1252 1344 1250 1105 1082
0 0 0 0 0 0 0 0 0 0 0 0 0 0 0 0 0 0 0 0 0 0 0 0 0 6 0 59 260 244 146 382 1342 1651 1650 1473 1304 1298 1365 1335 1295 1351 1362 1291
0 0 0 0 0 0 0 0 0 0 0 0 0 0 0 0 0 0 0 0 0 0 0 0 0 9 21 57 160 345 407 591 1136 1813 1797 1687 1637 1504 1510 1434 1400 1383 1372 1432
0 0 0 0 0 0 0 0 0 0 0 0 0 0 0 0 0 0 0 3 13 2 0 0 1 38 13 44 184 254 613 713 947 1997 2063 2094 1913 1913 1804 1657 1621 1654 1491 1608
0 0 0 0 0 16 0 0 0 0 0 0 0 0 9 0 0 5 0 55 32 8 0 0 0 7 65 19 77 180 387 822 1116 1505 2378 2494 2426 2127 2131 2015 1978 1935 1884 1862
0 0 0 0 0 3 4 0 0 0 0 0 0 0 0 7 13 18 30 18 22 30 29 5 3 6 28 8 86 42 76 430 1155 1682 2324 2574 2549 2569 2361 2217 2366 2439 2481 2367
0 0 0 0 0 2 12 13 0 0 0 0 0 0 0 0 14 34 8 10 17 16 57 11 11 3 8 0 6 116 286 620 936 1629 2550 2857 2674 2712 2595 2517 2414 2538 2741 2847
0 0 0 0 0 1 3 17 0 0 0 0 0 0 0 0 6 8 0 6 57 75 33 9 6 1 15 43 37 94 161 404 683 976 1741 2722 2710 2695 2641 2619 2502 2338 2357 2676
3 0 0 0 6 0 7 13 0 0 0 0 0 0 1 0 0 0 0 0 11 17 9 0 1 0 51 65 9 25 181 364 607 662 1322 1953 2150 1853 1874 2177 2236 2033 1901 2119
11 5 0 1 22 16 16 10 7 0 1 0 0 0 0 0 0 0 4 4 4 4 3 0 0 0 8 78 94 322 449 650 645 700 1206 1438 1837 2035 1583 1580 1450 1674 1844 1709
17 19 4 5 25 28 27 10 8 7 11 9 0 0 0 0 0 0 0 6 3 14 13 3 1 2 102 123 229 378 448 511 518 501 807 925 1291 1548 1614 1381 1348 1429 1501 1443
21 21 12 15 12 7 4 5 8 7 12 15 8 0 0 0 0 0 0 0 16 19 2 10 0 7 326 288 277 366 474 451 826 936 969 1021 1045 990 1037 1029 913 1076 1129 1033
32 30 41 45 13 16 4 13 7 16 4 0 0 0 0 0 0 0 0 0 0 11 10 3 0 1 178 195 84 182 496 705 668 459 395 529 658 678 557 570 765 576 484 722
0 2 2 7 16 7 5 7 18 28 5 0 0 0 0 0 0 0 0 0 0 0 1 4 4 0 2 5 45 11 226 401 449 369 380 346 304 180 96 142 229 10 367 479
7 22 31 8 11 0 11 6 22 40 14 0 0 0 0 0 0 0 0 0 0 0 0 1 2 0 0 5 47 1 5 20 28 61 286 172 84 19 16 99 73 49 6 6
0 1 1 1 0 2 3 5 43 28 8 0 0 0 0 0 0 0 0 0 0 0 0 0 0 0 0 0 0 13 4 0 0 4 14 9 0 0 0 0 9 51 10 1
65 13 4 0 0 0 22 17 3 5 7 0 0 0 9 2 0 0 0 0 0 0 0 0 0 0 0 0 0 0 0 9 4 10 17 0 3 1 0 13 50 40 51 21
26 16 13 0 0 4 10 3 1 6 6 6 1 0 0 0 3 0 0 0 0 0 0 0 0 0 0 0 0 0 3 0 0 0 3 3 5 15 0 4 2 3 2 11
12 19 14 5 0 0 0 1 1 8 16 23 21 10 0 0 1 7 16 3 0 0 0 0 0 0 0 0 0 0 0 0 0 0 0 0 0 1 3 2 1 1 5 6

GFSNGP_con_mucape_063.txt.gz
CAPE
0 0 0 0 0 0 0 0 0 0 0 0 0 0 0 0 0 15 388 599 424 247 162 85 100 114 59 57 130 185 227 234 341 305 244 142 27 0 58 191 212 184 115 1164
0 0 0 0 0 0 0 0 0 0 0 0 0 0 0 0 0 0 24 133 207 296 253 98 46 46 79 0 68 179 333 365 328 341 339 297 211 88 52 6 72 102 117 98
0 0 0 0 0 0 0 0 0 0 0 0 0 0 0 0 0 0 0 58 67 109 201 88 3 8 136 18 16 257 351 422 413 407 419 469 464 405 255 169 119 24 27 154
0 0 0 0 0 0 0 0 0 0 0 0 0 0 0 0 0 0 0 1 12 25 114 13 74 55 208 106 113 107 610 526 535 536 494 516 558 579 562 453 341 274 210 63
0 0 0 0 0 0 0 0 0 0 0 0 0 0 0 0 0 0 0 0 0 0 15 109 63 117 167 256 224 320 171 399 768 756 743 731 721 742 724 700 636 579 500 385
0 0 0 0 0 0 0 0 0 0 0 0 0 0 0 0 0 0 0 0 0 0 0 132 100 112 104 182 355 327 140 185 362 1017 993 987 987 972 931 897 922 893 823 663
0 0 0 0 0 0 0 0 0 0 0 0 0 0 0 0 0 0 0 0 0 0 0 0 1 28 104 139 155 309 538 226 495 599 1248 1367 1324 1216 1188 1250 1141 1070 1041 869
0 0 0 0 0 0 0 0 0 0 0 0 0 0 0 0 0 0 0 0 0 0 0 0 0 18 54 88 124 372 519 541 264 419 704 962 991 1300 1196 1259 1104 1211 1144 1047
0 0 0 0 0 0 0 0 0 0 0 0 0 0 0 0 0 0 0 0 0 0 0 0 0 1 65 21 49 65 196 132 211 498 739 635 668 711 1261 1245 1230 1173 1206 1163
0 0 0 0 0 0 0 0 0 0 0 0 0 0 0 0 0 0 0 0 0 0 0 0 0 0 0 0 0 0 119 84 35 53 403 1106 1189 1212 1166 1244 1284 1234 1208 1201
0 0 0 0 0 0 0 0 0 0 0 0 0 0 0 0 0 0 0 0 0 0 0 0 0 0 0 0 0 0 0 49 49 104 252 1074 1368 1468 1245 1257 1271 1286 1259 1262
0 0 0 0 0 0 0 0 0 0 0 0 0 0 0 0 0 0 0 0 0 0 0 0 4 0 0 0 0 0 0 28 29 20 142 330 1375 1574 1378 1377 1395 1445 1461 1375
0 0 0 0 0 5 10 25 17 0 0 0 0 0 0 0 0 0 0 0 7 0 0 4 3 2 0 0 0 0 11 0 0 15 15 158 620 1750 1688 1366 1467 1454 1494 1559
0 0 0 0 0 0 12 34 36 31 0 0 0 0 0 0 0 0 0 0 5 8 24 28 11 4 0 0 0 0 0 0 3 0 0 3 357 1334 1932 1789 1528 1879 1682 1689
0 0 0 0 0 12 18 26 24 0 0 0 0 0 0 0 0 0 0 0 5 11 10 10 5 4 0 0 0 0 0 0 0 0 0 69 351 1095 2052 2305 2067 2279 2201 1955
0 0 0 0 0 4 24 20 11 0 0 0 0 0 0 0 0 0 0 0 10 8 12 22 13 1 0 0 0 0 0 0 0 0 0 13 449 894 1772 2482 2582 2463 2381 2310
0 0 0 0 0 8 27 23 12 3 1 12 1 0 0 0 0 0 0 0 3 5 5 1 0 2 37 7 0 0 0 0 0 0 0 0 264 886 1679 2349 2633 2623 2547 2546
11 14 8 3 0 10 27 32 9 7 7 12 18 0 0 0 0 0 0 0 0 0 0 2 8 13 12 7 0 0 0 0 0 0 2 171 395 902 1416 2030 2412 2324 2325 2379
14 17 32 16 13 35 29 14 12 5 14 1 0 0 0 0 0 0 0 0 0 0 1 0 0 5 15 0 0 0 0 0 0 6 345 489 568 647 1134 1578 1914 1918 1777 1691
5 38 46 26 23 52 35 21 5 2 2 0 0 0 0 0 0 0 0 0 0 2 4 6 1 4 2 3 0 0 0 2 4 268 319 325 347 761 856 1075 1512 1863 1915 1683
14 33 53 55 46 21 0 17 14 18 1 0 0 0 0 0 0 0 0 0 0 0 0 1 0 3 14 6 21 11 7 168 251 286 271 258 898 1216 1115 1082 972 1257 1456 1535
21 22 30 23 17 10 0 13 16 20 4 0 0 0 0 0 0 0 0 0 0 0 0 6 6 20 9 25 11 63 197 258 490 420 433 379 768 940 768 480 673 755 1034 1024
13 12 5 19 33 3 0 6 14 33 15 0 0 0 0 0 0 0 0 0 0 0 0 0 0 0 2 7 2 9 108 147 299 317 825 557 537 459 593 617 635 784 591 481
22 24 1 6 8 1 0 0 17 20 18 0 0 5 10 0 0 0 0 0 0 0 0 0 0 0 0 0 2 30 2 1 11 193 350 59 412 617 697 739 669 586 550 135
22 8 6 4 0 0 18 14 0 1 17 19 0 0 9 21 9 0 0 0 0 0 0 0 0 0 0 0 2 0 0 0 0 0 4 31 4 127 280 165 45 70 2 8
0 4 5 23 3 12 38 7 0 6 20 24 22 13 4 4 16 6 0 0 0 0 0 0 0 0 0 0 0 0 0 0 0 0 0 2 1 2 2 30 11 0 5 35
0 1 16 54 27 31 14 4 16 29 33 29 19 8 9 9 4 0 2 2 1 0 1 0 0 0 0 0 0 0 0 0 0 0 0 0 5 8 6 3 3 3 1 3

GFSNGP_con_mucape_069.txt.gz
CAPE
0 0 0 0 0 0 0 0 0 0 0 0 0 0 0 0 0 26 333 238 248 205 164 212 192 251 211 219 225 301 555 587 620 863 795 500 758 1435 1121 946 1078 1175 1143 1272
0 0 0 0 0 0 0 0 0 0 0 0 0 0 0 0 0 0 0 85 254 223 263 338 182 109 133 146 150 147 213 664 912 1203 1202 1141 1070 1005 1412 1179 1057 1165 998 1053
0 0 0 0 0 0 0 0 0 0 0 0 0 0 0 0 0 0 0 0 1 282 208 122 58 149 106 87 125 178 239 215 644 1021 1174 1335 1011 1095 1315 1310 1386 1256 1015 1125
0 0 0 0 0 0 0 0 0 0 0 0 0 0 0 0 0 0 0 0 0 0 57 151 136 148 73 108 123 119 614 233 466 830 954 1170 1062 1144 1274 1062 1303 1374 1126 1209
0 0 0 0 0 0 0 0 0 0 0 0 0 0 0 0 0 0 0 0 0 0 0 0 24 30 102 124 112 121 304 532 774 805 880 934 1085 1469 1158 912 977 988 993 1197
0 0 0 0 0 0 0 0 0 0 0 0 0 0 0 0 0 0 0 0 0 0 0 0 0 0 10 80 168 161 188 186 362 659 464 1256 1096 1188 1249 1230 980 817 723 861
0 0 0 0 0 0 0 0 0 0 0 0 0 0 0 0 0 0 0 0 0 0 0 0 0 0 0 9 123 181 100 52 46 51 402 365 605 1576 1317 1299 1335 1298 1025 1069
0 0 0 0 0 0 0 0 0 0 0 0 0 0 0 0 0 0 0 0 0 0 0 0 0 0 0 0 0 4 140 85 65 28 65 255 537 424 1635 1825 1864 1679 1673 1320
0 0 0 0 0 0 0 0 0 0 0 0 0 0 0 0 0 0 0 0 0 0 0 0 0 0 0 0 0 0 0 9 2 5 10 40 438 611 681 965 1674 1893 1603 1488
0 0 0 0 0 0 0 0 0 0 0 0 0 0 0 0 0 0 0 0 0 0 0 0 0 0 0 0 0 0 0 9 3 0 4 10 37 214 474 573 976 1394 1668 1644
0 0 0 0 0 0 0 0 0 0 0 0 0 0 0 0 0 0 0 0 0 0 0 0 0 0 0 0 0 0 0 0 18 0 1 9 5 21 412 836 708 693 1187 1525
0 0 0 0 0 0 0 0 0 1 3 12 25 0 0 0 0 0 0 0 0 0 0 0 0 0 0 0 0 0 0 0 0 2 1 7 6 0 0 0 69 604 1142 750
0 0 0 0 0 0 0 0 0 0 0 0 1 12 13 0 0 0 0 0 0 0 0 0 0 0 0 0 0 0 0 33 0 1 0 0 5 8 2 0 32 74 331 1130
0 0 0 0 0 0 0 0 0 0 0 12 22 16 19 23 26 0 0 0 0 0 0 0 0 0 0 0 0 0 0 1 22 0 0 0 5 13 9 5 1 50 135 821
0 0 0 0 0 0 0 0 0 0 12 24 17 11 10 16 6 0 0 0 0 0 0 0 0 0 0 0 0 0 1 0 0 0 0 0 0 0 17 5 0 30 34 175
0 0 0 0 0 0 0 0 0 0 15 11 4 7 2 0 0 0 0 0 0 0 0 0 0 0 0 0 0 0 0 0 0 0 0 0 0 0 0 6 0 0 28 183
10 0 0 0 0 0 0 0 1 19 30 9 0 0 0 0 0 0 0 0 0 0 0 0 0 0 0 0 0 0 0 0 2 3 0 0 0 0 0 0 10 4 12 116
0 1 1 0 0 3 0 0 7 29 35 17 0 0 0 0 0 0 0 0 0 0 0 0 0 0 0 0 0 0 0 0 0 0 0 0 0 0 0 0 0 19 5 13
0 2 5 2 3 2 19 32 32 34 16 0 0 0 0 11 5 0 0 0 0 0 0 0 0 0 0 0 0 0 0 0 0 0 0 0 0 0 0 0 6 22 65 97
51 45 25 18 24 7 39 89 64 23 4 0 0 0 1 13 18 0 0 0 0 0 0 0 0 0 0 0 0 0 0 1 6 0 0 0 0 0 0 1 2 3 61 175
47 82 89 104 81 82 81 122 67 29 0 0 0 0 17 45 9 58 0 0 0 0 0 0 0 0 0 0 0 0 0 0 9 0 0 0 0 0 0 1 4 1 0 14
18 14 13 81 102 171 140 60 45 66 7 0 0 0 16 43 49 76 38 6 0 0 0 0 0 0 0 0 0 0 0 4 1 0 0 0 0 0 2 1 2 0 0 0
19 1 11 16 1 23 28 18 60 94 52 0 0 2 29 60 77 111 70 32 84 0 0 0 0 0 0 0 0 0 0 3 0 1 1 0 1 0 0 1 0 0 1 50
60 77 18 13 9 0 1 2 49 102 39 3 0 22 33 83 86 77 108 48 5 0 0 0 0 0 0 0 0 0 0 0 0 10 36 31 7 6 0 0 0 11 7 107
48 50 1 0 0 1 0 0 14 61 26 13 16 50 69 63 64 64 46 68 12 20 0 0 0 0 0 0 0 0 0 0 1 16 0 0 52 19 15 22 11 4 25 26
76 172 167 55 1 0 0 26 88 58 42 40 40 25 41 25 28 39 14 10 45 20 35 16 0 0 0 0 0 0 0 0 0 0 0 0 19 24 51 36 25 31 87 9
23 8 142 116 144 7 2 0 6 51 46 34 25 7 5 2 14 19 0 6 15 27 41 36 32 0 0 0 0 0 0 0 0 0 0 0 0 11 32 49 25 19 1 72

GFSNGP_con_mucape_072.txt.gz
CAPE
0 0 0 0 0 0 0 0 1 1 0 0 0 0 0 0 100 248 129 205 203 154 299 305 226 194 103 120 122 609 927 1199 1205 1312 1370 1402 1542 1787 1723 1648 1622 1621 1624 1765
0 0 0 0 0 0 0 0 0 0 0 0 0 0 0 0 0 0 179 285 128 118 175 186 292 259 261 184 168 239 754 799 1089 1500 1574 1598 1592 1538 1796 1888 1869 1761 1636 1439
0 0 0 0 0 0 0 0 0 0 0 0 0 0 0 0 0 0 0 0 20 216 167 104 125 241 202 204 131 123 199 730 885 1125 1572 1695 1779 1788 1704 1626 2045 2299 1862 1772
0 0 0 0 0 0 0 0 0 0 0 0 0 0 0 0 0 0 0 0 0 0 80 169 221 216 68 61 64 90 225 208 636 710 1050 1545 2168 1931 1868 1812 1854 1994 2169 2489
0 0 0 0 0 0 0 0 0 0 0 0 0 0 0 0 0 0 0 0 0 0 0 0 44 121 95 142 146 98 140 163 112 317 1082 1209 1397 2062 1969 2043 1921 1759 1772 2302
0 0 0 0 0 0 0 0 0 0 0 0 0 0 0 0 0 0 0 0 0 0 0 0 0 0 0 121 88 104 122 123 137 118 175 548 1279 2072 2548 2165 2021 1764 1765 1856
5 7 1 0 0 0 0 0 0 0 0 0 0 0 0 0 0 0 0 0 0 0 0 0 0 0 0 0 0 1 31 28 105 125 72 98 415 1746 1843 2300 2563 2397 2111 2148
15 21 4 0 0 0 0 0 0 0 0 0 0 0 0 0 0 0 0 0 0 0 0 0 0 0 0 0 0 0 4 46 71 33 64 44 36 41 1006 2297 2528 2487 2815 2167
7 18 0 0 0 0 0 0 0 0 0 0 0 0 0 0 0 0 0 0 0 0 0 0 1 2 0 0 0 0 0 6 15 114 65 44 5 38 55 997 1547 2451 2865 1990
0 0 0 0 0 0 0 0 0 0 0 0 0 0 0 0 0 0 0 0 0 0 0 0 0 0 10 9 0 0 0 0 0 2 35 25 6 12 15 29 436 958 1511 2495
0 0 0 0 0 0 0 0 0 0 0 0 2 3 3 0 5 0 8 0 0 0 0 0 0 0 0 0 0 0 0 0 0 0 0 15 1 0 0 0 53 358 1230 1661
15 0 0 0 0 0 0 0 0 0 3 10 14 17 22 23 26 23 24 0 0 0 0 0 0 0 0 0 0 0 0 0 0 0 0 0 0 0 0 0 0 17 44 196
8 0 0 0 0 0 0 0 2 3 10 17 17 12 16 13 12 18 0 0 0 0 0 0 0 0 0 0 0 0 0 0 0 1 13 0 0 0 0 0 0 0 2 0
1 0 0 0 0 0 0 1 0 0 10 20 26 33 26 29 28 23 1 0 0 0 0 0 0 0 0 0 0 0 0 0 0 0 0 17 2 0 0 0 0 0 0 0
0 0 2 0 0 0 1 2 6 11 15 22 46 47 38 35 25 14 1 6 0 0 0 0 0 0 0 0 0 0 0 0 0 10 24 0 10 12 0 0 1 0 0 0
53 1 0 0 1 6 6 5 7 7 6 31 37 47 42 28 16 16 4 9 0 0 0 0 0 0 0 0 0 0 0 0 0 0 8 23 9 25 17 0 0 0 0 0
3 44 0 0 4 16 36 34 29 14 13 26 45 61 34 10 12 25 18 15 1 0 0 0 0 0 0 0 0 0 0 0 0 0 0 19 27 0 26 22 0 0 0 0
1 2 17 12 37 65 79 76 63 23 24 31 58 48 38 20 19 22 23 28 25 0 0 0 0 0 0 0 0 0 0 0 0 0 0 0 0 4 3 18 28 17 1 1
39 76 79 122 117 116 123 106 124 42 49 84 80 73 36 8 19 13 16 38 42 20 0 0 0 0 0 0 0 0 0 0 0 0 0 0 0 0 0 2 12 21 15 8
266 230 213 186 210 211 192 197 195 158 108 112 83 59 45 21 28 38 38 36 0 67 0 0 0 0 0 0 0 0 0 0 0 0 0 0 0 0 0 0 9 24 23 21
210 160 176 226 193 217 238 293 232 247 157 174 110 76 26 30 56 64 71 66 2 35 0 0 0 0 0 0 0 0 0 0 0 0 0 0 0 0 0 0 22 32 24 26
106 81 104 168 200 202 230 274 260 247 235 209 115 43 6 48 63 55 63 88 58 3 51 0 0 0 0 0 0 0 0 0 0 0 0 0 0 0 1 0 0 0 6 0
38 40 86 95 121 84 17 59 264 287 252 261 94 12 15 54 42 38 60 89 45 13 55 0 0 0 0 0 0 0 0 0 0 0 0 0 0 0 2 1 0 1 0 0
62 33 55 38 40 85 201 110 105 186 304 143 50 10 42 56 34 18 64 17 0 11 56 38 0 0 0 0 0 0 0 0 0 0 0 0 0 0 0 0 11 4 3 3
72 86 116 109 37 17 0 70 285 77 141 63 57 40 67 60 58 56 56 64 3 13 73 4 0 0 0 0 0 0 0 0 0 0 0 0 3 16 14 4 10 25 31 4
99 106 122 147 135 0 0 21 172 0 152 92 71 48 36 36 29 29 31 29 47 38 63 60 72 9 104 0 0 0 0 0 0 0 0 0 0 3 0 0 13 25 43 15
73 4 97 246 112 42 0 0 102 110 58 77 69 32 30 28 17 19 5 40 32 34 55 62 61 39 85 0 0 0 0 0 0 0 0 0 0 0 0 0 14 60 3 36

GFSNGP_con_mucape_075.txt.gz
CAPE
0 0 1 7 0 0 0 0 76 176 109 4 0 0 6 83 89 119 114 148 260 282 466 387 323 279 427 525 524 587 645 1187 1760 1709 2046 1774 2240 2894 2595 2847 2764 2648 2670 2765
0 0 0 0 0 0 0 0 2 120 34 0 0 0 0 0 116 76 68 352 157 154 147 150 221 405 392 244 207 305 352 584 1342 1479 1827 2315 2297 2282 2810 3027 3201 3276 2544 2659
0 0 0 0 0 0 0 0 7 104 7 0 0 0 0 0 0 0 96 92 35 39 49 141 138 176 198 125 110 103 72 160 500 735 1545 1633 2404 2471 2712 2734 3027 3600 3194 2843
67 57 0 0 0 0 0 0 1 0 0 0 0 0 0 0 0 0 0 0 0 0 144 141 94 54 81 74 85 125 135 179 372 357 644 1006 1985 1945 2373 2610 2612 2996 2997 3528
37 109 32 0 0 0 0 0 0 0 0 0 0 0 0 0 0 0 0 0 0 0 0 0 66 175 126 84 82 52 82 73 136 246 471 551 822 1303 2609 2367 2242 2243 2547 3291
7 32 5 34 0 0 0 0 0 0 0 0 0 0 3 0 0 0 0 0 0 0 0 0 0 0 0 42 102 144 166 79 61 77 100 113 206 918 1098 2333 2165 1960 2321 2564
32 34 66 0 0 0 0 0 0 0 0 0 0 0 0 0 0 0 0 0 0 0 0 0 0 0 0 0 0 76 47 90 126 71 59 78 90 83 103 759 2011 2264 2031 2527
40 72 192 0 0 0 0 0 0 0 0 0 0 0 0 0 0 0 0 0 0 0 0 0 0 0 0 0 0 0 0 0 14 20 35 51 61 46 46 79 444 2001 2668 2532
54 123 23 0 0 1 0 0 0 0 0 0 0 0 0 0 0 0 0 0 0 0 0 0 0 0 0 1 0 0 0 0 0 13 8 17 2 32 27 75 101 190 1621 1894
4 1 0 0 0 0 0 0 0 0 0 0 0 0 0 0 0 0 0 0 0 0 0 0 0 0 0 1 4 4 0 0 0 0 9 26 67 20 24 0 0 0 374 1741
1 0 0 0 0 0 0 0 0 0 0 0 0 0 1 2 4 6 2 2 2 0 0 5 11 1 0 0 0 0 0 0 0 0 0 2 1 21 6 0 0 0 15 282
177 29 24 2 1 0 0 0 0 0 0 0 0 2 4 10 18 4 17 10 3 5 1 13 9 10 13 0 0 0 0 0 0 0 0 0 0 0 0 0 0 0 0 0
115 55 29 28 1 0 0 0 0 0 2 3 4 6 13 19 21 5 27 16 10 0 0 9 9 0 0 0 0 0 0 0 0 0 0 0 0 0 0 0 0 0 0 0
150 23 19 7 0 0 0 0 0 5 6 8 13 19 21 20 21 28 32 15 13 18 17 0 0 0 0 0 0 0 0 0 0 0 0 0 1 0 0 0 0 0 0 0
149 40 46 38 7 6 2 4 6 7 7 19 31 25 17 11 12 33 28 18 13 13 0 0 0 0 0 0 0 0 0 0 0 0 0 0 0 10 6 0 0 0 0 0
46 41 75 39 42 15 20 21 27 34 38 33 40 26 25 17 12 20 30 21 20 0 0 0 0 0 0 0 0 0 0 0 0 0 0 0 0 0 15 15 1 0 0 0
1 57 71 57 46 54 53 43 58 50 49 48 39 45 42 28 34 30 22 25 26 21 29 15 0 0 0 0 0 0 0 0 0 0 0 0 0 0 0 27 21 15 0 0
132 104 71 48 59 43 41 40 65 63 61 74 58 48 57 30 31 33 21 18 20 30 32 26 3 0 0 0 0 0 0 0 0 0 0 0 0 0 0 0 38 33 13 5
206 237 209 192 117 137 133 74 65 88 100 80 160 92 85 52 33 20 18 20 36 38 25 23 0 0 0 0 0 0 0 0 0 0 0 0 0 0 0 0 0 40 34 14
385 480 461 405 331 238 201 193 129 194 101 199 220 153 121 63 25 42 68 55 54 17 0 19 18 0 0 0 0 0 0 0 0 0 0 0 0 0 0 0 0 0 34 32
235 257 290 360 340 450 425 336 397 319 320 205 227 210 196 101 46 37 56 52 36 7 0 16 24 0 0 0 0 0 0 0 0 0 0 0 0 0 0 0 0 0 5 19
49 61 61 58 90 170 210 277 370 393 93 271 305 231 254 86 65 57 80 67 41 0 5 26 22 13 0 0 0 0 0 0 0 0 0 0 0 0 0 0 0 0 0 0
44 50 55 64 82 82 95 120 186 243 112 102 253 174 107 64 44 41 63 83 32 14 5 28 1 0 0 0 0 0 0 0 0 0 0 0 0 0 0 0 0 0 0 0
46 43 71 76 79 115 85 82 137 261 108 54 270 110 69 53 40 42 36 2 4 0 21 5 3 0 0 0 0 0 0 0 0 0 0 0 0 0 0 0 0 0 0 0
49 62 81 106 123 152 103 27 31 81 123 93 57 36 56 60 41 35 40 58 19 23 84 18 3 4 84 69 6 0 0 0 0 0 0 0 0 0 0 0 0 0 0 1
47 80 75 238 234 58 33 13 3 101 262 4 8 50 64 69 62 31 56 15 40 33 56 94 107 82 112 87 45 5 0 0 0 0 0 0 0 0 0 0 0 0 1 2
53 13 52 283 269 45 0 1 17 33 31 45 81 41 30 44 32 16 6 24 27 36 58 65 58 53 69 50 43 61 0 0 0 0 0 0 0 0 0 0 0 0 0 0

GFSNGP_con_mucape_078.txt.gz
CAPE
2 0 0 0 0 0 0 0 129 341 373 19 3 32 52 79 104 82 105 110 184 304 142 140 56 25 85 168 101 105 192 295 267 831 2389 3128 2904 2707 3013 2910 2960 2987 2886 2644
0 0 0 0 2 6 0 0 40 180 191 7 0 0 28 7 8 17 43 30 97 97 156 201 143 145 184 98 188 299 343 198 29 379 857 1377 2278 2629 3405 3012 2943 2802 2880 2788
10 5 1 1 0 0 0 0 377 320 58 0 0 1 0 0 0 0 0 21 17 41 63 53 102 45 86 135 108 157 40 193 155 146 35 513 1540 2471 3029 2994 3037 2933 2888 2845
47 1 0 0 0 0 0 20 221 201 34 7 0 0 0 0 0 0 0 0 0 0 0 0 3 15 0 74 76 60 69 90 117 162 268 533 748 930 1350 2534 2778 2769 2670 2853
84 0 6 1 0 0 0 30 68 32 1 1 0 0 0 0 0 0 0 0 0 0 0 3 61 57 65 22 34 30 34 62 83 246 215 203 206 525 637 837 1938 2238 2231 2442
68 46 4 39 0 0 0 35 2 0 0 0 0 0 0 0 0 0 0 0 0 0 0 0 0 0 17 53 88 86 10 39 32 55 39 209 201 188 352 528 742 1574 1961 2189
61 94 179 1 0 0 0 6 0 1 0 0 0 0 0 0 0 0 0 0 0 0 0 0 0 0 0 0 0 0 2 56 64 62 42 4 42 85 126 432 487 539 732 1930
36 157 318 2 0 0 2 0 0 0 0 0 0 0 0 0 0 0 0 0 0 0 0 0 0 0 0 0 1 0 0 0 16 43 73 67 18 11 33 53 60 122 352 1016
160 377 178 3 1 0 0 0 0 0 0 0 0 0 0 0 0 0 0 0 0 0 0 0 0 0 0 12 9 9 0 0 0 0 0 0 2 2 0 6 25 39 54 21
83 68 74 70 1 0 0 0 0 0 0 0 0 0 0 0 0 0 0 0 0 0 0 0 2 1 0 8 16 13 12 11 8 0 0 0 0 0 0 0 0 0 0 0
18 3 3 0 4 0 0 0 0 0 0 0 0 0 0 0 0 0 0 1 0 0 0 0 8 8 1 10 7 0 0 0 0 0 0 0 0 0 0 0 0 0 0 0
473 112 160 114 26 14 0 0 0 0 0 0 0 0 0 0 4 0 1 6 3 1 0 1 7 8 22 21 15 0 0 0 0 0 0 0 0 0 0 0 0 0 0 0
250 352 287 113 214 28 9 5 0 0 5 6 1 1 1 9 6 6 5 14 0 0 0 3 3 0 16 0 0 0 0 0 0 0 0 0 0 0 0 0 0 0 0 0
242 145 263 240 84 9 0 8 4 4 7 4 5 11 12 20 26 18 46 5 0 4 5 0 0 0 26 0 0 0 0 0 0 0 0 0 0 0 0 3 1 0 0 0
142 138 81 246 88 6 4 23 12 1 7 12 12 9 16 5 6 11 27 7 1 3 0 0 0 0 0 0 0 0 0 0 0 0 0 0 0 0 0 0 0 0 0 0
245 107 25 41 33 27 6 20 34 32 18 15 25 53 29 15 11 11 15 7 0 4 0 12 6 0 0 0 0 0 0 0 0 0 0 0 0 0 0 0 0 0 1 0
160 96 136 118 73 59 69 74 90 37 57 30 68 47 47 14 14 35 49 12 4 0 24 26 1 0 0 0 0 0 0 0 0 0 0 0 0 0 0 0 0 0 0 6
241 170 184 2 25 29 3 102 116 115 102 65 105 71 89 47 28 46 50 8 0 1 16 18 0 0 0 0 0 0 0 0 0 0 0 0 0 0 0 0 0 0 0 0
176 215 131 123 111 303 165 184 145 266 261 256 203 194 158 98 29 32 33 7 3 21 39 4 0 0 0 0 0 0 0 0 0 0 0 0 0 0 0 0 0 0 0 0
308 319 297 316 268 216 158 192 226 57 54 47 387 205 219 177 70 23 33 6 42 27 4 1 0 8 9 0 0 0 0 0 0 0 0 0 0 0 0 0 0 0 0 0
361 262 78 59 227 455 363 249 302 39 15 4 2 47 484 341 148 12 82 18 94 6 1 0 3 9 0 0 0 0 0 0 0 0 0 0 0 0 0 0 0 0 0 0
24 42 58 33 36 100 139 64 50 84 202 521 616 124 44 72 81 43 74 40 29 10 2 1 7 0 0 0 1 0 0 0 0 0 0 0 0 0 0 0 0 0 0 0
39 31 23 37 28 30 45 55 55 80 47 217 176 216 85 1 64 0 53 127 33 1 5 11 2 0 0 0 30 0 0 0 0 0 0 0 0 0 0 0 0 0 0 0
27 36 111 76 70 88 81 122 80 75 148 117 176 176 145 4 54 63 24 44 6 0 8 19 5 0 0 1 44 0 0 0 0 0 0 0 0 0 0 0 0 0 0 0
12 52 56 84 211 186 92 11 5 10 27 112 56 269 9 33 46 45 43 28 17 15 31 31 13 5 2 98 88 35 1 0 0 0 0 0 0 0 0 0 0 0 0 0
57 61 63 187 160 11 10 51 18 57 55 28 10 0 24 22 114 59 61 16 11 38 39 60 97 86 73 83 35 76 48 10 0 0 0 0 0 0 0 0 0 0 0 0
35 8 22 179 67 12 9 0 0 63 105 66 45 98 44 74 19 3 0 17 8 9 23 22 10 12 15 31 44 56 36 63 0 0 0 0 0 0 0 0 0 0 0 0

GFSNGP_con_mucape_081.txt.gz
CAPE
25 3 0 0 0 0 8 12 178 169 72 24 0 1 1 4 71 54 68 181 361 267 129 265 80 89 95 124 28 45 44 58 176 528 521 516 581 1224 2034 2118 2236 2005 1675 1921
0 1 0 0 0 0 15 217 324 328 61 0 0 18 60 91 59 57 54 76 117 275 319 378 151 95 61 110 111 97 24 43 81 121 111 177 128 455 1274 1608 1949 2117 2063 1816
0 1 33 2 0 0 150 295 218 152 30 32 0 0 1 3 8 36 71 49 90 102 131 148 127 85 95 81 47 101 129 70 32 81 43 37 120 199 593 1269 1547 1833 1974 2141
0 0 17 0 0 0 0 128 85 1 1 6 8 0 0 0 0 2 7 19 20 23 44 54 60 32 46 73 73 49 34 53 13 65 100 136 210 240 542 715 968 1627 1479 1573
0 0 0 0 0 0 0 22 207 89 23 0 3 1 0 0 0 0 0 0 0 0 0 13 9 13 41 24 25 51 43 63 47 83 125 80 157 270 223 302 640 828 1214 1461
5 19 0 0 0 0 0 19 197 102 39 2 0 0 0 0 0 0 0 0 0 0 0 0 0 0 0 1 40 45 47 44 35 99 88 53 96 112 85 98 196 426 698 881
0 29 34 1 0 0 9 15 65 95 14 0 0 0 0 0 0 0 0 0 0 0 0 0 0 0 0 0 0 0 6 12 0 15 47 38 42 42 41 85 93 143 292 403
0 3 14 0 0 0 0 6 20 10 0 0 0 0 0 0 0 0 0 0 0 0 0 0 0 0 0 0 0 0 0 0 0 0 0 13 4 23 27 0 31 60 78 94
57 32 0 0 0 3 0 0 2 18 1 0 0 0 0 0 0 0 0 0 0 0 0 0 0 0 0 0 0 0 0 0 0 0 0 0 0 0 0 1 0 22 7 31
1 118 46 6 7 2 0 0 0 0 0 0 0 0 0 0 0 0 0 0 0 0 0 0 0 0 0 0 0 0 0 0 0 0 0 0 0 0 0 0 0 0 0 0
0 0 0 2 0 0 0 0 0 0 0 0 0 0 0 0 0 0 0 0 0 0 0 0 0 0 0 0 0 0 0 0 0 0 0 0 0 0 0 0 0 0 0 0
22 124 202 86 17 0 0 0 0 0 0 0 0 0 0 0 0 0 0 0 0 0 0 0 0 0 0 0 0 0 0 0 0 0 0 0 0 0 0 0 0 0 0 0
34 75 133 141 69 140 1 0 0 0 0 0 0 0 0 0 0 0 0 0 0 0 0 0 0 0 0 0 0 0 0 0 0 0 0 0 0 0 0 0 0 0 0 0
0 27 136 123 176 78 92 1 0 0 0 0 0 0 0 0 0 0 0 0 0 0 0 0 0 0 0 0 0 0 0 0 0 0 0 0 0 0 0 0 0 0 0 0
48 72 56 103 82 67 87 92 0 0 0 0 0 0 0 0 0 0 0 0 0 0 0 0 0 0 0 0 0 0 0 0 0 0 0 0 0 0 0 0 0 0 0 0
30 24 83 88 95 43 56 40 5 0 0 15 6 1 0 0 0 0 0 0 0 0 0 0 0 0 0 0 0 0 0 0 0 0 0 0 0 0 0 0 0 0 0 0
5 33 35 16 18 29 33 9 6 26 6 0 0 2 13 18 2 0 0 0 0 0 0 0 0 0 0 0 0 0 0 0 0 0 0 0 0 0 0 0 0 0 0 0
17 90 117 65 66 23 0 1 9 15 49 121 69 56 21 16 2 0 0 0 0 0 0 0 0 0 0 0 0 0 0 0 0 0 0 0 0 0 0 0 0 0 0 0
120 205 168 142 29 6 20 0 1 42 52 72 115 77 49 29 13 5 5 1 0 0 0 0 0 0 0 0 0 0 0 0 0 0 0 0 0 0 0 0 0 0 0 0
93 36 83 221 152 80 36 121 109 106 70 40 20 12 24 62 39 12 10 15 0 1 0 0 0 0 0 0 0 0 0 0 0 0 0 0 0 0 0 0 0 0 0 0
53 122 47 36 21 28 245 67 92 96 81 65 29 28 15 24 40 38 13 4 7 0 0 0 0 0 0 0 0 0 0 0 0 0 0 0 0 0 0 0 0 0 0 0
2 3 1 0 0 0 1 5 17 23 84 41 72 18 10 0 3 13 0 0 0 0 0 0 0 0 0 0 0 0 0 0 0 0 0 0 0 0 0 0 0 0 0 0
0 0 2 5 5 12 18 24 19 14 34 32 32 54 58 51 24 14 18 20 0 0 2 0 0 35 15 0 0 0 0 0 0 0 0 0 0 0 0 0 0 0 0 0
0 2 2 23 50 30 14 1 0 0 6 7 27 74 82 59 27 17 6 0 0 0 6 0 1 15 12 0 0 0 0 0 0 0 0 0 0 0 0 0 0 0 0 0
17 23 28 28 0 0 0 0 0 0 2 1 2 51 194 113 19 0 4 0 5 10 0 0 16 33 0 0 0 15 8 0 0 0 0 0 0 0 0 0 0 0 0 0
9 27 16 0 0 0 0 0 3 0 0 14 30 37 92 28 4 10 21 17 6 1 3 7 0 2 3 9 15 27 16 2 0 0 0 0 0 0 0 0 0 0 0 0
0 1 0 0 0 0 0 0 23 21 0 0 2 6 0 29 41 43 27 25 10 26 18 28 20 35 27 16 8 10 20 0 0 0 0 0 0 0 0 0 0 0 0 0

GFSNGP_con_mucape_084.txt.gz
CAPE
26 0 0 0 0 0 0 15 13 0 0 2 18 34 15 4 0 18 71 58 133 256 158 137 113 108 126 150 35 27 50 49 34 101 162 267 397 431 560 851 1102 965 873 881
0 2 0 0 0 8 33 197 24 0 0 0 0 0 0 7 0 10 50 94 100 154 183 131 106 177 90 64 56 12 77 118 52 79 85 58 53 116 136 243 700 1198 1298 1367
0 0 0 2 0 11 169 278 24 28 0 0 0 2 0 0 5 9 30 59 165 118 163 311 238 78 68 76 95 82 108 100 74 54 33 35 69 76 67 52 295 817 1213 1297
0 0 16 1 0 15 83 168 153 50 1 2 0 6 0 2 3 56 56 64 64 177 168 289 412 219 223 154 109 102 156 211 116 111 111 61 86 103 104 59 227 560 816 1162
0 0 0 0 0 0 0 39 72 62 36 29 0 0 0 0 0 9 9 33 33 44 30 43 76 41 30 47 73 108 104 96 58 88 50 37 9 93 90 132 172 246 510 641
0 0 0 0 0 1 0 0 33 1 0 0 0 0 0 0 0 0 0 0 1 0 0 0 0 0 11 12 9 22 36 36 66 128 83 95 96 135 115 144 118 95 95 331
0 0 0 0 0 0 0 0 63 37 9 7 0 0 0 0 0 0 0 0 0 0 0 0 0 0 0 0 0 0 0 4 32 3 31 77 81 74 139 111 86 79 75 76
0 0 0 0 0 0 0 0 36 96 25 13 17 2 7 4 0 0 0 0 0 0 0 0 0 0 0 0 0 0 0 0 0 0 0 0 4 25 34 74 74 37 60 86
0 0 0 0 0 0 0 1 40 54 81 73 54 23 5 0 0 0 0 0 0 0 0 0 0 0 0 0 0 0 0 0 0 0 0 0 0 0 0 0 2 12 34 49
0 0 0 0 0 0 0 5 0 22 29 23 18 0 0 0 0 0 0 0 0 0 0 0 0 0 0 0 0 0 0 0 0 0 0 0 0 0 0 0 0 0 0 0
0 0 0 0 0 0 2 21 20 4 0 0 0 0 0 0 0 0 0 0 0 0 0 0 0 0 0 0 0 0 0 0 0 0 0 0 0 0 0 0 0 0 0 0
0 0 0 0 0 0 0 1 0 0 0 0 0 0 0 0 0 0 0 0 0 0 0 0 0 0 0 0 0 0 0 0 0 0 0 0 0 0 0 0 0 0 0 0
0 0 0 0 10 4 0 0 0 0 0 0 0 0 0 0 0 0 0 0 0 0 0 0 0 0 0 0 0 0 0 0 0 0 0 0 0 0 0 0 0 0 0 0
0 0 0 0 1 32 25 7 0 4 0 0 0 0 0 0 0 0 0 0 0 0 0 0 0 0 0 0 0 0 0 0 0 0 0 0 0 0 0 0 0 0 0 0
0 0 0 0 0 18 17 15 31 7 13 9 0 0 0 0 0 0 0 0 0 0 0 0 0 0 0 0 0 0 0 0 0 0 0 0 0 0 0 0 0 0 0 0
0 4 6 2 0 5 1 0 63 51 43 25 1 0 0 0 0 0 0 0 0 0 0 0 0 0 0 0 0 0 0 0 0 0 0 0 0 0 0 0 0 0 0 0
8 0 0 0 7 11 2 21 33 66 23 29 4 2 0 0 0 0 2 5 2 0 0 0 0 0 0 0 0 0 0 0 0 0 0 0 0 0 0 0 0 0 0 0
0 1 0 7 13 18 7 3 8 8 14 0 2 4 22 3 0 0 0 0 0 0 0 0 0 0 0 0 0 0 0 0 0 0 0 0 0 0 0 0 0 0 0 0
2 11 18 27 43 27 19 15 0 2 4 3 0 22 22 22 7 11 19 4 1 0 0 0 0 0 0 0 0 0 0 0 0 0 0 0 0 0 0 0 0 0 0 0
6 9 21 30 65 77 54 2 3 0 0 0 28 23 25 12 14 19 1 4 0 0 3 0 0 0 0 0 0 0 0 0 0 0 0 0 0 0 0 0 0 0 0 0
1 6 4 13 59 126 124 85 61 54 42 57 45 28 6 3 38 46 2 3 13 2 5 3 4 0 0 0 0 0 0 0 0 0 0 0 0 0 0 0 0 0 0 0
16 10 6 10 13 23 17 9 5 2 0 56 78 53 37 5 1 2 36 11 2 0 0 0 0 0 0 0 0 0 0 0 0 0 0 0 0 0 0 0 0 0 0 0
2 1 1 5 7 10 13 13 10 9 9 5 26 54 50 62 64 22 0 0 2 4 0 0 0 0 14 0 0 0 0 0 0 0 0 0 0 0 0 0 0 0 0 0
0 0 0 0 0 0 0 0 0 0 0 0 0 0 18 47 50 80 44 20 25 6 1 0 0 12 29 0 0 0 0 0 0 0 0 0 0 0 0 0 0 0 0 0
0 0 0 0 0 0 0 0 0 0 0 0 0 2 0 113 39 40 83 82 40 22 6 23 17 47 8 0 0 0 0 0 0 0 0 0 0 0 0 0 0 0 0 0
0 0 0 0 0 0 0 0 0 0 0 0 4 39 64 187 134 65 54 51 18 41 68 69 28 9 1 5 0 0 0 0 0 1 0 0 0 0 0 0 0 0 0 0
0 0 0 0 0 0 0 0 0 0 0 0 1 11 14 18 42 33 28 49 86 90 68 49 23 18 13 3 2 4 10 0 0 0 0 0 0 0 0 0 0 0 0 0

GFSNGP_con_mucape_087.txt.gz
CAPE
42 56 14 0 0 0 0 0 0 0 0 18 47 72 50 69 38 70 35 104 197 135 231 231 185 240 185 160 93 78 70 63 32 82 68 53 119 135 255 415 472 677 938 893
0 15 23 24 0 0 12 0 0 0 0 6 3 23 24 64 38 24 53 20 34 193 175 238 180 144 103 97 34 0 38 40 0 14 58 35 39 51 71 112 124 249 570 973
0 0 5 21 0 0 55 77 0 0 0 0 9 46 34 36 15 34 11 24 46 177 162 175 212 190 144 230 67 33 19 42 52 62 47 58 31 32 52 23 40 39 205 553
0 0 0 0 0 0 0 20 14 0 0 0 6 0 19 7 3 3 33 10 108 118 63 164 147 258 166 214 119 73 66 63 42 60 45 76 47 29 45 24 16 8 40 152
0 0 0 0 0 0 0 0 18 7 45 31 26 17 0 5 8 56 97 22 36 80 96 192 378 238 208 162 274 243 136 143 168 102 71 103 76 80 47 33 23 11 20 62
0 0 0 0 0 0 0 0 53 68 85 37 65 28 4 12 30 58 107 117 111 82 67 60 72 65 72 29 5 9 1 41 113 90 115 125 90 8 0 1 43 73 58 51
0 0 0 0 0 0 0 0 89 137 104 71 43 48 2 0 0 0 0 0 0 0 0 0 0 0 0 0 0 0 0 1 20 33 98 159 71 72 34 32 30 92 108 76
0 0 0 0 0 0 0 0 6 88 35 52 51 46 34 7 0 0 0 0 0 0 0 0 0 0 0 0 0 0 0 0 0 0 4 0 14 123 115 68 54 82 107 106
0 0 0 0 0 0 0 0 0 21 106 119 94 66 62 73 28 6 0 0 0 0 0 0 0 0 0 0 0 0 0 0 0 0 0 0 0 0 0 1 6 12 21 51
0 0 0 0 0 0 0 0 0 31 59 112 101 54 66 52 14 16 0 0 0 0 0 0 0 0 0 0 0 0 0 0 0 0 0 0 0 0 0 0 0 0 0 0
0 0 0 0 0 0 0 0 0 0 6 15 29 29 20 11 0 0 0 0 0 0 0 0 0 0 0 0 0 0 0 0 0 0 0 0 0 0 0 0 0 0 0 0
0 0 0 0 0 0 0 0 0 0 0 0 2 1 0 0 0 0 0 0 0 0 0 0 0 0 0 0 0 0 0 0 0 0 0 0 0 0 0 0 0 0 0 0
0 0 0 0 0 0 0 0 0 0 0 0 0 0 0 0 0 0 0 0 0 0 0 0 0 0 0 0 0 0 0 0 0 0 0 0 0 0 0 0 0 0 0 0
0 0 0 0 0 0 5 9 7 2 1 2 0 0 0 0 0 0 0 0 0 0 0 0 0 0 0 0 0 0 0 0 0 0 0 0 0 0 0 0 0 0 0 0
0 0 0 0 0 0 0 0 0 3 9 14 5 6 1 0 0 0 0 0 0 0 0 0 0 0 0 0 0 0 0 0 0 0 0 0 0 0 0 0 0 0 0 0
0 0 0 0 0 0 0 0 0 0 0 14 38 37 18 20 5 0 0 0 0 0 0 0 0 0 0 0 0 0 0 0 0 0 0 0 0 0 0 0 0 0 0 0
0 0 0 0 0 0 0 0 0 0 0 40 13 22 14 16 16 1 0 0 0 0 0 0 0 0 0 0 0 0 0 0 0 0 0 0 0 0 0 0 0 0 0 0
0 0 0 0 0 0 0 0 0 0 1 26 41 0 22 5 4 0 5 0 0 2 0 1 0 0 0 0 0 0 0 0 0 0 0 0 0 0 0 0 0 0 0 0
0 0 0 0 2 16 21 20 16 7 2 7 22 46 8 0 5 14 17 19 21 18 12 8 11 0 0 0 0 0 0 0 0 0 0 0 0 0 0 0 0 0 0 0
0 0 7 16 16 36 44 48 23 4 2 0 8 16 7 0 0 16 4 3 6 22 20 26 6 4 3 0 0 0 0 0 0 0 0 0 0 0 0 0 0 0 0 0
0 11 18 8 7 34 59 58 58 52 53 29 20 19 13 2 0 0 18 31 21 3 6 14 5 3 17 12 4 0 0 0 0 0 0 0 0 0 0 0 0 0 0 0
5 14 4 0 2 20 16 19 16 18 20 14 15 50 54 46 55 37 9 9 14 3 30 6 2 0 2 6 5 0 0 0 0 0 0 0 0 0 0 0 0 0 0 0
0 0 0 0 0 0 1 0 0 0 0 0 0 1 17 39 49 32 9 36 26 22 4 21 11 1 0 0 0 0 0 0 0 0 0 0 0 0 0 0 0 0 0 0
0 0 0 0 0 0 0 0 0 0 0 0 0 0 0 24 59 34 31 44 30 46 39 36 29 5 0 0 0 0 0 0 0 0 0 0 0 0 0 0 0 0 0 0
0 0 0 0 0 0 0 0 0 0 0 0 0 1 0 0 14 31 28 61 36 49 40 20 4 7 0 34 12 0 1 0 0 0 0 0 0 3 1 0 0 0 0 0
0 0 0 0 0 0 0 0 0 0 2 2 29 14 30 20 13 52 56 110 96 74 22 44 38 39 44 32 9 8 8 0 0 0 0 0 0 0 0 0 0 0 0 0
0 0 0 0 0 0 0 0 0 0 0 3 1 12 26 33 15 19 10 22 29 43 40 45 60 72 61 32 20 17 17 2 0 0 2 0 5 0 0 0 0 0 0 0

GFSNGP_con_mucape_093.txt.gz
CAPE
0 0 0 0 21 38 0 0 0 1 21 86 147 349 417 446 392 320 247 234 186 234 251 331 403 274 226 201 181 152 119 110 74 72 189 242 283 229 224 375 652 1120 1509 1411
8 4 0 0 3 156 78 32 23 23 34 0 44 310 320 281 246 174 131 136 195 405 428 624 689 260 315 325 249 181 173 103 78 67 70 34 103 133 123 134 181 257 624 795
7 7 22 21 0 0 0 27 40 39 27 0 47 267 348 305 275 244 179 126 118 266 603 322 538 361 177 203 176 147 121 65 103 47 41 33 51 26 31 11 28 64 52 94
0 28 6 0 0 0 0 3 3 0 0 2 179 266 177 130 134 175 169 109 122 130 274 461 479 521 311 119 156 159 69 5 43 35 11 29 54 6 33 60 29 11 1 17
5 1 0 0 0 0 0 0 5 2 26 53 148 149 126 136 109 59 30 41 82 105 246 246 213 246 312 238 171 100 65 45 43 13 12 5 5 0 24 51 47 46 24 26
0 0 0 0 0 0 0 0 11 24 71 110 140 186 152 144 83 15 16 0 13 61 113 92 151 186 163 174 179 250 162 94 113 93 80 58 62 10 1 3 5 6 0 0
0 0 0 0 0 0 0 0 0 53 73 101 124 114 95 75 36 36 33 13 51 47 76 86 112 78 128 112 169 230 208 154 89 67 47 171 44 12 2 14 57 8 4 0
0 0 0 0 0 0 0 0 0 8 42 73 61 80 61 79 66 86 71 62 66 69 39 29 15 29 64 53 42 40 50 30 11 0 14 103 160 49 33 66 141 59 32 0
0 0 0 0 0 0 0 0 0 0 21 45 57 73 29 58 66 80 54 7 0 0 0 0 0 0 0 0 0 0 0 0 0 0 0 0 1 15 70 106 59 69 125 8
1 0 0 0 0 0 0 0 0 0 0 0 81 92 69 60 34 0 0 0 0 0 0 0 0 0 0 0 0 0 0 0 0 0 0 0 0 0 0 0 0 0 0 5
0 0 0 0 0 0 0 0 0 0 0 1 17 57 74 54 46 45 22 18 0 0 0 0 0 0 0 0 0 0 0 0 0 0 0 0 0 0 0 0 0 0 0 0
9 0 2 0 0 0 0 0 0 0 0 0 0 6 7 73 114 63 43 28 19 0 0 0 0 0 0 0 0 0 0 0 0 0 0 0 0 0 0 0 0 0 0 0
0 0 0 0 0 0 0 0 0 0 0 0 0 0 0 0 0 0 0 0 0 0 0 0 0 0 0 0 0 0 0 0 0 0 0 0 0 0 0 0 0 0 0 0
0 0 0 0 0 0 0 0 0 0 0 0 0 0 0 0 0 0 0 0 0 0 0 0 0 0 0 0 0 0 0 0 0 0 0 0 0 0 0 0 0 0 0 0
0 0 0 0 0 0 0 0 0 0 0 0 0 0 0 0 0 0 0 0 0 0 0 0 0 0 0 0 0 0 0 0 0 0 0 0 0 0 0 0 0 0 0 0
0 0 0 0 0 0 0 0 0 0 0 0 0 0 0 0 0 1 12 20 11 2 0 0 0 0 0 0 0 0 0 0 0 0 0 0 0 0 0 0 0 0 0 0
0 0 0 0 0 0 0 0 0 0 0 0 0 0 0 0 0 6 3 0 9 8 0 0 0 0 0 0 0 0 0 0 0 0 0 0 0 0 0 0 0 0 0 0
0 0 0 0 0 0 0 0 2 10 19 11 8 2 0 0 0 0 5 9 15 15 4 2 0 0 0 0 0 0 0 0 0 0 0 0 0 0 0 0 0 0 0 0
0 3 4 9 9 10 6 16 22 23 25 30 43 45 43 18 0 0 0 6 19 15 16 2 8 0 0 0 0 0 0 0 0 0 0 0 0 0 0 0 0 0 0 0
0 2 8 7 4 15 32 35 34 29 23 30 62 77 137 154 132 45 0 0 1 21 27 0 0 13 20 16 21 3 0 0 0 0 0 0 0 0 0 0 0 0 0 0
5 5 0 0 0 0 0 0 0 0 0 0 4 33 77 166 208 236 85 13 1 0 1 4 0 6 18 12 24 18 1 0 0 0 0 0 0 0 0 0 0 0 0 0
3 2 1 0 0 0 0 0 0 0 0 0 0 0 0 0 16 51 191 260 14 0 0 0 0 6 3 14 1 14 12 2 0 0 0 0 0 0 0 0 0 0 0 0
0 0 0 0 0 0 0 0 0 0 0 1 4 7 9 10 13 9 7 245 201 20 18 0 0 0 0 0 0 1 0 0 0 0 0 0 0 0 0 0 0 0 0 0
0 0 0 0 0 0 0 0 0 0 1 12 14 23 23 4 4 26 11 3 28 59 177 174 37 34 63 5 0 0 0 0 0 0 0 0 0 0 0 0 0 0 0 0
0 0 0 0 0 0 0 0 0 0 0 6 10 32 37 5 2 20 56 69 34 52 181 50 10 44 46 8 15 5 0 0 0 0 0 0 0 0 12 5 3 0 0 0
0 0 0 0 0 0 0 0 6 22 12 2 18 42 51 77 30 33 109 102 217 130 170 87 52 43 0 1 12 14 0 0 0 0 41 54 57 58 41 22 8 0 0 0
0 0 0 0 0 0 0 0 12 33 19 41 115 113 99 55 53 177 129 349 240 264 77 88 71 36 24 15 0 0 31 76 44 107 94 62 70 79 69 48 19 7 5 1

GFSNGP_con_mucape_096.txt.gz
CAPE
55 14 3 5 0 0 0 3 46 79 81 527 881 862 605 677 686 627 551 484 430 371 320 314 375 1034 1005 758 653 735 312 119 167 204 253 370 769 875 991 1129 1246 1485 1724 1889
76 44 23 100 120 37 6 0 18 47 74 157 804 828 654 563 527 455 384 347 304 282 306 292 349 454 437 711 521 750 325 246 141 288 173 153 264 439 521 578 650 1050 1254 1542
106 43 104 90 58 62 83 99 138 57 406 361 539 490 499 455 388 320 226 167 145 170 279 467 306 382 546 447 251 228 196 118 76 56 81 83 33 46 102 220 268 256 428 796
113 90 90 90 13 22 55 60 90 158 197 313 405 425 438 444 421 325 252 177 135 174 253 481 561 525 327 268 502 337 192 96 111 143 64 21 5 17 39 51 147 154 190 178
164 170 94 12 0 0 5 57 55 197 243 378 429 270 354 299 207 165 132 113 139 143 277 311 433 452 406 352 489 411 226 132 20 21 9 54 32 48 47 52 42 69 99 79
5 121 127 37 0 0 0 49 45 163 252 247 235 604 431 95 94 64 33 13 4 96 172 166 196 276 302 335 247 194 346 246 63 33 34 5 2 5 7 21 40 36 20 28
87 23 10 0 0 0 38 63 15 182 283 252 358 172 113 115 109 27 12 0 0 14 30 170 210 202 152 85 243 108 196 125 99 84 89 74 78 94 38 0 0 0 10 8
22 25 1 0 0 6 18 0 13 149 263 237 85 29 46 113 70 22 31 10 12 14 30 47 21 76 142 168 89 120 211 221 181 145 79 39 23 146 104 23 0 0 5 4
2 58 43 26 1 0 0 0 0 69 155 204 88 53 32 53 47 48 52 63 64 78 36 41 20 8 15 6 9 10 26 41 44 7 19 3 3 43 230 135 59 0 0 1
21 13 13 24 0 0 0 0 0 5 146 176 129 67 45 29 62 66 77 105 88 6 0 0 0 0 0 0 0 0 0 0 0 0 0 0 0 0 0 3 15 11 3 0
11 1 54 42 23 0 0 0 0 1 75 158 173 119 92 62 45 40 4 0 0 0 0 0 0 0 0 0 0 0 0 0 0 0 0 0 0 0 0 0 0 0 0 0
0 0 0 0 0 10 0 0 0 0 3 52 131 159 133 122 77 34 44 7 0 2 4 1 0 0 0 0 0 0 0 0 0 0 0 0 0 0 0 0 0 0 0 0
0 0 0 12 0 0 0 0 0 0 2 25 12 55 149 226 130 44 39 81 92 83 48 0 0 0 0 0 0 0 0 0 0 0 0 0 0 0 0 0 0 0 0 0
0 0 0 0 0 0 0 0 0 0 0 0 0 18 32 125 192 70 41 24 0 0 0 0 0 0 0 0 0 0 0 0 0 0 0 0 0 0 0 0 0 0 0 0
0 0 1 2 0 0 0 0 0 0 0 0 0 0 0 4 94 171 180 94 22 10 0 0 0 0 0 0 0 0 0 0 0 0 0 0 0 0 0 0 0 0 0 0
0 0 0 1 3 0 0 0 0 0 0 0 0 0 0 0 11 60 105 141 115 41 29 8 0 0 0 0 0 0 0 0 0 0 0 0 0 0 0 0 0 0 0 0
0 0 0 1 1 0 0 0 0 0 0 0 1 0 0 0 0 44 59 72 148 144 112 46 16 0 0 0 0 0 0 0 0 0 0 0 0 0 0 0 0 0 0 0
0 2 7 18 7 0 0 0 0 1 5 10 10 2 7 11 25 52 64 66 92 91 109 124 36 13 0 0 0 0 0 0 0 0 0 0 0 0 0 0 0 0 0 0
0 4 6 2 2 6 1 7 9 8 27 38 54 50 40 38 56 71 77 109 133 132 69 88 43 27 15 0 0 0 0 0 0 0 0 0 0 0 0 0 0 0 0 0
0 21 30 50 70 86 148 77 56 47 51 48 66 75 75 64 72 69 74 160 160 154 46 76 24 5 14 0 12 0 1 0 0 0 0 0 0 0 0 0 0 0 0 0
65 117 153 139 32 1 0 0 0 0 0 0 0 5 11 14 57 87 103 100 154 241 110 1 11 26 47 5 8 0 5 4 2 0 0 0 0 0 0 0 0 0 0 0
51 22 6 3 1 0 0 0 0 0 0 0 3 5 8 5 6 7 19 165 217 45 171 124 109 8 2 7 6 2 14 5 0 0 0 0 0 0 0 0 0 0 0 0
0 1 0 0 0 0 0 0 0 1 6 13 14 14 16 11 20 15 11 35 92 141 196 184 84 0 9 0 6 2 4 8 4 1 1 0 1 0 0 0 0 0 0 0
0 0 0 0 0 0 2 0 2 4 9 12 22 12 44 16 11 9 27 27 1 27 317 250 113 0 6 4 0 0 1 4 5 0 0 0 0 0 0 0 0 0 8 21
0 1 0 0 1 6 2 1 6 10 17 31 33 41 65 64 6 25 51 98 23 31 381 227 134 106 77 20 20 0 0 0 0 0 0 0 0 0 0 0 6 46 48 41
4 13 9 0 6 3 5 7 20 15 25 33 48 59 84 83 160 146 260 151 253 169 373 323 338 272 173 22 11 4 2 4 0 0 0 0 40 0 0 40 49 59 58 46
13 2 1 3 4 5 6 8 22 39 29 33 40 42 35 64 82 393 191 359 295 446 300 158 66 26 3 5 12 5 0 0 0 0 0 129 148 111 98 86 67 68 67 41

GFSNGP_con_mucape_102.txt.gz
CAPE
22 1 17 6 0 0 1 0 29 141 610 479 702 1213 1047 736 733 840 850 865 970 917 993 1460 1645 1496 1406 1081 797 349 389 447 419 419 67 121 286 244 635 416 722 1035 1312 1581
53 14 21 15 12 0 0 1 22 102 740 495 592 531 746 590 471 519 497 472 481 547 552 795 974 1386 1201 1062 948 931 925 677 717 790 664 560 315 275 172 170 445 600 472 898
300 231 125 49 122 94 11 0 14 818 671 199 4 56 1131 798 691 730 529 421 381 360 350 361 563 960 1474 1475 1365 1355 1392 1235 985 707 1026 626 512 429 371 202 161 203 520 413
177 57 112 75 39 38 173 61 868 730 359 424 478 1196 1153 1037 832 616 528 379 340 352 278 308 307 300 590 1075 804 697 655 687 492 577 359 239 212 119 71 154 110 171 250 193
87 16 2 137 57 69 224 284 247 347 361 660 894 1099 1104 1006 875 527 465 313 222 175 210 285 294 341 431 551 662 481 468 366 286 207 124 34 49 198 131 127 22 204 238 96
140 146 91 98 12 0 24 43 106 39 455 606 685 803 1050 680 558 451 279 429 198 153 221 244 343 371 341 442 537 563 543 395 461 257 135 151 147 29 11 135 368 5 76 74
0 26 12 8 6 25 27 90 59 285 511 854 1074 1042 799 487 395 350 301 104 54 220 343 326 263 474 549 458 381 224 471 501 473 340 288 150 106 56 9 0 170 39 2 27
485 176 160 23 18 48 468 117 292 499 688 672 578 938 748 403 274 184 83 21 0 58 93 155 461 301 255 231 291 274 342 521 322 219 472 363 269 36 41 26 29 18 30 3
421 547 446 296 655 456 301 214 164 296 277 511 405 561 617 370 320 115 23 8 0 3 143 138 152 179 128 117 183 99 49 371 225 271 108 163 99 113 56 29 49 130 114 43
261 568 158 17 63 53 34 11 9 64 134 194 332 379 519 458 279 211 94 0 1 0 0 0 29 79 40 68 232 221 130 107 99 26 55 51 174 60 96 115 65 6 1 16
107 238 82 18 0 6 1 0 0 0 31 167 261 371 517 573 582 320 196 95 28 20 29 45 39 6 73 102 47 50 43 40 11 0 0 0 0 0 0 0 0 0 0 0
62 432 805 97 103 31 1 0 0 0 0 64 152 239 410 686 552 276 259 179 195 151 48 46 58 53 23 0 0 0 0 0 0 0 0 0 0 0 0 0 0 0 0 0
121 129 145 88 133 94 16 1 4 0 6 0 57 123 153 726 686 293 393 369 372 306 231 56 11 0 0 0 0 0 0 0 0 0 0 0 0 0 0 0 0 0 0 0
43 209 201 127 178 47 4 18 0 0 11 0 2 0 27 605 464 517 614 302 421 505 313 292 142 19 0 0 0 1 0 0 0 0 0 0 0 0 0 0 0 0 0 0
93 66 97 89 69 126 24 26 0 4 13 16 6 3 12 18 439 726 569 458 523 306 390 294 297 219 24 3 4 5 3 0 0 0 0 0 0 0 0 0 0 0 0 0
179 122 36 109 130 111 18 12 9 18 18 7 6 15 14 17 27 46 267 697 686 597 531 403 385 164 121 0 0 0 0 0 0 0 0 0 0 0 0 0 0 0 0 0
206 167 90 89 146 215 45 45 15 6 14 0 0 0 0 0 0 0 178 40 562 447 679 404 392 413 332 58 20 0 0 0 0 0 0 0 0 0 0 0 0 0 0 0
185 114 152 527 105 96 32 9 7 9 21 35 22 4 6 10 21 56 113 212 309 394 636 534 373 288 169 21 25 6 6 0 0 0 0 0 0 0 0 0 0 0 0 0
119 264 153 295 33 27 34 22 26 38 25 9 5 10 10 8 62 83 52 38 37 126 77 325 123 448 375 73 96 16 13 12 0 0 0 0 0 0 0 0 0 0 0 0
142 99 201 135 50 26 85 222 56 45 76 13 0 0 0 1 30 34 40 60 161 48 102 95 203 211 665 560 263 104 47 36 34 9 0 0 0 0 0 0 0 0 0 0
130 81 111 135 274 259 220 126 15 0 0 0 0 1 2 4 4 25 42 8 100 219 56 98 296 245 288 323 264 153 115 32 8 41 0 0 1 0 0 0 0 0 0 1
102 81 220 139 212 117 11 0 0 0 0 0 2 3 1 1 14 10 29 31 4 0 6 88 266 187 79 329 596 275 157 68 25 40 8 20 9 12 20 9 21 7 0 2
64 141 50 90 75 49 3 0 0 0 4 3 4 1 0 3 15 21 21 64 0 0 0 0 51 92 131 382 537 495 159 75 91 27 24 3 0 1 1 25 55 54 50 26
29 70 91 28 25 13 2 0 7 0 0 0 10 0 17 22 30 21 45 22 9 0 15 0 105 52 87 623 491 340 328 363 288 58 24 4 1 0 0 0 0 2 56 0
45 27 18 6 2 0 4 4 2 0 1 19 17 53 28 36 28 24 60 90 141 90 246 187 64 75 316 674 591 376 283 212 102 6 0 12 20 19 0 0 0 1 0 0
9 2 1 4 0 3 5 2 0 14 7 0 13 11 10 22 44 27 129 99 213 137 214 381 336 410 711 637 599 559 422 147 9 0 0 0 13 15 12 16 0 0 0 0
0 0 7 0 0 3 1 1 2 2 1 6 3 0 11 31 20 15 39 132 142 40 24 19 7 13 67 46 85 187 161 62 21 1 3 6 0 1 0 0 0 0 0 0

GFSNGP_con_mucape_105.txt.gz
CAPE
44 45 14 4 3 14 0 0 0 490 496 236 319 627 871 501 628 718 555 583 341 249 351 123 300 639 604 527 359 226 175 159 151 119 35 35 39 34 62 72 123 359 639 673
115 109 105 57 81 89 41 0 792 1094 782 625 764 695 380 207 255 321 844 803 681 554 495 404 828 503 633 700 556 407 367 335 396 246 106 111 151 58 27 23 3 161 120 236
178 155 121 193 32 94 212 257 304 695 522 632 436 205 48 257 245 440 405 394 715 387 674 907 942 987 1020 726 658 598 595 622 518 414 301 449 374 254 121 6 36 49 23 7
94 150 237 63 51 93 236 384 479 257 74 37 2 0 0 449 616 612 429 356 288 311 356 613 847 1045 1121 1005 823 848 968 771 525 404 562 206 100 41 10 43 33 42 21 1
61 36 64 106 36 23 36 70 271 525 513 431 324 683 708 839 673 417 369 295 300 337 386 348 355 489 944 1285 1111 900 844 779 453 346 242 160 111 86 33 26 36 61 66 68
34 43 24 34 64 17 5 74 138 238 278 498 612 432 543 761 622 335 280 212 170 167 288 386 362 444 606 671 624 592 647 596 494 363 245 145 87 32 13 4 25 54 24 8
134 100 23 29 19 27 104 111 41 249 117 83 47 295 443 574 448 423 280 82 117 216 238 256 348 636 371 526 492 420 631 539 459 343 255 145 120 65 32 18 0 0 4 0
30 26 0 35 4 8 76 88 112 497 235 387 171 446 630 456 430 246 99 20 148 188 241 239 216 252 377 390 382 386 193 429 393 448 384 270 202 203 47 9 1 0 0 0
69 1 1 57 198 274 135 17 73 57 399 371 438 423 432 315 197 103 8 0 45 59 68 83 122 86 128 86 85 70 131 247 347 253 112 65 101 67 84 92 87 57 22 5
233 148 236 273 74 70 59 13 0 7 36 316 552 469 335 262 134 174 35 0 0 0 30 70 62 0 38 16 39 13 48 42 38 20 47 69 68 21 24 47 117 15 14 8
438 272 68 49 18 0 1 0 0 0 0 103 289 591 499 302 145 103 36 15 0 0 0 0 0 2 19 32 34 24 19 33 21 15 19 14 7 12 0 1 2 6 3 0
212 331 126 48 31 12 0 0 0 0 0 13 26 533 316 170 83 50 26 7 4 0 0 0 0 0 0 0 0 0 5 1 0 0 0 0 0 0 0 0 0 0 0 0
383 168 74 122 137 8 0 0 0 0 0 0 11 408 347 242 159 83 51 34 30 7 0 0 0 0 0 0 0 0 0 0 0 0 0 0 0 0 0 0 0 0 0 0
180 131 46 62 35 16 16 1 0 5 0 4 0 20 324 232 201 168 139 139 137 157 31 1 0 0 0 0 0 0 0 0 0 0 0 0 0 0 0 0 0 0 0 0
49 79 162 49 44 12 8 5 0 0 2 1 0 0 112 290 322 245 352 303 203 134 65 25 27 5 0 0 5 3 2 3 6 1 0 0 0 0 0 0 0 0 0 0
163 137 68 113 186 28 8 0 0 9 9 8 0 0 0 0 0 11 101 110 186 89 118 81 37 25 11 0 0 0 0 0 0 0 0 0 0 0 0 0 0 0 0 0
196 137 91 135 100 47 22 2 0 3 7 3 0 0 0 0 0 0 0 7 10 25 111 136 79 77 88 60 75 33 0 0 0 0 0 0 0 0 0 0 0 0 0 0
332 122 345 82 31 44 22 16 20 23 12 0 0 0 0 0 0 0 0 0 0 4 11 21 4 52 131 84 45 44 65 2 0 0 0 0 0 0 0 0 0 0 0 0
215 144 121 33 6 13 7 15 42 5 0 0 0 0 0 0 0 0 0 0 0 0 0 0 5 29 78 174 125 73 36 44 0 4 9 6 2 0 0 0 0 0 0 0
359 281 41 23 3 7 10 11 1 13 5 0 0 0 0 0 0 0 0 0 0 0 0 0 0 0 28 269 385 175 131 69 68 12 0 7 4 4 0 0 0 0 0 0
98 65 71 11 5 11 28 15 10 0 0 0 0 0 0 0 0 0 0 0 0 0 0 0 0 0 30 109 120 183 152 140 93 42 20 16 4 1 0 0 0 0 0 0
25 11 29 16 17 17 15 6 2 0 0 0 0 0 0 0 0 1 7 10 2 0 0 0 0 0 8 243 134 145 116 162 117 119 66 15 3 0 0 0 0 0 0 0
0 0 9 9 8 6 2 0 0 0 0 0 0 0 0 0 3 6 1 3 0 0 0 0 0 0 11 20 105 133 113 133 124 153 123 40 0 3 10 0 1 5 4 9
0 0 2 7 4 4 1 0 0 0 0 0 0 0 0 2 0 0 0 10 14 0 0 0 0 0 0 1 59 87 231 143 171 123 53 47 24 13 16 12 0 1 11 3
0 1 0 2 3 0 0 0 0 0 0 1 3 15 10 10 3 0 13 24 43 3 21 72 51 11 27 48 62 117 174 104 93 32 27 0 18 47 9 23 0 0 0 0
0 0 0 0 0 0 0 0 0 0 2 2 5 12 1 3 7 35 30 31 34 0 0 0 0 0 127 83 99 133 155 135 40 0 1 1 0 0 3 15 21 30 0 0
0 0 0 0 0 0 0 0 0 0 0 0 0 0 0 0 14 11 22 49 34 0 0 0 0 0 0 0 0 11 72 49 43 15 3 1 5 0 2 1 9 6 21 6

GFSNGP_con_mucape_108.txt.gz
CAPE
37 33 99 80 39 42 38 0 0 0 28 73 232 846 596 592 635 489 139 82 131 132 112 145 126 421 170 418 404 465 382 300 315 288 248 213 219 199 128 88 133 135 415 524
117 41 110 55 57 136 111 143 692 424 284 324 675 842 544 581 682 577 576 337 157 131 155 100 154 117 316 416 409 437 238 186 142 131 102 108 99 71 21 41 42 135 156 259
110 7 59 72 21 147 241 260 314 412 273 759 899 841 517 456 662 618 615 503 280 262 233 363 203 183 27 176 348 292 331 280 312 211 196 207 253 221 147 69 74 62 36 38
9 1 99 29 28 136 230 315 479 466 640 738 446 247 291 484 472 733 953 870 600 482 363 312 210 440 206 132 332 331 305 354 433 418 437 332 239 158 68 98 125 48 6 4
0 13 54 58 36 52 81 82 220 339 347 321 327 431 613 705 622 528 284 306 491 612 746 679 530 616 714 556 476 646 634 641 511 495 414 303 209 137 30 106 99 29 12 1
0 1 16 14 40 20 17 33 64 222 387 361 592 332 818 666 301 203 163 70 101 162 251 641 577 817 988 985 871 887 889 755 671 585 576 316 194 132 67 91 111 85 42 24
16 0 0 0 25 23 26 13 207 175 234 315 179 392 540 208 203 233 146 114 116 163 524 380 297 407 445 616 736 743 857 845 674 490 503 493 233 143 125 113 108 64 22 10
0 0 0 0 4 0 9 208 227 95 76 75 65 40 52 121 152 87 41 68 203 236 201 274 398 378 388 452 464 415 473 432 714 432 508 304 282 140 97 100 41 7 13 12
59 92 110 100 129 17 80 653 257 632 425 114 0 17 97 156 70 28 16 133 168 204 186 275 216 316 436 314 308 348 316 220 274 431 515 476 309 114 156 127 122 68 39 19
76 69 164 102 122 72 34 47 7 166 523 543 342 266 214 143 82 69 3 2 48 116 133 95 94 59 64 89 89 70 71 107 163 206 160 116 159 146 58 50 52 23 42 37
99 98 205 64 53 51 47 11 0 17 268 396 402 283 167 108 113 40 4 0 0 0 0 11 21 12 26 27 36 47 28 25 54 70 30 9 9 0 0 0 0 0 6 6
91 110 8 0 0 0 0 0 0 0 17 468 474 356 257 213 127 58 4 0 0 0 0 0 0 0 0 0 0 0 3 3 3 5 7 1 0 0 0 0 0 0 0 0
213 72 27 11 1 0 0 0 0 0 0 158 385 344 290 250 183 121 49 8 5 1 0 0 0 0 0 0 0 0 0 0 0 0 0 0 0 0 0 0 0 0 0 0
31 34 40 3 3 4 1 0 0 0 0 1 306 296 307 302 288 189 122 95 47 12 2 0 0 0 0 0 0 0 0 0 0 0 0 0 0 0 0 0 0 0 0 0
13 8 17 12 1 0 0 0 0 0 0 30 138 202 247 238 140 94 102 141 142 119 100 64 49 14 0 0 0 0 0 0 0 0 0 0 0 0 0 0 0 0 0 0
31 23 34 22 7 2 0 0 0 0 0 0 0 0 0 10 60 50 71 72 119 80 101 63 69 53 30 16 16 8 0 0 0 0 0 0 0 0 0 0 0 0 0 0
112 66 16 27 4 1 3 6 2 0 0 1 0 0 0 1 4 5 6 5 3 0 0 24 31 56 30 57 33 30 50 36 24 0 0 0 0 0 0 0 0 0 0 0
182 90 39 33 5 3 8 12 1 3 0 1 0 0 0 0 0 0 0 0 0 3 1 2 3 2 3 27 52 45 35 54 59 45 1 0 0 0 0 0 0 0 0 0
136 95 42 7 21 35 40 23 6 0 1 5 3 0 0 0 0 0 0 0 0 0 0 0 0 0 0 0 37 79 78 67 65 75 32 14 6 0 1 0 0 0 0 0
122 50 6 16 11 11 4 2 0 0 0 2 0 0 0 0 0 0 0 0 0 0 0 0 0 0 0 0 3 25 105 115 94 67 72 65 24 6 12 9 4 1 0 0
132 51 59 19 0 0 0 0 0 0 0 0 0 0 0 0 0 0 0 0 0 0 0 0 0 0 0 0 0 17 89 115 90 86 70 45 42 29 12 5 12 2 0 0
36 21 11 3 0 0 1 0 0 0 2 0 0 0 0 0 0 0 0 0 0 0 0 0 0 0 0 0 0 0 61 74 93 100 71 69 87 73 19 2 0 8 0 0
45 35 35 1 0 0 1 8 9 3 3 0 0 0 0 0 0 0 0 0 0 0 0 0 0 0 0 0 0 0 22 49 75 98 84 83 82 41 36 0 2 0 1 0
0 0 0 0 0 0 0 0 0 0 0 0 0 0 0 0 0 0 0 0 1 0 0 0 0 0 0 0 0 0 0 26 56 172 118 54 83 81 54 34 14 0 0 0
0 0 0 0 0 0 0 0 0 0 0 0 0 0 0 0 0 0 0 0 5 0 0 0 0 0 0 0 0 0 20 45 110 173 92 17 0 62 49 77 35 18 12 14
0 0 0 0 0 0 0 0 0 0 0 0 0 0 0 0 0 0 0 3 7 1 0 0 0 0 0 0 0 0 7 115 117 47 16 6 0 0 0 20 56 31 26 8
5 0 0 0 0 0 0 0 0 0 0 0 0 0 0 0 0 0 4 9 13 0 0 0 0 0 0 0 0 0 0 0 9 29 31 13 1 0 0 0 2 1 4 14

GFSNGP_con_mucape_111.txt.gz
CAPE
21 90 97 133 168 84 17 3 0 0 0 1 210 404 183 110 85 34 39 83 104 142 156 153 93 73 44 76 131 168 324 184 177 257 273 193 152 208 166 194 105 155 401 451
77 43 35 71 123 136 86 157 210 346 269 517 794 730 634 485 296 80 46 43 65 106 104 108 114 140 78 146 210 227 160 213 197 185 228 159 153 136 100 67 30 96 116 201
104 21 12 0 14 74 179 369 254 369 169 861 910 931 809 854 676 397 190 171 160 164 132 135 126 228 369 270 210 228 205 130 144 143 196 183 148 129 96 63 60 78 98 79
35 32 0 1 3 64 113 225 322 392 827 477 544 533 545 621 513 442 341 361 201 188 221 214 225 143 104 98 163 176 281 187 202 143 178 304 333 284 206 162 118 77 57 56
1 2 18 27 0 2 25 55 205 343 338 728 666 599 718 508 361 320 383 450 528 254 244 258 194 94 85 117 48 111 257 308 261 294 373 379 298 235 189 171 137 79 54 30
9 0 5 0 10 26 38 50 203 446 650 678 498 324 396 250 119 35 9 38 95 153 352 357 280 188 131 175 45 61 37 144 393 462 433 298 289 228 161 189 158 109 65 38
1 0 0 0 23 45 35 42 240 457 504 419 327 305 175 150 101 23 0 0 46 318 156 332 395 447 461 481 416 300 295 339 401 524 429 496 341 148 97 120 156 168 108 58
0 0 0 0 0 0 30 225 202 365 383 295 174 167 111 28 3 1 6 23 167 296 258 447 467 457 456 346 323 332 343 404 411 473 404 412 254 250 162 184 127 143 127 34
3 0 35 39 42 155 295 233 179 186 211 148 55 123 69 13 9 0 44 83 48 113 156 347 382 276 249 203 322 392 347 399 312 385 471 425 386 336 241 145 139 60 39 20
10 17 153 118 67 187 358 227 452 236 36 0 79 163 31 27 0 0 0 6 18 23 3 65 93 59 67 161 169 194 158 234 268 274 350 456 346 291 142 117 130 94 70 78
43 109 59 99 80 70 126 265 380 404 384 451 359 375 137 14 6 0 0 0 0 0 0 1 1 3 19 25 17 25 27 47 84 152 187 147 112 51 148 195 31 13 23 2
26 135 50 7 0 0 4 87 238 391 614 680 614 389 121 48 5 0 0 0 0 0 0 0 0 0 0 0 0 0 0 0 0 2 15 18 26 10 0 0 0 0 0 0
56 167 28 0 0 0 0 0 0 144 446 558 626 427 234 141 95 25 2 0 0 0 0 0 0 0 0 0 0 0 0 0 0 0 0 0 0 0 0 0 0 0 0 0
83 133 47 37 5 0 0 0 0 20 455 640 495 407 306 213 92 37 15 5 0 0 0 0 0 0 0 0 0 0 0 0 0 0 0 0 0 0 0 0 0 0 0 0
55 64 48 27 16 5 0 0 0 59 194 255 279 221 199 249 147 121 84 72 74 41 46 35 16 12 4 0 0 0 0 0 0 0 0 0 0 0 0 0 0 0 0 0
23 25 23 20 22 16 4 0 2 84 109 174 181 75 34 0 0 9 35 53 80 78 79 80 61 28 12 4 8 6 0 0 0 0 0 0 0 0 0 0 0 0 0 0
28 36 38 38 38 39 19 0 0 0 0 0 0 5 16 24 25 16 1 0 0 0 0 7 10 10 8 0 0 12 13 13 23 10 0 0 0 0 0 0 0 0 0 0
18 25 48 28 28 17 3 2 6 8 1 2 0 0 4 2 0 0 0 0 0 0 0 0 0 0 0 0 0 0 1 10 15 19 26 27 26 21 0 0 0 0 0 0
144 129 50 8 6 12 20 29 24 23 11 9 14 19 14 1 0 0 0 0 0 0 0 0 0 0 0 0 0 0 0 0 0 11 15 26 31 14 10 8 0 0 0 0
121 65 32 2 10 22 25 28 32 18 15 12 15 23 9 0 0 0 0 0 0 0 0 0 0 0 0 0 0 0 0 0 5 15 27 34 42 57 47 58 26 13 1 8
147 99 30 9 9 8 8 12 10 13 16 11 0 0 0 0 0 0 0 0 0 0 0 0 0 0 0 0 0 0 0 0 1 27 31 28 32 33 44 38 63 46 26 27
161 40 32 23 10 0 0 0 2 3 5 0 0 0 0 0 0 0 0 0 0 0 0 0 0 0 0 0 0 0 0 0 0 9 16 27 32 30 41 42 43 94 40 11
226 234 54 5 0 0 0 0 2 1 1 2 0 0 0 0 0 0 0 0 0 0 0 0 0 0 0 0 0 0 0 0 0 0 1 6 22 51 60 48 44 28 19 6
174 40 6 7 7 0 0 0 0 1 3 3 0 0 0 0 0 0 0 0 0 0 0 0 0 0 0 0 0 0 0 0 0 0 5 24 43 34 70 52 104 129 38 3
60 43 25 2 0 0 0 0 1 0 0 0 0 0 0 0 0 0 0 0 0 0 0 0 0 0 0 0 0 0 0 0 0 2 27 23 1 0 6 98 134 52 15 31
0 0 0 0 1 3 4 5 0 0 0 0 0 0 0 0 0 0 0 0 0 0 0 0 0 0 0 0 0 0 0 0 0 0 2 1 0 0 0 0 0 39 49 33
2 4 4 4 5 2 1 0 0 0 0 0 0 0 0 0 0 0 0 0 0 0 0 0 0 0 0 0 0 0 0 0 0 0 0 0 0 0 11 1 0 0 1 7

GFSNGP_con_mucape_114.txt.gz
CAPE
39 206 159 137 247 241 3 24 0 9 171 394 361 426 113 133 183 186 99 96 120 168 163 103 159 241 283 329 319 333 372 406 353 195 200 172 146 70 98 115 121 109 196 247
122 77 105 12 106 204 338 305 110 263 413 953 1117 660 511 208 164 199 154 119 117 89 155 179 236 234 212 121 74 145 286 320 193 148 109 155 186 146 96 116 117 72 85 103
3 41 29 8 7 138 199 246 728 342 335 1004 947 923 467 513 225 131 200 158 167 156 178 139 161 168 114 93 124 113 100 126 135 157 125 126 131 131 110 87 73 78 38 13
49 16 4 0 1 3 63 118 501 446 854 860 1074 870 706 590 368 250 206 143 153 158 181 164 172 255 207 131 90 88 98 108 108 125 95 99 138 126 98 81 54 66 56 66
7 16 1 104 55 1 10 90 382 584 642 1365 917 367 227 291 293 336 388 374 236 153 230 252 201 177 137 153 117 102 88 123 132 117 102 118 125 96 151 146 143 131 80 52
3 0 0 35 0 0 9 88 407 416 798 1092 372 210 326 146 131 82 63 113 219 289 220 263 235 135 57 108 146 71 138 181 211 172 140 101 108 133 148 147 130 110 85 55
1 0 0 0 50 8 12 54 512 691 853 754 352 264 273 135 40 50 40 132 215 223 335 226 281 332 144 134 81 68 40 10 24 145 190 158 146 127 85 153 160 141 100 145
0 0 0 0 11 45 64 240 598 697 719 407 306 319 208 78 32 37 96 145 141 218 213 148 220 380 351 220 172 251 211 93 33 18 18 163 219 264 168 86 143 113 87 120
0 0 11 8 32 55 391 390 348 581 547 262 311 140 80 22 49 80 55 38 60 76 136 142 167 165 304 332 368 216 118 95 61 18 153 258 318 244 164 185 209 163 124 89
0 13 100 143 408 503 578 296 251 304 210 216 139 46 8 0 18 31 20 23 17 6 19 143 59 75 98 165 306 246 233 206 151 171 215 286 291 222 303 197 186 143 82 86
2 70 62 85 67 232 344 458 459 316 93 92 130 46 5 0 0 0 0 0 0 0 10 1 4 8 7 10 5 0 0 11 155 108 137 269 209 182 154 140 106 136 70 73
7 29 23 53 100 256 330 429 431 323 483 356 357 95 21 0 0 0 0 0 0 0 0 0 0 0 0 0 0 0 0 0 0 0 7 12 18 7 2 1 19 67 0 0
1 72 44 20 57 140 262 365 656 575 616 659 467 206 72 10 0 0 0 0 0 0 0 0 0 0 0 0 0 0 0 0 0 0 0 0 0 0 0 0 0 0 0 0
1 103 39 13 17 32 10 12 278 454 548 587 505 359 155 77 16 0 0 0 0 0 0 0 0 0 0 0 0 0 0 0 0 0 0 0 0 0 0 0 0 0 0 0
0 51 36 6 2 0 0 2 247 707 756 591 521 430 314 127 62 15 6 6 11 0 0 0 0 0 0 0 0 0 0 0 0 0 0 0 0 0 0 0 0 0 0 0
7 21 12 6 2 1 0 0 35 226 347 386 339 276 294 138 58 35 29 33 27 18 22 14 10 14 0 0 0 0 0 0 0 0 0 0 0 0 0 0 0 0 0 0
24 4 0 0 3 2 7 10 1 37 144 165 24 11 6 0 0 0 0 0 0 0 0 0 0 0 0 0 0 0 0 0 0 0 0 0 0 0 0 0 0 0 0 0
11 12 0 0 4 16 17 4 0 3 13 6 0 0 0 0 0 0 0 0 0 0 0 0 0 0 0 0 0 0 0 0 0 0 0 1 0 0 0 0 1 0 0 0
0 24 7 29 6 12 19 4 1 3 6 2 3 0 0 0 0 0 0 0 0 0 0 0 0 0 0 0 0 0 0 0 0 0 0 0 0 5 3 4 33 34 11 6
40 71 78 33 7 4 1 6 5 7 11 5 8 10 2 3 2 0 0 0 0 0 0 0 0 0 0 0 0 0 0 0 0 0 0 0 2 5 1 1 5 5 30 76
44 112 60 31 3 0 0 4 4 14 19 17 16 11 0 0 0 0 0 0 0 0 0 0 0 0 0 0 0 0 0 0 0 0 0 0 0 0 0 0 0 0 0 2
183 121 44 29 1 0 3 3 13 20 17 10 11 1 0 0 0 0 0 0 0 0 0 0 0 0 0 0 0 0 0 0 0 0 0 0 0 3 2 0 0 0 0 3
165 142 83 6 0 0 0 0 5 12 18 8 5 0 0 0 0 0 0 0 0 0 0 0 0 0 0 0 0 0 0 0 0 0 0 0 0 0 1 0 0 0 0 7
156 178 80 94 0 1 1 0 0 6 4 0 0 0 0 0 0 0 0 0 0 0 0 0 0 0 0 0 0 0 0 0 0 0 0 0 0 0 0 0 1 1 11 53
171 193 202 107 0 5 6 3 1 2 2 1 5 3 0 0 0 0 0 0 0 0 0 0 0 0 0 0 0 0 0 0 0 0 0 0 0 0 0 0 0 3 42 61
124 110 57 6 10 5 2 1 3 6 5 2 0 0 0 0 0 0 0 0 0 0 0 0 0 0 0 0 0 0 0 0 0 0 0 0 0 0 0 0 0 0 2 24
26 20 5 0 0 3 3 4 3 3 0 0 0 0 0 0 0 0 0 0 0 0 0 0 0 0 0 0 0 0 0 0 0 0 0 0 0 0 0 0 7 4 3 9

GFSNGP_con_mucape_117.txt.gz
CAPE
20 181 228 201 286 572 383 392 0 12 374 701 713 729 668 349 291 270 242 253 320 457 366 158 157 538 845 430 411 853 965 1074 1254 1566 1197 1236 761 731 410 420 453 495 546 701
271 263 131 258 74 495 714 756 735 577 682 633 737 1096 684 420 360 344 363 330 350 351 247 143 133 244 276 601 374 512 1057 1217 1294 974 595 781 595 615 483 306 191 459 275 48
218 202 125 85 72 54 530 673 713 782 745 654 783 830 721 565 454 473 378 386 394 299 130 96 51 76 105 193 274 365 613 659 517 244 430 208 189 305 360 141 73 187 80 53
352 277 65 57 116 194 280 350 687 847 643 819 905 653 577 527 386 338 244 228 240 273 172 117 165 166 115 95 140 124 64 94 134 164 67 93 112 134 133 100 76 79 46 43
336 273 66 217 164 110 101 189 462 840 766 960 874 605 466 572 434 317 283 226 202 177 191 175 164 442 308 297 228 222 107 178 96 81 77 89 52 46 102 126 70 60 55 58
114 126 38 156 98 47 23 217 328 1023 837 947 726 443 271 246 191 271 357 266 262 247 199 173 160 158 242 210 238 194 128 101 97 107 124 127 98 84 87 71 78 93 102 118
198 210 33 3 43 52 195 222 601 1095 824 1156 834 678 292 94 47 85 111 146 282 347 309 264 210 175 206 160 141 175 139 128 70 58 100 105 99 83 106 98 78 99 83 99
5 165 16 0 3 242 103 384 808 1123 791 638 262 179 98 63 102 166 148 132 177 234 232 264 291 298 313 225 182 207 137 89 39 24 29 30 75 77 56 82 89 120 123 124
174 134 0 0 11 15 49 752 716 954 608 253 211 119 52 76 118 103 64 129 179 169 222 351 264 346 344 293 272 215 142 81 86 87 12 50 17 66 93 101 162 144 121 139
52 84 56 39 54 187 480 613 815 852 667 449 243 133 136 107 100 62 39 14 29 25 44 11 137 126 211 290 303 264 202 134 58 52 41 0 42 83 112 150 172 212 217 163
107 95 207 243 286 424 460 747 550 562 602 509 285 156 75 75 50 2 0 0 4 4 6 15 13 15 14 26 13 33 104 92 57 62 46 53 80 131 154 179 191 164 136 126
4 450 535 487 135 356 978 1080 676 503 543 557 353 129 16 1 0 0 0 0 0 0 0 0 0 0 1 1 0 0 0 1 0 38 96 104 79 110 123 140 96 85 39 4
155 119 53 186 186 161 697 956 760 675 709 835 484 205 85 6 0 0 0 0 0 0 0 0 0 0 0 0 0 0 0 0 0 0 0 0 0 0 1 0 0 0 0 0
0 16 5 59 293 163 294 680 537 804 1093 1122 676 365 222 80 5 1 0 0 0 0 0 0 0 0 0 0 0 0 0 0 0 0 0 0 0 0 0 0 0 0 0 0
0 46 50 120 100 86 105 804 1034 978 1037 848 695 525 311 260 158 75 11 0 0 0 0 0 0 0 0 0 0 0 0 0 0 0 0 0 0 0 0 0 0 0 0 0
10 42 41 47 106 67 175 549 904 1012 977 821 710 507 208 123 96 31 38 21 58 27 9 0 0 0 0 0 0 0 0 0 0 0 0 0 0 0 0 0 0 0 0 0
1 0 0 16 65 62 123 275 548 743 614 671 469 482 269 88 23 17 0 0 0 0 0 0 0 0 0 0 0 0 0 0 0 0 0 0 0 0 0 0 0 0 0 0
151 76 4 52 44 78 92 157 284 440 362 192 263 307 72 3 0 0 0 0 0 0 0 0 0 0 0 0 0 0 0 0 0 0 0 0 0 1 0 0 0 0 0 0
11 40 13 42 25 70 97 110 95 187 70 32 3 0 0 0 0 0 0 0 0 0 0 0 0 0 0 0 0 0 0 0 0 0 0 0 1 1 1 0 0 1 0 0
0 2 0 20 12 30 67 40 2 1 7 4 0 2 0 0 0 0 0 0 0 0 0 0 0 0 0 0 0 0 0 0 0 0 0 0 4 13 18 3 1 4 4 2
9 0 13 51 56 0 17 0 0 2 5 5 1 0 0 0 0 0 0 0 0 0 0 0 0 0 0 0 0 0 0 0 0 0 2 5 4 6 11 14 12 10 11 12
38 13 29 58 60 1 0 0 2 5 0 7 9 6 4 1 0 0 0 0 0 0 0 0 0 0 0 0 0 0 0 0 0 0 0 2 3 4 10 16 19 21 24 33
27 36 41 118 33 10 0 0 0 5 11 15 13 9 5 1 0 0 0 0 0 0 0 0 0 0 0 0 0 1 1 1 2 4 8 10 11 8 6 15 13 14 26 71
48 100 189 102 47 21 0 0 0 3 4 9 17 11 5 0 0 0 0 0 0 0 0 0 0 0 0 0 0 0 0 0 1 0 0 0 0 0 1 15 42 38 57 62
140 178 159 127 23 10 0 0 0 0 0 4 4 0 0 0 0 0 0 0 0 0 0 0 0 0 0 0 0 0 0 0 0 0 0 0 0 1 13 0 0 44 25 71
148 154 183 145 119 49 0 0 0 0 0 0 1 0 0 0 0 0 0 0 0 0 0 0 0 0 0 0 0 0 0 0 0 0 0 0 0 0 7 3 0 44 70 70
99 117 137 158 108 2 4 4 0 0 0 0 0 0 0 0 0 0 0 0 0 0 0 0 0 0 0 0 0 0 0 0 0 0 0 0 0 0 3 10 13 0 12 28

GFSNGP_con_mucape_123.txt.gz
CAPE
0 0 0 0 31 1 62 192 130 69 80 260 0 487 973 810 864 818 517 451 297 240 119 466 971 1294 1306 2019 2119 1740 1651 1540 1993 2549 1958 1993 1680 2230 2234 1771 1512 1296 1172 1294
0 2 0 2 13 7 17 75 98 193 117 945 1449 1534 1574 1089 947 849 812 722 677 613 357 182 573 888 920 877 1954 2074 1907 1865 2537 3025 1952 1664 1858 1842 1919 1668 1484 1374 1680 1071
90 56 40 57 37 40 105 64 115 162 384 949 1380 1467 1082 1211 1263 794 859 745 654 1080 259 277 203 647 1018 1041 1122 1620 1705 1633 1524 1574 1784 1845 1620 2395 2157 2027 1845 1371 1132 745
29 39 80 79 1 29 70 68 7 29 278 1315 1484 902 888 772 800 561 550 784 374 587 866 372 193 245 379 346 488 894 1434 1364 1496 1508 1556 1634 1413 1475 1724 1628 1059 967 348 179
135 194 156 79 108 146 415 215 69 99 132 1698 1481 922 891 542 286 165 113 104 98 401 543 333 179 163 89 94 146 284 723 840 958 480 564 520 747 644 496 673 602 149 89 61
59 110 56 167 0 8 53 442 427 354 286 835 1521 1408 785 189 132 83 89 66 69 141 291 301 332 248 106 73 58 10 73 185 308 527 552 513 552 688 514 332 110 44 58 17
115 116 231 275 336 392 382 640 811 632 474 1713 1547 1080 421 187 101 117 122 89 167 201 163 287 310 321 336 234 166 134 165 153 100 86 50 60 87 72 62 43 3 21 15 19
230 237 296 346 353 217 905 764 586 1813 1883 1615 1246 941 490 351 241 143 104 115 183 207 178 165 198 330 287 174 197 163 134 135 129 70 46 19 54 31 25 13 15 34 26 41
267 302 600 571 325 642 646 974 1340 1932 1774 1554 1145 993 736 466 313 127 130 151 199 215 257 296 194 397 226 304 313 319 191 130 107 44 69 82 70 66 64 12 12 6 15 22
266 440 366 460 566 455 851 1450 1934 1918 1628 1251 1242 967 727 541 356 151 127 103 139 142 200 221 313 206 235 321 292 318 245 161 140 142 99 113 38 22 0 8 8 41 3 8
81 26 311 591 842 1166 1471 1509 1600 1701 1272 1153 1010 842 721 541 276 91 84 62 36 32 49 91 199 312 298 363 309 279 296 182 149 158 119 148 118 1 13 7 21 67 37 29
106 112 957 878 1162 1413 1539 1351 1222 1230 1120 1033 934 748 588 249 52 66 55 45 41 32 21 13 15 6 5 6 6 10 22 44 56 78 75 77 109 84 39 14 22 29 59 49
205 95 711 718 1059 1411 1391 1312 1063 1168 936 730 388 211 74 4 0 0 0 0 0 0 0 0 0 0 0 0 0 0 0 0 0 0 0 0 0 0 0 0 0 0 0 0
11 207 496 290 392 602 1100 1158 1174 1078 943 646 355 220 115 54 22 0 0 0 0 0 0 0 0 0 0 0 0 0 0 0 0 0 0 0 0 0 0 0 0 0 0 0
10 58 282 320 432 482 818 986 1249 1173 942 838 626 416 303 312 219 179 88 58 63 43 25 24 27 28 21 30 27 15 24 8 2 0 0 0 0 0 0 0 0 0 0 0
49 10 229 270 378 349 311 658 1201 1097 962 979 841 713 530 404 313 238 202 161 163 230 186 169 125 92 57 47 32 40 0 0 0 12 8 11 6 1 1 6 7 6 2 4
127 51 151 247 399 364 322 374 413 847 1100 866 981 1035 802 533 429 458 429 387 337 257 138 46 3 0 0 0 0 0 0 1 0 0 0 0 0 0 0 0 0 0 0 0
213 132 127 232 400 405 246 302 567 622 1130 1219 990 1110 847 708 591 572 517 301 19 0 0 1 0 0 0 0 0 0 0 0 0 0 0 0 0 0 0 0 0 0 0 0
206 111 125 122 211 361 238 340 471 661 840 1330 1417 1110 787 745 639 406 8 0 0 0 0 0 0 0 0 0 0 0 0 0 0 0 0 0 0 0 0 0 0 0 0 0
101 94 208 171 116 169 269 381 455 756 999 1113 1164 1063 817 634 307 23 7 0 1 0 0 0 0 0 0 0 0 0 0 0 0 0 0 0 0 0 0 0 0 0 0 0
100 142 272 322 209 146 287 425 554 880 910 837 912 939 737 363 46 20 5 0 0 0 0 0 0 0 0 0 0 0 0 0 0 0 0 0 0 0 0 0 0 0 0 4
199 269 263 468 359 327 363 486 631 777 786 824 830 759 432 127 51 3 0 0 0 0 0 0 0 0 0 0 0 0 0 0 0 0 0 0 0 0 0 0 0 0 0 6
267 362 395 527 529 630 613 651 788 870 857 1141 862 624 319 94 11 0 0 0 0 0 0 0 0 0 0 0 0 0 0 0 0 0 0 0 0 0 0 0 0 0 5 15
674 1064 718 669 669 758 868 929 880 1058 1333 1295 996 590 228 47 0 0 0 0 0 0 0 0 0 0 0 0 0 0 0 0 0 0 0 0 0 0 0 0 1 6 13 7
828 707 813 987 1109 868 1004 1001 897 1014 997 885 658 440 119 5 1 0 0 0 0 0 0 0 0 0 0 0 0 0 1 1 0 0 1 1 1 1 0 0 0 1 9 23
954 773 739 1242 811 840 968 916 847 870 804 678 501 259 42 3 4 0 0 0 0 0 0 0 0 0 0 0 0 0 0 0 0 3 0 2 2 1 3 4 5 4 7 17
1148 756 853 936 891 829 875 795 776 732 487 420 321 163 17 3 0 0 0 0 0 0 0 0 0 0 0 0 0 0 1 1 0 1 5 2 6 11 11 10 18 18 17 25

GFSNGP_con_mucape_129.txt.gz
CAPE
0 0 0 0 0 0 1 11 12 0 0 4 16 25 15 610 608 705 343 435 394 676 514 370 223 240 239 149 398 719 814 578 952 961 982 1055 1005 975 956 912 623 516 932 1124
0 0 0 0 0 0 0 0 0 0 14 131 0 13 2 534 233 747 551 382 222 339 259 272 398 285 168 34 43 7 601 787 947 824 931 1049 899 899 951 1157 1051 1242 1128 763
0 0 0 0 0 0 0 3 0 0 5 170 56 9 101 295 269 342 271 262 161 164 214 181 134 290 188 66 53 12 345 542 818 916 639 735 813 752 932 758 706 660 480 340
0 0 0 0 0 0 0 0 0 0 153 178 149 130 211 256 515 277 357 65 0 0 8 44 77 140 225 58 86 30 24 542 606 597 542 669 714 748 737 851 603 307 315 364
0 0 0 0 6 1 0 0 21 0 256 373 499 243 142 158 155 591 246 53 0 1 0 8 34 100 70 157 71 14 344 326 333 369 383 459 537 514 538 509 367 305 300 297
0 0 0 0 0 0 2 0 63 114 85 334 299 12 144 199 96 248 248 49 0 9 2 61 123 188 96 85 174 203 203 179 146 247 266 337 346 212 102 129 199 176 131 138
0 0 0 22 26 26 22 50 96 12 58 267 118 457 318 300 60 118 210 118 40 0 0 0 133 218 79 26 21 108 195 197 231 143 124 105 101 44 40 101 159 116 91 76
30 27 62 110 18 7 132 314 145 215 162 409 229 317 280 215 132 176 255 142 149 70 3 2 145 252 58 17 60 8 10 31 82 72 76 16 12 13 35 14 11 7 19 21
19 41 6 73 51 63 162 349 254 116 69 22 260 403 385 335 258 314 278 222 185 112 29 50 75 197 78 63 65 90 53 37 37 11 4 0 0 2 1 0 0 1 3 3
65 21 2 5 204 280 225 182 228 16 56 8 1 3 171 187 382 263 254 147 218 200 116 102 80 81 106 106 91 120 63 31 75 87 95 21 48 54 25 10 1 1 6 13
83 81 94 266 208 391 284 174 22 329 141 173 164 275 298 334 122 67 74 102 226 221 148 131 126 195 207 111 91 118 112 92 126 86 97 36 60 22 20 20 24 13 11 0
60 130 54 181 93 166 121 2 0 180 272 448 486 388 348 155 78 70 48 76 82 141 126 136 171 135 124 115 145 78 103 169 113 104 107 99 98 17 7 6 4 6 10 9
352 279 335 149 69 205 24 13 232 313 611 535 367 316 306 102 24 66 65 45 28 1 0 0 0 0 1 15 34 58 61 112 84 76 63 80 49 50 34 0 0 0 0 0
426 649 605 323 31 228 177 314 343 324 327 199 42 22 29 0 0 0 0 0 0 0 0 0 0 0 0 0 0 0 0 0 0 0 0 0 0 0 0 0 0 0 0 0
298 511 485 655 442 358 404 333 153 95 52 36 0 0 0 0 0 0 0 0 0 0 0 0 0 0 4 6 0 0 0 0 0 0 0 0 0 0 0 0 0 0 0 0
20 6 192 434 294 417 348 231 190 118 65 7 101 99 0 0 0 0 0 0 39 41 10 10 2 4 6 6 1 0 0 0 0 0 0 0 0 0 0 0 0 0 0 0
14 2 260 283 181 136 364 464 394 357 216 157 301 238 186 170 303 249 181 115 80 111 18 0 0 0 0 0 0 0 0 0 0 0 0 0 0 0 0 0 0 0 0 0
43 179 100 34 185 105 240 528 420 460 390 465 481 311 369 439 250 291 230 184 107 61 25 0 0 0 0 0 0 0 0 0 0 0 0 0 0 0 0 0 0 0 0 0
126 40 60 256 207 145 203 675 463 683 487 692 329 317 386 288 444 535 220 97 17 0 0 0 0 0 0 0 0 0 0 0 0 0 0 0 0 0 0 0 0 0 0 0
152 140 105 234 337 170 198 384 789 660 587 721 638 700 556 543 496 353 183 2 0 0 0 0 0 0 0 0 0 0 0 0 0 0 0 0 0 0 0 0 0 0 0 0
138 235 174 402 333 317 257 944 838 943 739 823 686 475 526 458 340 232 19 0 0 0 0 0 0 0 0 0 0 0 0 0 0 0 0 0 0 0 0 0 0 0 0 0
224 196 178 290 433 496 415 660 926 1006 961 803 885 703 635 468 239 150 3 0 0 0 0 0 0 0 0 0 0 0 0 0 0 0 0 0 0 0 0 0 0 0 0 0
253 364 185 304 449 383 541 662 1029 992 995 1061 748 627 463 429 195 39 78 0 0 0 0 0 0 0 0 0 0 0 0 0 0 0 0 0 0 0 0 0 0 0 0 0
547 568 352 388 575 351 465 648 692 937 1056 1063 770 601 478 371 172 25 18 0 0 0 0 0 0 0 0 0 0 0 0 0 0 0 0 0 0 0 0 0 0 0 0 0
928 914 1006 540 748 313 761 699 626 748 954 1088 736 592 479 262 130 26 0 0 0 0 0 0 0 0 0 0 0 0 0 0 0 0 0 0 0 0 0 0 0 0 0 0
1146 1044 847 1029 773 489 724 748 701 777 818 861 921 708 483 334 222 30 1 0 0 0 0 0 0 0 0 0 0 0 0 0 0 0 0 0 0 0 0 0 0 0 0 0
1058 943 894 1155 1071 769 653 724 791 709 788 813 855 711 493 350 264 51 10 0 0 0 0 0 0 0 0 0 0 0 0 0 0 0 0 0 0 0 0 0 0 0 0 0

GFSNGP_con_mucape_132.txt.gz
CAPE
0 0 0 0 0 0 0 0 0 0 1 0 13 95 567 655 616 694 435 520 366 447 506 538 410 224 327 390 673 597 649 660 639 543 476 526 585 722 834 742 659 952 918 1055
0 0 0 0 0 0 0 0 0 0 2 21 17 27 253 267 518 701 562 384 245 269 307 294 312 306 310 250 355 412 445 468 442 417 658 718 773 848 825 782 788 659 705 906
0 0 0 0 0 0 0 0 0 0 0 144 69 60 192 266 395 405 398 302 122 306 293 227 206 192 254 187 105 175 83 153 65 155 224 515 776 748 821 807 816 734 738 924
0 0 0 0 0 0 0 0 0 0 30 158 92 69 107 247 198 253 199 142 22 0 10 21 19 76 141 136 105 111 40 37 1 7 34 293 608 607 759 765 630 849 735 453
0 0 0 0 0 0 0 0 0 10 153 369 311 164 92 83 109 227 362 145 30 1 0 0 0 49 48 57 118 23 55 48 31 40 200 325 435 573 603 466 370 275 297 262
0 0 0 0 0 0 0 0 4 20 153 265 307 25 0 152 93 326 266 134 67 23 1 31 56 1 0 82 91 47 8 15 3 5 339 402 464 463 413 408 203 101 131 165
0 0 0 0 0 0 0 0 30 28 11 188 112 0 55 186 83 207 390 158 70 5 4 0 67 55 1 7 59 94 124 54 17 8 86 147 249 207 286 257 208 119 85 65
0 0 0 35 44 2 10 70 63 0 0 75 170 159 263 280 236 148 176 129 119 46 21 5 69 110 0 9 0 1 29 110 94 68 87 66 31 75 102 201 110 51 35 67
3 11 117 82 21 3 69 36 0 0 0 4 35 60 195 170 299 230 271 143 131 45 21 6 57 93 13 19 36 19 6 6 2 3 2 34 40 38 8 22 21 6 5 20
28 25 43 100 82 54 69 4 2 0 0 2 35 79 74 148 222 418 205 223 152 219 481 131 59 105 46 29 64 52 15 64 34 14 2 22 19 3 11 40 69 37 24 2
52 143 192 198 167 113 41 1 1 0 11 17 1 4 75 82 133 140 151 189 235 338 151 164 132 136 107 83 109 54 0 38 59 6 50 80 83 38 53 35 71 27 6 2
4 128 108 124 141 131 54 0 0 1 86 54 0 48 45 242 89 93 98 148 167 172 308 204 212 175 151 135 126 78 22 24 55 54 73 30 67 68 68 70 64 51 14 9
85 60 38 68 105 0 0 2 26 122 138 192 187 97 133 35 21 42 70 64 89 122 154 221 199 206 153 134 137 148 341 130 106 119 99 99 56 28 76 34 27 30 25 31
184 120 149 145 66 41 87 183 229 245 234 215 188 143 64 23 39 46 28 8 2 0 0 7 55 70 69 67 85 56 66 78 68 53 67 61 24 12 0 0 0 0 0 0
358 243 147 148 208 216 349 345 312 268 197 123 125 127 12 0 0 0 0 0 0 0 0 0 0 0 0 0 0 0 0 0 0 0 0 0 0 0 0 0 0 0 0 0
306 401 298 242 281 318 320 221 126 22 0 0 0 0 0 0 0 0 0 0 0 0 2 18 2 6 0 0 0 0 0 0 0 0 0 0 0 0 0 0 0 0 0 0
0 30 347 351 351 362 398 306 73 19 3 0 0 0 0 0 0 0 2 0 23 29 7 0 4 1 0 0 0 0 0 0 0 0 0 0 0 0 0 0 0 0 0 0
21 12 469 340 547 473 368 272 158 141 91 17 14 0 0 0 0 15 47 104 56 3 0 0 0 0 0 0 0 0 0 0 0 0 0 0 0 0 0 0 0 0 0 0
22 7 194 206 225 497 441 350 332 293 232 174 104 0 0 39 142 151 126 101 57 46 7 0 0 0 0 0 0 0 0 0 0 0 0 0 0 0 0 0 0 0 0 0
19 5 2 8 60 81 394 427 402 356 321 284 252 133 120 132 70 95 129 95 62 6 0 0 0 0 0 0 0 0 0 0 0 0 0 0 0 0 0 0 0 0 0 0
11 27 5 0 119 94 138 425 451 402 355 344 295 174 172 155 195 139 105 57 0 0 0 0 0 0 0 0 0 0 0 0 0 0 0 0 0 0 0 0 0 0 0 0
110 37 5 2 88 146 138 318 404 385 417 430 357 322 229 162 211 143 96 0 0 0 0 0 0 0 0 0 0 0 0 0 0 0 0 0 0 0 0 0 0 0 0 0
100 53 17 16 12 172 240 456 466 513 510 465 400 356 269 217 220 181 113 0 0 0 0 0 0 0 0 0 0 0 0 0 0 0 0 0 0 0 0 0 0 0 0 0
305 266 256 71 16 132 270 555 568 551 534 453 442 380 297 263 239 233 97 0 0 0 0 0 0 0 0 0 0 0 0 0 0 0 0 0 0 0 0 0 0 0 0 0
456 557 377 419 257 190 312 630 690 634 591 557 524 487 405 348 340 157 128 0 0 0 0 0 0 0 0 0 0 0 0 0 0 0 0 0 0 0 0 0 0 0 0 0
342 414 529 463 460 253 363 618 709 706 715 684 628 551 511 516 327 155 124 15 1 0 0 0 0 0 0 0 0 0 0 0 0 0 0 0 0 0 0 0 0 0 0 0
209 400 560 536 501 599 419 486 593 734 829 772 702 687 671 497 310 204 105 18 5 0 0 0 0 0 0 0 0 0 0 0 0 0 0 0 0 0 0 0 0 0 0 0

GFSNGP_con_mucape_135.txt.gz
CAPE
0 1 0 0 0 0 0 0 0 0 9 40 68 357 649 497 578 462 444 540 564 491 412 373 333 347 600 692 822 762 489 367 392 307 467 529 493 434 479 621 559 508 596 658
0 0 0 0 0 0 0 0 0 0 0 9 38 52 216 547 544 544 538 404 415 328 335 351 472 455 367 318 426 602 505 466 427 312 370 417 456 469 429 441 540 459 461 578
0 0 0 0 0 0 0 0 0 0 0 51 40 28 29 127 289 372 543 522 331 228 204 137 316 233 257 339 301 280 493 602 268 175 231 334 373 377 352 331 421 557 491 486
0 0 0 0 0 0 0 0 0 0 0 0 31 18 27 147 124 221 208 186 258 152 19 0 0 64 71 60 122 173 260 269 321 211 126 212 124 190 332 295 365 507 412 425
0 0 0 0 0 0 0 0 0 0 0 137 110 60 55 65 82 49 147 74 72 53 17 0 12 55 15 112 91 49 42 97 221 261 226 153 73 46 133 291 274 283 339 368
0 0 0 0 0 0 0 0 0 0 26 107 141 5 0 2 31 25 44 138 125 53 31 2 117 2 0 0 2 92 31 25 2 82 81 21 100 119 157 239 281 329 277 303
0 0 0 0 0 0 0 0 0 0 0 4 20 0 0 12 29 43 55 214 158 55 29 30 1 131 6 2 4 1 0 13 38 36 50 20 92 83 113 212 271 235 187 168
0 0 0 0 0 0 0 0 0 0 0 0 6 0 7 16 41 81 237 325 230 54 21 26 55 188 134 2 0 8 0 13 52 30 57 6 65 92 142 172 239 188 136 98
0 0 0 0 0 0 0 0 0 0 0 0 0 3 44 30 2 46 101 240 165 139 75 99 104 219 372 20 3 10 13 0 40 44 32 0 26 50 135 145 138 130 143 122
20 44 31 20 0 0 0 0 0 0 0 0 0 13 26 119 149 165 263 327 303 271 395 274 454 176 103 56 1 0 0 9 3 2 2 3 19 22 26 14 45 6 13 25
58 38 48 12 0 0 0 0 0 0 0 0 0 4 35 8 100 175 159 170 318 353 329 416 266 288 155 107 3 34 4 9 5 0 24 1 7 7 23 1 19 11 65 52
12 94 21 45 51 25 0 0 0 0 1 0 4 0 3 5 44 47 193 166 367 473 339 360 465 211 141 212 136 30 4 1 18 30 34 6 39 53 73 54 44 44 37 19
33 167 97 98 80 10 0 0 0 16 1 0 0 27 18 17 13 31 100 98 229 295 353 272 510 266 196 162 251 85 15 48 51 21 62 56 26 66 78 84 66 11 55 65
165 85 72 57 28 1 0 0 62 77 121 111 100 39 1 20 34 31 21 30 98 135 193 226 252 316 249 236 232 144 94 77 95 84 62 18 66 71 70 105 76 47 45 67
99 93 107 65 29 10 62 49 93 157 156 179 130 89 35 33 26 9 0 0 0 0 0 0 15 51 65 57 23 54 49 44 2 0 8 0 6 2 0 0 0 0 0 0
163 152 145 66 86 141 162 209 215 179 128 123 125 44 0 0 0 0 0 0 0 0 5 19 1 0 0 0 0 0 0 0 0 0 0 0 0 0 0 0 0 0 0 0
215 284 159 162 171 247 295 254 238 155 81 30 34 0 0 0 0 0 0 0 0 11 7 2 0 0 0 0 0 0 0 0 0 0 0 0 0 0 0 0 0 0 0 0
6 180 258 230 248 254 334 299 200 65 3 0 0 0 0 0 0 0 0 0 42 42 18 4 0 0 0 0 0 0 0 0 0 0 0 0 0 0 0 0 0 0 0 0
12 12 85 276 309 288 356 290 195 114 60 49 0 0 0 0 0 0 0 26 90 24 10 11 5 2 0 0 0 0 0 0 0 0 0 0 0 0 0 0 0 0 0 0
7 13 110 285 370 394 408 407 312 209 171 128 88 35 0 0 0 0 0 48 116 31 14 8 0 0 0 0 0 0 0 0 0 0 0 0 0 0 0 0 0 0 0 0
0 0 0 17 211 337 520 456 404 296 251 242 219 154 92 14 16 9 12 64 63 48 7 0 0 0 0 0 0 0 0 0 0 0 0 0 0 0 0 0 0 0 0 0
0 1 15 11 23 22 55 373 446 370 330 317 309 261 218 82 47 86 105 86 64 9 0 0 0 0 0 0 0 0 0 0 0 0 0 0 0 0 0 0 0 0 0 0
28 23 26 49 44 17 18 139 302 378 385 402 376 337 293 228 115 86 69 73 35 0 0 0 0 0 0 0 0 0 0 0 0 0 0 0 0 0 0 0 0 0 0 0
303 237 192 97 82 41 0 53 239 357 443 464 429 384 369 321 235 162 138 151 70 0 0 0 0 0 0 0 0 0 0 0 0 0 0 0 0 0 0 0 0 0 0 0
325 240 297 320 242 119 15 86 232 299 363 421 404 420 439 380 281 186 187 203 137 0 0 0 0 0 0 0 0 0 0 0 0 0 0 0 0 0 0 0 0 0 0 0
94 120 146 305 379 359 264 167 286 348 369 400 436 471 503 453 384 302 236 242 165 0 0 0 0 0 0 0 0 0 0 0 0 0 0 0 0 0 0 0 0 0 0 0
5 52 47 144 368 340 378 284 437 464 470 445 475 559 539 495 447 390 335 257 161 8 0 0 0 0 0 0 0 0 0 0 0 0 0 0 0 0 0 0 0 0 0 0

GFSNGP_con_mucape_141.txt.gz
CAPE
1 0 0 0 0 0 0 0 0 0 0 0 352 469 450 656 834 677 836 856 894 898 852 774 751 736 942 1098 880 749 857 1028 1351 1254 909 1180 1129 1262 1202 1324 1555 1793 1993 1645
0 0 0 0 0 0 0 0 0 0 0 0 19 352 670 941 917 949 785 777 717 580 314 369 472 450 713 778 886 1338 967 1005 1263 1396 1070 1130 1429 1303 1118 1088 1266 1309 1422 1517
0 0 0 0 0 0 0 0 0 0 0 21 27 66 196 504 819 962 941 757 629 350 306 268 211 230 143 139 354 467 895 1069 1316 1433 1380 1604 1398 1428 1164 1157 1232 1272 1329 1457
2 0 0 0 0 0 0 0 0 0 0 0 0 0 10 3 63 292 503 553 251 184 196 177 155 129 88 148 193 253 290 338 409 550 1003 1298 1459 1319 1193 1063 1054 1173 1230 1593
0 0 0 0 0 0 0 0 0 0 0 0 42 135 117 30 19 149 302 215 56 6 26 73 86 73 70 67 45 13 5 5 7 36 266 563 790 1236 1395 1008 1135 1135 1031 1591
0 0 0 0 0 0 0 0 0 0 0 0 115 0 0 0 21 97 69 0 1 0 0 0 0 41 41 36 25 3 1 0 0 0 2 12 336 257 512 958 1082 1084 1023 1110
0 0 0 0 0 0 0 0 0 0 0 177 121 33 1 0 0 5 2 2 1 1 0 1 5 17 38 17 18 11 4 0 0 0 0 5 10 127 180 165 116 90 86 103
0 0 0 0 0 0 0 0 0 0 0 159 181 0 0 0 2 5 5 1 1 1 33 26 63 79 169 31 20 5 4 0 0 0 25 0 0 45 27 25 31 64 32 86
12 13 9 81 88 50 0 62 0 10 0 0 7 0 0 4 7 2 10 6 2 1 2 3 31 92 146 49 58 48 9 0 0 0 27 51 32 47 15 51 83 53 95 50
14 149 10 86 143 50 56 74 10 0 0 0 14 0 2 9 8 8 2 1 1 2 58 13 89 202 240 98 115 145 0 0 1 0 1 150 126 24 29 54 42 73 81 53
150 134 202 160 195 244 97 6 0 0 0 0 0 0 2 4 0 1 3 4 14 31 20 13 88 299 96 47 123 158 0 0 6 0 0 21 10 6 57 35 44 11 23 17
124 702 690 501 269 230 116 23 0 0 0 0 0 0 1 2 0 0 1 21 47 35 49 118 154 228 48 123 89 39 0 5 3 4 1 1 3 18 8 9 11 17 4 6
13 269 394 318 311 220 149 34 1 0 9 44 0 0 0 0 0 0 0 0 25 36 85 145 151 435 77 112 58 57 39 28 36 57 41 10 0 13 0 6 25 46 38 56
99 383 373 351 359 107 34 49 36 0 49 20 0 1 0 0 0 0 0 0 47 53 66 270 183 334 209 52 77 20 65 72 37 60 43 55 5 13 30 8 0 52 82 80
181 171 226 368 227 43 19 191 176 0 19 0 7 0 0 0 0 0 0 0 11 53 150 156 230 167 282 128 141 80 46 53 54 90 95 83 70 61 68 95 56 41 44 56
364 262 226 292 102 92 97 249 295 133 44 0 69 2 0 0 0 0 0 0 0 0 0 2 67 124 147 100 52 9 9 0 6 0 2 2 4 1 0 0 0 0 0 3
323 379 135 198 112 233 303 314 308 233 186 140 88 0 0 0 0 0 0 0 0 0 0 0 0 0 0 0 0 0 0 0 0 0 0 0 0 0 0 0 0 0 0 0
4 254 250 119 135 170 207 224 247 226 190 139 40 0 0 0 0 0 0 0 1 0 0 0 0 0 0 0 0 0 0 0 0 0 0 0 0 0 0 0 0 0 0 0
0 100 100 298 110 254 316 329 345 276 188 130 0 0 0 0 0 0 0 0 18 26 0 0 0 0 0 0 0 0 0 0 0 0 0 0 0 0 0 0 0 0 0 0
32 32 28 246 290 183 382 458 403 323 158 101 77 0 0 0 0 0 0 0 0 0 1 0 0 0 0 0 0 0 0 0 0 0 0 0 0 0 0 0 0 0 0 0
24 31 60 120 202 361 406 544 415 382 161 72 47 8 0 0 0 0 0 0 27 16 0 0 0 0 0 0 0 0 0 0 0 0 0 0 0 0 0 0 0 0 0 0
22 30 40 153 300 424 486 539 496 470 222 114 62 43 8 0 0 0 0 22 61 0 0 0 0 0 0 0 0 0 0 0 0 0 0 0 0 0 0 0 0 0 0 0
115 9 18 89 295 431 542 570 559 520 423 264 229 166 86 48 25 2 21 50 44 0 18 16 0 0 0 0 0 0 0 0 0 0 0 0 0 0 0 0 0 0 0 0
77 25 13 17 34 147 346 512 576 557 573 462 329 328 279 156 103 81 56 29 6 0 10 22 16 1 0 0 0 0 0 0 0 0 0 0 0 0 0 0 0 0 0 0
146 233 208 34 4 90 288 333 271 325 343 351 329 291 341 388 326 216 125 100 64 20 30 35 43 20 0 0 0 0 0 0 0 0 0 0 0 0 0 0 0 0 0 0
83 272 435 448 408 286 191 116 138 237 301 323 318 314 278 256 298 357 286 249 181 100 81 60 54 32 0 0 0 0 0 0 0 0 0 0 0 0 0 0 0 0 0 0
12 1 82 165 175 370 403 301 311 321 210 281 300 348 296 270 209 165 249 297 226 197 165 72 92 61 0 0 0 0 0 0 0 0 0 0 0 0 0 0 0 0 0 0